Wetterdaten: Sonntag, 15.01.2023
Datum Zeit Temp. 2m Temp +5 cm Feuchte A. Luftdruck Regen Wind Richtung Richtung Sonnenschein UV Solar Taupunkt Windchill Windben
15.01.2023 00:00 6,3 C 5,0 C 90 % 1002,5 hPa 0,0 l/m 14,5 km/h (3 Bft) W-SW 247 0 min 0,0 UV-I 0 W/m 4,8 C 0,9 C 20,9 km/h (4 Bft)
15.01.2023 00:01 6,3 C 5,0 C 90 % 1002,5 hPa 0,2 l/m 22,5 km/h (4 Bft) W 270 0 min 0,0 UV-I 0 W/m 4,8 C -2,4 C 30,6 km/h (5 Bft)
15.01.2023 00:02 6,2 C 5,0 C 90 % 1002,5 hPa 0,0 l/m 14,5 km/h (3 Bft) W-SW 247 0 min 0,0 UV-I 0 W/m 4,7 C 0,8 C 25,7 km/h (4 Bft)
15.01.2023 00:03 6,1 C 4,4 C 90 % 1002,6 hPa 0,0 l/m 16,1 km/h (3 Bft) W 270 0 min 0,0 UV-I 0 W/m 4,6 C -0,1 C 20,9 km/h (4 Bft)
15.01.2023 00:04 5,9 C 4,4 C 90 % 1002,6 hPa 0,0 l/m 16,1 km/h (3 Bft) W 270 0 min 0,0 UV-I 0 W/m 4,4 C -0,4 C 25,7 km/h (4 Bft)
15.01.2023 00:05 5,9 C 4,4 C 90 % 1002,6 hPa 0,0 l/m 14,5 km/h (3 Bft) W 270 0 min 0,0 UV-I 0 W/m 4,4 C 0,4 C 20,9 km/h (4 Bft)
15.01.2023 00:06 5,8 C 4,4 C 90 % 1002,5 hPa 0,0 l/m 20,9 km/h (4 Bft) W 270 0 min 0,0 UV-I 0 W/m 4,3 C -2,5 C 30,6 km/h (5 Bft)
15.01.2023 00:07 5,7 C 4,4 C 90 % 1002,5 hPa 0,0 l/m 22,5 km/h (4 Bft) W-SW 247 0 min 0,0 UV-I 0 W/m 4,2 C -3,2 C 32,2 km/h (5 Bft)
15.01.2023 00:08 5,7 C 4,4 C 90 % 1002,6 hPa 0,0 l/m 25,7 km/h (4 Bft) W 270 0 min 0,0 UV-I 0 W/m 4,2 C -4,2 C 43,5 km/h (6 Bft)
15.01.2023 00:09 5,6 C 4,4 C 90 % 1002,6 hPa 0,0 l/m 20,9 km/h (4 Bft) W-SW 247 0 min 0,0 UV-I 0 W/m 4,1 C -2,7 C 37,0 km/h (5 Bft)
15.01.2023 00:10 5,5 C 4,4 C 90 % 1002,5 hPa 0,0 l/m 19,3 km/h (3 Bft) W-SW 247 0 min 0,0 UV-I 0 W/m 4,0 C -2,2 C 29,0 km/h (5 Bft)
15.01.2023 00:11 5,4 C 4,4 C 90 % 1002,5 hPa 0,0 l/m 24,1 km/h (4 Bft) W-SW 247 0 min 0,0 UV-I 0 W/m 3,9 C -4,1 C 35,4 km/h (5 Bft)
15.01.2023 00:12 5,4 C 4,4 C 90 % 1002,6 hPa 0,0 l/m 19,3 km/h (3 Bft) W-SW 247 0 min 0,0 UV-I 0 W/m 3,9 C -2,4 C 29,0 km/h (5 Bft)
15.01.2023 00:13 5,4 C 4,4 C 90 % 1002,6 hPa 0,2 l/m 22,5 km/h (4 Bft) W-SW 247 0 min 0,0 UV-I 0 W/m 3,9 C -3,6 C 29,0 km/h (5 Bft)
15.01.2023 00:14 5,3 C 4,4 C 90 % 1002,6 hPa 0,0 l/m 20,9 km/h (4 Bft) W-SW 247 0 min 0,0 UV-I 0 W/m 3,8 C -3,1 C 33,8 km/h (5 Bft)
15.01.2023 00:15 5,2 C 4,4 C 90 % 1002,6 hPa 0,0 l/m 22,5 km/h (4 Bft) SW 225 0 min 0,0 UV-I 0 W/m 3,7 C -3,8 C 32,2 km/h (5 Bft)
15.01.2023 00:16 5,2 C 4,4 C 90 % 1002,5 hPa 0,0 l/m 25,7 km/h (4 Bft) W-SW 247 0 min 0,0 UV-I 0 W/m 3,7 C -4,9 C 30,6 km/h (5 Bft)
15.01.2023 00:17 5,2 C 3,9 C 90 % 1002,6 hPa 0,0 l/m 17,7 km/h (3 Bft) W-SW 247 0 min 0,0 UV-I 0 W/m 3,7 C -2,0 C 35,4 km/h (5 Bft)
15.01.2023 00:18 5,2 C 3,9 C 90 % 1002,7 hPa 0,0 l/m 17,7 km/h (3 Bft) W 270 0 min 0,0 UV-I 0 W/m 3,7 C -2,0 C 27,4 km/h (4 Bft)
15.01.2023 00:19 5,2 C 3,9 C 90 % 1002,9 hPa 0,0 l/m 20,9 km/h (4 Bft) W-SW 247 0 min 0,0 UV-I 0 W/m 3,7 C -3,3 C 33,8 km/h (5 Bft)
15.01.2023 00:20 5,2 C 3,9 C 90 % 1002,8 hPa 0,0 l/m 19,3 km/h (3 Bft) W-SW 247 0 min 0,0 UV-I 0 W/m 3,7 C -2,6 C 30,6 km/h (5 Bft)
15.01.2023 00:21 5,1 C 3,9 C 90 % 1002,8 hPa 0,0 l/m 17,7 km/h (3 Bft) SW 225 0 min 0,0 UV-I 0 W/m 3,6 C -2,1 C 30,6 km/h (5 Bft)
15.01.2023 00:22 5,1 C 3,9 C 90 % 1002,8 hPa 0,0 l/m 14,5 km/h (3 Bft) W-SW 247 0 min 0,0 UV-I 0 W/m 3,6 C -0,5 C 25,7 km/h (4 Bft)
15.01.2023 00:23 5,1 C 3,9 C 90 % 1002,8 hPa 0,0 l/m 17,7 km/h (3 Bft) SW 225 0 min 0,0 UV-I 0 W/m 3,6 C -2,1 C 24,1 km/h (4 Bft)
15.01.2023 00:24 5,1 C 3,9 C 90 % 1002,8 hPa 0,0 l/m 14,5 km/h (3 Bft) W-SW 247 0 min 0,0 UV-I 0 W/m 3,6 C -0,5 C 22,5 km/h (4 Bft)
15.01.2023 00:25 5,1 C 3,9 C 90 % 1002,9 hPa 0,2 l/m 12,9 km/h (3 Bft) W-SW 247 0 min 0,0 UV-I 0 W/m 3,6 C 0,3 C 20,9 km/h (4 Bft)
15.01.2023 00:26 5,0 C 3,9 C 90 % 1002,7 hPa 0,0 l/m 14,5 km/h (3 Bft) W-SW 247 0 min 0,0 UV-I 0 W/m 3,5 C -0,7 C 27,4 km/h (4 Bft)
15.01.2023 00:27 5,0 C 3,9 C 90 % 1002,7 hPa 0,0 l/m 16,1 km/h (3 Bft) W-SW 247 0 min 0,0 UV-I 0 W/m 3,5 C -1,5 C 24,1 km/h (4 Bft)
15.01.2023 00:28 5,0 C 3,9 C 90 % 1002,7 hPa 0,0 l/m 17,7 km/h (3 Bft) W-SW 247 0 min 0,0 UV-I 0 W/m 3,5 C -2,2 C 27,4 km/h (4 Bft)
15.01.2023 00:29 5,0 C 3,9 C 90 % 1002,7 hPa 0,0 l/m 14,5 km/h (3 Bft) SW 225 0 min 0,0 UV-I 0 W/m 3,5 C -0,7 C 22,5 km/h (4 Bft)
15.01.2023 00:30 4,9 C 3,9 C 90 % 1002,8 hPa 0,0 l/m 17,7 km/h (3 Bft) W-SW 247 0 min 0,0 UV-I 0 W/m 3,4 C -2,3 C 22,5 km/h (4 Bft)
15.01.2023 00:31 4,9 C 3,9 C 90 % 1002,7 hPa 0,0 l/m 12,9 km/h (3 Bft) W-SW 247 0 min 0,0 UV-I 0 W/m 3,4 C 0,1 C 20,9 km/h (4 Bft)
15.01.2023 00:32 4,9 C 3,9 C 90 % 1002,8 hPa 0,2 l/m 16,1 km/h (3 Bft) W-SW 247 0 min 0,0 UV-I 0 W/m 3,4 C -1,6 C 22,5 km/h (4 Bft)
15.01.2023 00:33 4,9 C 3,9 C 90 % 1002,7 hPa 0,0 l/m 16,1 km/h (3 Bft) W-SW 247 0 min 0,0 UV-I 0 W/m 3,4 C -1,6 C 22,5 km/h (4 Bft)
15.01.2023 00:34 4,9 C 3,9 C 90 % 1002,8 hPa 0,0 l/m 20,9 km/h (4 Bft) SW 225 0 min 0,0 UV-I 0 W/m 3,4 C -3,7 C 29,0 km/h (5 Bft)
15.01.2023 00:35 4,9 C 3,9 C 90 % 1002,8 hPa 0,0 l/m 12,9 km/h (3 Bft) W-SW 247 0 min 0,0 UV-I 0 W/m 3,4 C 0,1 C 25,7 km/h (4 Bft)
15.01.2023 00:36 4,9 C 3,9 C 90 % 1002,8 hPa 0,0 l/m 12,9 km/h (3 Bft) SW 225 0 min 0,0 UV-I 0 W/m 3,4 C 0,1 C 24,1 km/h (4 Bft)
15.01.2023 00:37 4,9 C 3,9 C 90 % 1002,8 hPa 0,0 l/m 14,5 km/h (3 Bft) SW 225 0 min 0,0 UV-I 0 W/m 3,4 C -0,8 C 24,1 km/h (4 Bft)
15.01.2023 00:38 4,9 C 3,9 C 90 % 1002,8 hPa 0,2 l/m 8,0 km/h (2 Bft) W-SW 247 0 min 0,0 UV-I 0 W/m 3,4 C 3,5 C 19,3 km/h (3 Bft)
15.01.2023 00:39 4,9 C 3,9 C 90 % 1002,7 hPa 0,0 l/m 6,4 km/h (2 Bft) SW 225 0 min 0,0 UV-I 0 W/m 3,4 C 4,9 C 14,5 km/h (3 Bft)
15.01.2023 00:40 4,9 C 3,9 C 90 % 1002,8 hPa 0,0 l/m 8,0 km/h (2 Bft) SW 225 0 min 0,0 UV-I 0 W/m 3,4 C 3,5 C 16,1 km/h (3 Bft)
15.01.2023 00:41 4,8 C 3,9 C 90 % 1002,7 hPa 0,0 l/m 12,9 km/h (3 Bft) W-SW 247 0 min 0,0 UV-I 0 W/m 3,3 C -0,0 C 17,7 km/h (3 Bft)
15.01.2023 00:42 4,8 C 3,9 C 90 % 1002,7 hPa 0,0 l/m 14,5 km/h (3 Bft) SW 225 0 min 0,0 UV-I 0 W/m 3,3 C -0,9 C 20,9 km/h (4 Bft)
15.01.2023 00:43 4,8 C 3,9 C 90 % 1002,8 hPa 0,2 l/m 11,3 km/h (2 Bft) SW 225 0 min 0,0 UV-I 0 W/m 3,3 C 1,0 C 20,9 km/h (4 Bft)
15.01.2023 00:44 4,8 C 3,9 C 90 % 1002,8 hPa 0,0 l/m 8,0 km/h (2 Bft) SW 225 0 min 0,0 UV-I 0 W/m 3,3 C 3,4 C 16,1 km/h (3 Bft)
15.01.2023 00:45 4,8 C 3,9 C 90 % 1002,7 hPa 0,0 l/m 9,7 km/h (2 Bft) SW 225 0 min 0,0 UV-I 0 W/m 3,3 C 2,1 C 19,3 km/h (3 Bft)
15.01.2023 00:46 4,8 C 3,9 C 90 % 1002,6 hPa 0,0 l/m 9,7 km/h (2 Bft) W-SW 247 0 min 0,0 UV-I 0 W/m 3,3 C 2,1 C 16,1 km/h (3 Bft)
15.01.2023 00:47 4,8 C 3,9 C 90 % 1002,7 hPa 0,0 l/m 14,5 km/h (3 Bft) SW 225 0 min 0,0 UV-I 0 W/m 3,3 C -0,9 C 25,7 km/h (4 Bft)
15.01.2023 00:48 4,7 C 3,9 C 90 % 1002,6 hPa 0,0 l/m 12,9 km/h (3 Bft) SW 225 0 min 0,0 UV-I 0 W/m 3,2 C -0,1 C 16,1 km/h (3 Bft)
15.01.2023 00:49 4,7 C 3,9 C 90 % 1002,7 hPa 0,0 l/m 12,9 km/h (3 Bft) W-SW 247 0 min 0,0 UV-I 0 W/m 3,2 C -0,1 C 20,9 km/h (4 Bft)
15.01.2023 00:50 4,7 C 3,9 C 90 % 1002,6 hPa 0,0 l/m 9,7 km/h (2 Bft) SW 225 0 min 0,0 UV-I 0 W/m 3,2 C 2,0 C 16,1 km/h (3 Bft)
15.01.2023 00:51 4,7 C 3,9 C 90 % 1002,7 hPa 0,2 l/m 12,9 km/h (3 Bft) SW 225 0 min 0,0 UV-I 0 W/m 3,2 C -0,1 C 17,7 km/h (3 Bft)
15.01.2023 00:52 4,7 C 3,9 C 90 % 1002,7 hPa 0,0 l/m 12,9 km/h (3 Bft) SW 225 0 min 0,0 UV-I 0 W/m 3,2 C -0,1 C 19,3 km/h (3 Bft)
15.01.2023 00:53 4,6 C 3,9 C 90 % 1002,7 hPa 0,0 l/m 9,7 km/h (2 Bft) SW 225 0 min 0,0 UV-I 0 W/m 3,1 C 1,8 C 16,1 km/h (3 Bft)
15.01.2023 00:54 4,6 C 3,9 C 90 % 1002,6 hPa 0,0 l/m 11,3 km/h (2 Bft) SW 225 0 min 0,0 UV-I 0 W/m 3,1 C 0,7 C 16,1 km/h (3 Bft)
15.01.2023 00:55 4,6 C 3,9 C 90 % 1002,6 hPa 0,0 l/m 16,1 km/h (3 Bft) SW 225 0 min 0,0 UV-I 0 W/m 3,1 C -2,0 C 20,9 km/h (4 Bft)
15.01.2023 00:56 4,6 C 3,3 C 90 % 1002,7 hPa 0,0 l/m 14,5 km/h (3 Bft) W-SW 247 0 min 0,0 UV-I 0 W/m 3,1 C -1,1 C 20,9 km/h (4 Bft)
15.01.2023 00:57 4,5 C 3,3 C 90 % 1002,6 hPa 0,0 l/m 20,9 km/h (4 Bft) W-SW 247 0 min 0,0 UV-I 0 W/m 3,0 C -4,2 C 29,0 km/h (5 Bft)
15.01.2023 00:58 4,4 C 3,3 C 90 % 1002,8 hPa 0,0 l/m 17,7 km/h (3 Bft) W-SW 247 0 min 0,0 UV-I 0 W/m 2,9 C -3,0 C 29,0 km/h (5 Bft)
15.01.2023 00:59 4,4 C 3,3 C 90 % 1002,8 hPa 0,2 l/m 12,9 km/h (3 Bft) W-SW 247 0 min 0,0 UV-I 0 W/m 2,9 C -0,5 C 19,3 km/h (3 Bft)
15.01.2023 01:00 4,3 C 3,3 C 90 % 1002,8 hPa 0,0 l/m 11,3 km/h (2 Bft) SW 225 0 min 0,0 UV-I 0 W/m 2,8 C 0,4 C 17,7 km/h (3 Bft)
15.01.2023 01:01 4,3 C 3,3 C 90 % 1002,8 hPa 0,0 l/m 14,5 km/h (3 Bft) W-SW 247 0 min 0,0 UV-I 0 W/m 2,8 C -1,5 C 19,3 km/h (3 Bft)
15.01.2023 01:02 4,3 C 3,3 C 90 % 1002,8 hPa 0,0 l/m 17,7 km/h (3 Bft) W-SW 247 0 min 0,0 UV-I 0 W/m 2,8 C -3,1 C 24,1 km/h (4 Bft)
15.01.2023 01:03 4,2 C 3,3 C 90 % 1002,7 hPa 0,0 l/m 17,7 km/h (3 Bft) W-SW 247 0 min 0,0 UV-I 0 W/m 2,7 C -3,2 C 30,6 km/h (5 Bft)
15.01.2023 01:04 4,2 C 3,3 C 90 % 1002,6 hPa 0,0 l/m 16,1 km/h (3 Bft) SW 225 0 min 0,0 UV-I 0 W/m 2,7 C -2,5 C 27,4 km/h (4 Bft)
15.01.2023 01:05 4,2 C 3,3 C 90 % 1002,7 hPa 0,0 l/m 12,9 km/h (3 Bft) W-SW 247 0 min 0,0 UV-I 0 W/m 2,7 C -0,7 C 19,3 km/h (3 Bft)
15.01.2023 01:06 4,2 C 3,3 C 90 % 1002,8 hPa 0,2 l/m 14,5 km/h (3 Bft) W-SW 247 0 min 0,0 UV-I 0 W/m 2,7 C -1,6 C 22,5 km/h (4 Bft)
15.01.2023 01:07 4,1 C 3,3 C 90 % 1002,8 hPa 0,0 l/m 12,9 km/h (3 Bft) W-SW 247 0 min 0,0 UV-I 0 W/m 2,6 C -0,8 C 19,3 km/h (3 Bft)
15.01.2023 01:08 4,1 C 3,3 C 90 % 1002,9 hPa 0,0 l/m 16,1 km/h (3 Bft) W-SW 247 0 min 0,0 UV-I 0 W/m 2,6 C -2,6 C 32,2 km/h (5 Bft)
15.01.2023 01:09 4,1 C 3,3 C 90 % 1002,8 hPa 0,0 l/m 19,3 km/h (3 Bft) W-SW 247 0 min 0,0 UV-I 0 W/m 2,6 C -4,0 C 25,7 km/h (4 Bft)
15.01.2023 01:10 4,1 C 3,3 C 90 % 1002,9 hPa 0,0 l/m 12,9 km/h (3 Bft) W-SW 247 0 min 0,0 UV-I 0 W/m 2,6 C -0,8 C 20,9 km/h (4 Bft)
15.01.2023 01:11 4,0 C 3,3 C 90 % 1002,9 hPa 0,0 l/m 14,5 km/h (3 Bft) W-SW 247 0 min 0,0 UV-I 0 W/m 2,5 C -1,9 C 19,3 km/h (3 Bft)
15.01.2023 01:12 4,0 C 2,8 C 90 % 1002,8 hPa 0,2 l/m 14,5 km/h (3 Bft) W-SW 247 0 min 0,0 UV-I 0 W/m 2,5 C -1,9 C 22,5 km/h (4 Bft)
15.01.2023 01:13 3,9 C 2,8 C 90 % 1002,9 hPa 0,0 l/m 12,9 km/h (3 Bft) W-SW 247 0 min 0,0 UV-I 0 W/m 2,4 C -1,1 C 19,3 km/h (3 Bft)
15.01.2023 01:14 3,9 C 2,8 C 90 % 1002,9 hPa 0,0 l/m 12,9 km/h (3 Bft) W-SW 247 0 min 0,0 UV-I 0 W/m 2,4 C -1,1 C 19,3 km/h (3 Bft)
15.01.2023 01:15 3,8 C 2,8 C 90 % 1002,9 hPa 0,0 l/m 12,9 km/h (3 Bft) W-SW 247 0 min 0,0 UV-I 0 W/m 2,3 C -1,2 C 19,3 km/h (3 Bft)
15.01.2023 01:16 3,8 C 2,8 C 90 % 1002,9 hPa 0,0 l/m 14,5 km/h (3 Bft) W-SW 247 0 min 0,0 UV-I 0 W/m 2,3 C -2,1 C 20,9 km/h (4 Bft)
15.01.2023 01:17 3,8 C 2,8 C 90 % 1002,9 hPa 0,2 l/m 11,3 km/h (2 Bft) W-SW 247 0 min 0,0 UV-I 0 W/m 2,3 C -0,2 C 19,3 km/h (3 Bft)
15.01.2023 01:18 3,8 C 2,8 C 90 % 1002,8 hPa 0,0 l/m 9,7 km/h (2 Bft) W-SW 247 0 min 0,0 UV-I 0 W/m 2,3 C 1,0 C 16,1 km/h (3 Bft)
15.01.2023 01:19 3,8 C 2,8 C 90 % 1002,8 hPa 0,0 l/m 11,3 km/h (2 Bft) W-SW 247 0 min 0,0 UV-I 0 W/m 2,3 C -0,2 C 17,7 km/h (3 Bft)
15.01.2023 01:20 3,8 C 2,8 C 90 % 1002,9 hPa 0,0 l/m 11,3 km/h (2 Bft) W-SW 247 0 min 0,0 UV-I 0 W/m 2,3 C -0,2 C 17,7 km/h (3 Bft)
15.01.2023 01:21 3,8 C 2,8 C 90 % 1002,8 hPa 0,0 l/m 17,7 km/h (3 Bft) W 270 0 min 0,0 UV-I 0 W/m 2,3 C -3,7 C 22,5 km/h (4 Bft)
15.01.2023 01:22 3,7 C 2,8 C 90 % 1002,9 hPa 0,0 l/m 14,5 km/h (3 Bft) W-SW 247 0 min 0,0 UV-I 0 W/m 2,2 C -2,2 C 22,5 km/h (4 Bft)
15.01.2023 01:23 3,7 C 2,8 C 90 % 1002,8 hPa 0,0 l/m 14,5 km/h (3 Bft) W 270 0 min 0,0 UV-I 0 W/m 2,2 C -2,2 C 22,5 km/h (4 Bft)
15.01.2023 01:24 3,7 C 2,8 C 90 % 1002,8 hPa 0,0 l/m 8,0 km/h (2 Bft) W-SW 247 0 min 0,0 UV-I 0 W/m 2,2 C 2,2 C 12,9 km/h (3 Bft)
15.01.2023 01:25 3,7 C 2,8 C 90 % 1002,8 hPa 0,2 l/m 8,0 km/h (2 Bft) W-SW 247 0 min 0,0 UV-I 0 W/m 2,2 C 2,2 C 22,5 km/h (4 Bft)
15.01.2023 01:26 3,7 C 2,8 C 90 % 1002,8 hPa 0,0 l/m 12,9 km/h (3 Bft) W-SW 247 0 min 0,0 UV-I 0 W/m 2,2 C -1,3 C 19,3 km/h (3 Bft)
15.01.2023 01:27 3,6 C 2,8 C 90 % 1002,8 hPa 0,0 l/m 8,0 km/h (2 Bft) W 270 0 min 0,0 UV-I 0 W/m 2,1 C 2,1 C 14,5 km/h (3 Bft)
15.01.2023 01:28 3,6 C 2,8 C 90 % 1002,8 hPa 0,0 l/m 14,5 km/h (3 Bft) W-SW 247 0 min 0,0 UV-I 0 W/m 2,1 C -2,3 C 24,1 km/h (4 Bft)
15.01.2023 01:29 3,6 C 2,8 C 90 % 1002,8 hPa 0,0 l/m 14,5 km/h (3 Bft) W-SW 247 0 min 0,0 UV-I 0 W/m 2,1 C -2,3 C 19,3 km/h (3 Bft)
15.01.2023 01:30 3,6 C 2,8 C 90 % 1002,8 hPa 0,0 l/m 12,9 km/h (3 Bft) W-SW 247 0 min 0,0 UV-I 0 W/m 2,1 C -1,4 C 17,7 km/h (3 Bft)
15.01.2023 01:31 3,6 C 2,8 C 90 % 1002,9 hPa 0,0 l/m 12,9 km/h (3 Bft) W-SW 247 0 min 0,0 UV-I 0 W/m 2,1 C -1,4 C 19,3 km/h (3 Bft)
15.01.2023 01:32 3,5 C 2,8 C 90 % 1002,8 hPa 0,0 l/m 12,9 km/h (3 Bft) W 270 0 min 0,0 UV-I 0 W/m 2,0 C -1,5 C 19,3 km/h (3 Bft)
15.01.2023 01:33 3,5 C 2,8 C 90 % 1002,9 hPa 0,0 l/m 14,5 km/h (3 Bft) W-SW 247 0 min 0,0 UV-I 0 W/m 2,0 C -2,5 C 20,9 km/h (4 Bft)
15.01.2023 01:34 3,5 C 2,8 C 90 % 1002,9 hPa 0,2 l/m 12,9 km/h (3 Bft) W-SW 247 0 min 0,0 UV-I 0 W/m 2,0 C -1,5 C 17,7 km/h (3 Bft)
15.01.2023 01:35 3,4 C 2,8 C 90 % 1002,9 hPa 0,0 l/m 9,7 km/h (2 Bft) W 270 0 min 0,0 UV-I 0 W/m 1,9 C 0,5 C 14,5 km/h (3 Bft)
15.01.2023 01:36 3,4 C 2,8 C 91 % 1002,9 hPa 0,0 l/m 8,0 km/h (2 Bft) W 270 0 min 0,0 UV-I 0 W/m 2,1 C 1,9 C 14,5 km/h (3 Bft)
15.01.2023 01:37 3,4 C 2,8 C 91 % 1002,9 hPa 0,0 l/m 12,9 km/h (3 Bft) W-SW 247 0 min 0,0 UV-I 0 W/m 2,1 C -1,7 C 19,3 km/h (3 Bft)
15.01.2023 01:38 3,4 C 2,8 C 91 % 1002,9 hPa 0,0 l/m 14,5 km/h (3 Bft) W-SW 247 0 min 0,0 UV-I 0 W/m 2,1 C -2,6 C 20,9 km/h (4 Bft)
15.01.2023 01:39 3,4 C 2,8 C 90 % 1002,9 hPa 0,0 l/m 12,9 km/h (3 Bft) W-SW 247 0 min 0,0 UV-I 0 W/m 1,9 C -1,7 C 20,9 km/h (4 Bft)
15.01.2023 01:40 3,4 C 2,8 C 91 % 1002,8 hPa 0,0 l/m 12,9 km/h (3 Bft) W-SW 247 0 min 0,0 UV-I 0 W/m 2,1 C -1,7 C 22,5 km/h (4 Bft)
15.01.2023 01:41 3,3 C 2,8 C 90 % 1002,9 hPa 0,0 l/m 14,5 km/h (3 Bft) W-SW 247 0 min 0,0 UV-I 0 W/m 1,8 C -2,7 C 20,9 km/h (4 Bft)
15.01.2023 01:42 3,3 C 2,8 C 90 % 1002,8 hPa 0,2 l/m 8,0 km/h (2 Bft) W 270 0 min 0,0 UV-I 0 W/m 1,8 C 1,8 C 14,5 km/h (3 Bft)
15.01.2023 01:43 3,3 C 2,8 C 90 % 1002,8 hPa 0,0 l/m 8,0 km/h (2 Bft) W-SW 247 0 min 0,0 UV-I 0 W/m 1,8 C 1,8 C 14,5 km/h (3 Bft)
15.01.2023 01:44 3,3 C 2,8 C 90 % 1002,8 hPa 0,0 l/m 11,3 km/h (2 Bft) W 270 0 min 0,0 UV-I 0 W/m 1,8 C -0,7 C 14,5 km/h (3 Bft)
15.01.2023 01:45 3,3 C 2,8 C 90 % 1002,8 hPa 0,0 l/m 12,9 km/h (3 Bft) W-SW 247 0 min 0,0 UV-I 0 W/m 1,8 C -1,8 C 19,3 km/h (3 Bft)
15.01.2023 01:46 3,2 C 2,8 C 90 % 1002,7 hPa 0,0 l/m 11,3 km/h (2 Bft) W-SW 247 0 min 0,0 UV-I 0 W/m 1,7 C -0,8 C 17,7 km/h (3 Bft)
15.01.2023 01:47 3,3 C 2,8 C 90 % 1002,8 hPa 0,0 l/m 11,3 km/h (2 Bft) W-SW 247 0 min 0,0 UV-I 0 W/m 1,8 C -0,7 C 19,3 km/h (3 Bft)
15.01.2023 01:48 3,2 C 2,2 C 90 % 1002,8 hPa 0,0 l/m 9,7 km/h (2 Bft) W-SW 247 0 min 0,0 UV-I 0 W/m 1,7 C 0,3 C 16,1 km/h (3 Bft)
15.01.2023 01:49 3,2 C 2,2 C 90 % 1002,9 hPa 0,0 l/m 8,0 km/h (2 Bft) W-SW 247 0 min 0,0 UV-I 0 W/m 1,7 C 1,7 C 12,9 km/h (3 Bft)
15.01.2023 01:50 3,2 C 2,2 C 90 % 1002,9 hPa 0,0 l/m 11,3 km/h (2 Bft) W-SW 247 0 min 0,0 UV-I 0 W/m 1,7 C -0,8 C 16,1 km/h (3 Bft)
15.01.2023 01:51 3,2 C 2,2 C 90 % 1002,9 hPa 0,0 l/m 11,3 km/h (2 Bft) W-SW 247 0 min 0,0 UV-I 0 W/m 1,7 C -0,8 C 20,9 km/h (4 Bft)
15.01.2023 01:52 3,2 C 2,2 C 90 % 1002,8 hPa 0,2 l/m 12,9 km/h (3 Bft) W 270 0 min 0,0 UV-I 0 W/m 1,7 C -1,9 C 17,7 km/h (3 Bft)
15.01.2023 01:53 3,2 C 2,2 C 91 % 1002,9 hPa 0,0 l/m 11,3 km/h (2 Bft) W-SW 247 0 min 0,0 UV-I 0 W/m 1,9 C -0,8 C 19,3 km/h (3 Bft)
15.01.2023 01:54 3,2 C 2,2 C 91 % 1002,9 hPa 0,0 l/m 14,5 km/h (3 Bft) W-SW 247 0 min 0,0 UV-I 0 W/m 1,9 C -2,8 C 19,3 km/h (3 Bft)
15.01.2023 01:55 3,2 C 2,2 C 91 % 1002,9 hPa 0,0 l/m 11,3 km/h (2 Bft) W-SW 247 0 min 0,0 UV-I 0 W/m 1,9 C -0,8 C 16,1 km/h (3 Bft)
15.01.2023 01:56 3,2 C 2,2 C 91 % 1002,9 hPa 0,0 l/m 8,0 km/h (2 Bft) W-SW 247 0 min 0,0 UV-I 0 W/m 1,9 C 1,7 C 12,9 km/h (3 Bft)
15.01.2023 01:57 3,2 C 2,2 C 91 % 1002,8 hPa 0,0 l/m 9,7 km/h (2 Bft) W-SW 247 0 min 0,0 UV-I 0 W/m 1,9 C 0,3 C 16,1 km/h (3 Bft)
15.01.2023 01:58 3,2 C 2,2 C 91 % 1002,8 hPa 0,0 l/m 6,4 km/h (2 Bft) W-SW 247 0 min 0,0 UV-I 0 W/m 1,9 C 3,2 C 11,3 km/h (2 Bft)
15.01.2023 01:59 3,2 C 2,2 C 91 % 1002,9 hPa 0,0 l/m 6,4 km/h (2 Bft) W 270 0 min 0,0 UV-I 0 W/m 1,9 C 3,2 C 9,7 km/h (2 Bft)
15.01.2023 02:00 3,2 C 2,2 C 91 % 1002,8 hPa 0,0 l/m 8,0 km/h (2 Bft) W 270 0 min 0,0 UV-I 0 W/m 1,9 C 1,7 C 11,3 km/h (2 Bft)
15.01.2023 02:01 3,2 C 2,2 C 91 % 1002,9 hPa 0,2 l/m 8,0 km/h (2 Bft) W 270 0 min 0,0 UV-I 0 W/m 1,9 C 1,7 C 11,3 km/h (2 Bft)
15.01.2023 02:02 3,1 C 2,2 C 91 % 1003,0 hPa 0,0 l/m 3,2 km/h (1 Bft) W 270 0 min 0,0 UV-I 0 W/m 1,8 C 3,1 C 6,4 km/h (2 Bft)
15.01.2023 02:03 3,1 C 2,8 C 91 % 1002,9 hPa 0,0 l/m 4,8 km/h (1 Bft) SW 225 0 min 0,0 UV-I 0 W/m 1,8 C 3,1 C 6,4 km/h (2 Bft)
15.01.2023 02:04 3,1 C 2,8 C 91 % 1002,9 hPa 0,0 l/m 6,4 km/h (2 Bft) W-SW 247 0 min 0,0 UV-I 0 W/m 1,8 C 3,1 C 9,7 km/h (2 Bft)
15.01.2023 02:05 3,1 C 2,8 C 91 % 1003,0 hPa 0,0 l/m 6,4 km/h (2 Bft) W-SW 247 0 min 0,0 UV-I 0 W/m 1,8 C 3,1 C 8,0 km/h (2 Bft)
15.01.2023 02:06 3,1 C 2,8 C 91 % 1002,9 hPa 0,0 l/m 4,8 km/h (1 Bft) W-SW 247 0 min 0,0 UV-I 0 W/m 1,8 C 3,1 C 6,4 km/h (2 Bft)
15.01.2023 02:07 3,1 C 2,8 C 91 % 1003,0 hPa 0,0 l/m 6,4 km/h (2 Bft) W-SW 247 0 min 0,0 UV-I 0 W/m 1,8 C 3,1 C 11,3 km/h (2 Bft)
15.01.2023 02:08 3,1 C 2,8 C 91 % 1002,9 hPa 0,0 l/m 4,8 km/h (1 Bft) W-SW 247 0 min 0,0 UV-I 0 W/m 1,8 C 3,1 C 6,4 km/h (2 Bft)
15.01.2023 02:09 3,2 C 2,8 C 91 % 1003,0 hPa 0,0 l/m 6,4 km/h (2 Bft) W-SW 247 0 min 0,0 UV-I 0 W/m 1,9 C 3,2 C 11,3 km/h (2 Bft)
15.01.2023 02:10 3,1 C 2,8 C 91 % 1002,9 hPa 0,0 l/m 6,4 km/h (2 Bft) SW 225 0 min 0,0 UV-I 0 W/m 1,8 C 3,1 C 11,3 km/h (2 Bft)
15.01.2023 02:11 3,2 C 2,8 C 91 % 1003,0 hPa 0,0 l/m 4,8 km/h (1 Bft) W-SW 247 0 min 0,0 UV-I 0 W/m 1,9 C 3,2 C 6,4 km/h (2 Bft)
15.01.2023 02:12 3,2 C 2,8 C 91 % 1003,0 hPa 0,0 l/m 4,8 km/h (1 Bft) W-SW 247 0 min 0,0 UV-I 0 W/m 1,9 C 3,2 C 6,4 km/h (2 Bft)
15.01.2023 02:13 3,2 C 2,8 C 91 % 1003,0 hPa 0,2 l/m 3,2 km/h (1 Bft) W-SW 247 0 min 0,0 UV-I 0 W/m 1,9 C 3,2 C 4,8 km/h (1 Bft)
15.01.2023 02:14 3,2 C 2,8 C 91 % 1003,1 hPa 0,0 l/m 9,7 km/h (2 Bft) W 270 0 min 0,0 UV-I 0 W/m 1,9 C 0,3 C 12,9 km/h (3 Bft)
15.01.2023 02:15 3,2 C 2,8 C 91 % 1003,1 hPa 0,0 l/m 4,8 km/h (1 Bft) W 270 0 min 0,0 UV-I 0 W/m 1,9 C 3,2 C 9,7 km/h (2 Bft)
15.01.2023 02:16 3,2 C 2,8 C 91 % 1003,1 hPa 0,0 l/m 4,8 km/h (1 Bft) SW 225 0 min 0,0 UV-I 0 W/m 1,9 C 3,2 C 9,7 km/h (2 Bft)
15.01.2023 02:17 3,2 C 2,8 C 91 % 1003,1 hPa 0,0 l/m 4,8 km/h (1 Bft) W-SW 247 0 min 0,0 UV-I 0 W/m 1,9 C 3,2 C 6,4 km/h (2 Bft)
15.01.2023 02:18 3,2 C 2,8 C 91 % 1003,1 hPa 0,0 l/m 4,8 km/h (1 Bft) W-SW 247 0 min 0,0 UV-I 0 W/m 1,9 C 3,2 C 8,0 km/h (2 Bft)
15.01.2023 02:19 3,2 C 2,8 C 91 % 1003,1 hPa 0,0 l/m 6,4 km/h (2 Bft) W-SW 247 0 min 0,0 UV-I 0 W/m 1,9 C 3,2 C 12,9 km/h (3 Bft)
15.01.2023 02:20 3,2 C 2,8 C 91 % 1003,2 hPa 0,0 l/m 4,8 km/h (1 Bft) W-SW 247 0 min 0,0 UV-I 0 W/m 1,9 C 3,2 C 12,9 km/h (3 Bft)
15.01.2023 02:21 3,2 C 2,8 C 91 % 1003,1 hPa 0,0 l/m 6,4 km/h (2 Bft) SW 225 0 min 0,0 UV-I 0 W/m 1,9 C 3,2 C 12,9 km/h (3 Bft)
15.01.2023 02:22 3,2 C 2,8 C 91 % 1003,2 hPa 0,2 l/m 3,2 km/h (1 Bft) W-SW 247 0 min 0,0 UV-I 0 W/m 1,9 C 3,2 C 6,4 km/h (2 Bft)
15.01.2023 02:23 3,2 C 2,8 C 91 % 1003,2 hPa 0,0 l/m 6,4 km/h (2 Bft) W-SW 247 0 min 0,0 UV-I 0 W/m 1,9 C 3,2 C 11,3 km/h (2 Bft)
15.01.2023 02:24 3,2 C 2,8 C 91 % 1003,3 hPa 0,0 l/m 6,4 km/h (2 Bft) W 270 0 min 0,0 UV-I 0 W/m 1,9 C 3,2 C 9,7 km/h (2 Bft)
15.01.2023 02:25 3,2 C 2,8 C 91 % 1003,3 hPa 0,0 l/m 4,8 km/h (1 Bft) W 270 0 min 0,0 UV-I 0 W/m 1,9 C 3,2 C 8,0 km/h (2 Bft)
15.01.2023 02:26 3,2 C 2,8 C 91 % 1003,3 hPa 0,0 l/m 11,3 km/h (2 Bft) W 270 0 min 0,0 UV-I 0 W/m 1,9 C -0,8 C 16,1 km/h (3 Bft)
15.01.2023 02:27 3,2 C 2,8 C 91 % 1003,3 hPa 0,0 l/m 6,4 km/h (2 Bft) W-SW 247 0 min 0,0 UV-I 0 W/m 1,9 C 3,2 C 8,0 km/h (2 Bft)
15.01.2023 02:28 3,2 C 2,8 C 91 % 1003,3 hPa 0,0 l/m 11,3 km/h (2 Bft) W-SW 247 0 min 0,0 UV-I 0 W/m 1,9 C -0,8 C 17,7 km/h (3 Bft)
15.01.2023 02:29 3,2 C 2,8 C 91 % 1003,4 hPa 0,0 l/m 8,0 km/h (2 Bft) W 270 0 min 0,0 UV-I 0 W/m 1,9 C 1,7 C 14,5 km/h (3 Bft)
15.01.2023 02:30 3,2 C 2,8 C 91 % 1003,3 hPa 0,0 l/m 4,8 km/h (1 Bft) SW 225 0 min 0,0 UV-I 0 W/m 1,9 C 3,2 C 8,0 km/h (2 Bft)
15.01.2023 02:31 3,2 C 2,8 C 91 % 1003,3 hPa 0,0 l/m 9,7 km/h (2 Bft) SW 225 0 min 0,0 UV-I 0 W/m 1,9 C 0,3 C 14,5 km/h (3 Bft)
15.01.2023 02:32 3,2 C 2,8 C 91 % 1003,3 hPa 0,0 l/m 11,3 km/h (2 Bft) W 270 0 min 0,0 UV-I 0 W/m 1,9 C -0,8 C 19,3 km/h (3 Bft)
15.01.2023 02:33 3,2 C 2,8 C 91 % 1003,4 hPa 0,0 l/m 16,1 km/h (3 Bft) W 270 0 min 0,0 UV-I 0 W/m 1,9 C -3,7 C 20,9 km/h (4 Bft)
15.01.2023 02:34 3,2 C 2,2 C 91 % 1003,4 hPa 0,2 l/m 16,1 km/h (3 Bft) W 270 0 min 0,0 UV-I 0 W/m 1,9 C -3,7 C 20,9 km/h (4 Bft)
15.01.2023 02:35 3,1 C 2,2 C 91 % 1003,4 hPa 0,0 l/m 9,7 km/h (2 Bft) W-SW 247 0 min 0,0 UV-I 0 W/m 1,8 C 0,2 C 14,5 km/h (3 Bft)
15.01.2023 02:36 3,1 C 2,2 C 91 % 1003,4 hPa 0,0 l/m 9,7 km/h (2 Bft) W-SW 247 0 min 0,0 UV-I 0 W/m 1,8 C 0,2 C 12,9 km/h (3 Bft)
15.01.2023 02:37 3,1 C 2,2 C 91 % 1003,4 hPa 0,0 l/m 6,4 km/h (2 Bft) W-SW 247 0 min 0,0 UV-I 0 W/m 1,8 C 3,1 C 11,3 km/h (2 Bft)
15.01.2023 02:38 3,1 C 2,2 C 91 % 1003,5 hPa 0,0 l/m 8,0 km/h (2 Bft) W 270 0 min 0,0 UV-I 0 W/m 1,8 C 1,6 C 12,9 km/h (3 Bft)
15.01.2023 02:39 3,1 C 2,2 C 91 % 1003,7 hPa 0,0 l/m 9,7 km/h (2 Bft) W 270 0 min 0,0 UV-I 0 W/m 1,8 C 0,2 C 12,9 km/h (3 Bft)
15.01.2023 02:40 3,1 C 2,2 C 91 % 1003,5 hPa 0,0 l/m 6,4 km/h (2 Bft) W 270 0 min 0,0 UV-I 0 W/m 1,8 C 3,1 C 9,7 km/h (2 Bft)
15.01.2023 02:41 3,0 C 2,2 C 91 % 1003,5 hPa 0,0 l/m 4,8 km/h (1 Bft) W-NW 292 0 min 0,0 UV-I 0 W/m 1,7 C 3,0 C 8,0 km/h (2 Bft)
15.01.2023 02:42 3,0 C 2,2 C 91 % 1003,5 hPa 0,0 l/m 8,0 km/h (2 Bft) SW 225 0 min 0,0 UV-I 0 W/m 1,7 C 1,5 C 11,3 km/h (2 Bft)
15.01.2023 02:43 2,9 C 2,2 C 91 % 1003,6 hPa 0,2 l/m 6,4 km/h (2 Bft) W 270 0 min 0,0 UV-I 0 W/m 1,6 C 2,9 C 11,3 km/h (2 Bft)
15.01.2023 02:44 2,9 C 2,2 C 91 % 1003,5 hPa 0,0 l/m 3,2 km/h (1 Bft) W 270 0 min 0,0 UV-I 0 W/m 1,6 C 2,9 C 6,4 km/h (2 Bft)
15.01.2023 02:45 2,9 C 2,2 C 91 % 1003,6 hPa 0,0 l/m 6,4 km/h (2 Bft) W 270 0 min 0,0 UV-I 0 W/m 1,6 C 2,9 C 9,7 km/h (2 Bft)
15.01.2023 02:46 2,9 C 2,2 C 91 % 1003,5 hPa 0,0 l/m 6,4 km/h (2 Bft) W 270 0 min 0,0 UV-I 0 W/m 1,6 C 2,9 C 9,7 km/h (2 Bft)
15.01.2023 02:47 2,8 C 2,2 C 91 % 1003,6 hPa 0,0 l/m 4,8 km/h (1 Bft) W-SW 247 0 min 0,0 UV-I 0 W/m 1,5 C 2,8 C 6,4 km/h (2 Bft)
15.01.2023 02:48 2,8 C 2,2 C 91 % 1003,5 hPa 0,0 l/m 6,4 km/h (2 Bft) W-SW 247 0 min 0,0 UV-I 0 W/m 1,5 C 2,8 C 9,7 km/h (2 Bft)
15.01.2023 02:49 2,8 C 2,2 C 91 % 1003,5 hPa 0,0 l/m 6,4 km/h (2 Bft) W 270 0 min 0,0 UV-I 0 W/m 1,5 C 2,8 C 9,7 km/h (2 Bft)
15.01.2023 02:50 2,8 C 2,2 C 91 % 1003,5 hPa 0,0 l/m 3,2 km/h (1 Bft) W 270 0 min 0,0 UV-I 0 W/m 1,5 C 2,8 C 4,8 km/h (1 Bft)
15.01.2023 02:51 2,8 C 2,2 C 91 % 1003,5 hPa 0,0 l/m 1,6 km/h (1 Bft) W 270 0 min 0,0 UV-I 0 W/m 1,5 C 2,8 C 3,2 km/h (1 Bft)
15.01.2023 02:52 2,8 C 2,2 C 91 % 1003,5 hPa 0,0 l/m 6,4 km/h (2 Bft) SW 225 0 min 0,0 UV-I 0 W/m 1,5 C 2,8 C 12,9 km/h (3 Bft)
15.01.2023 02:53 2,8 C 2,2 C 91 % 1003,4 hPa 0,0 l/m 3,2 km/h (1 Bft) SW 225 0 min 0,0 UV-I 0 W/m 1,5 C 2,8 C 6,4 km/h (2 Bft)
15.01.2023 02:54 2,8 C 2,2 C 91 % 1003,5 hPa 0,0 l/m 8,0 km/h (2 Bft) SW 225 0 min 0,0 UV-I 0 W/m 1,5 C 1,3 C 14,5 km/h (3 Bft)
15.01.2023 02:55 2,7 C 2,2 C 91 % 1003,5 hPa 0,0 l/m 8,0 km/h (2 Bft) W 270 0 min 0,0 UV-I 0 W/m 1,4 C 1,2 C 12,9 km/h (3 Bft)
15.01.2023 02:56 2,7 C 2,2 C 91 % 1003,6 hPa 0,2 l/m 9,7 km/h (2 Bft) SW 225 0 min 0,0 UV-I 0 W/m 1,4 C -0,2 C 16,1 km/h (3 Bft)
15.01.2023 02:57 2,7 C 2,2 C 91 % 1003,6 hPa 0,0 l/m 11,3 km/h (2 Bft) SW 225 0 min 0,0 UV-I 0 W/m 1,4 C -1,4 C 17,7 km/h (3 Bft)
15.01.2023 02:58 2,7 C 2,2 C 91 % 1003,6 hPa 0,0 l/m 6,4 km/h (2 Bft) SW 225 0 min 0,0 UV-I 0 W/m 1,4 C 2,7 C 8,0 km/h (2 Bft)
15.01.2023 02:59 2,7 C 2,2 C 91 % 1003,7 hPa 0,0 l/m 3,2 km/h (1 Bft) SW 225 0 min 0,0 UV-I 0 W/m 1,4 C 2,7 C 6,4 km/h (2 Bft)
15.01.2023 03:00 2,7 C 2,2 C 91 % 1003,7 hPa 0,0 l/m 6,4 km/h (2 Bft) S-SW 202 0 min 0,0 UV-I 0 W/m 1,4 C 2,7 C 8,0 km/h (2 Bft)
15.01.2023 03:01 2,7 C 2,2 C 91 % 1003,6 hPa 0,0 l/m 8,0 km/h (2 Bft) W-SW 247 0 min 0,0 UV-I 0 W/m 1,4 C 1,2 C 11,3 km/h (2 Bft)
15.01.2023 03:02 2,7 C 2,2 C 91 % 1003,7 hPa 0,0 l/m 4,8 km/h (1 Bft) W-SW 247 0 min 0,0 UV-I 0 W/m 1,4 C 2,7 C 6,4 km/h (2 Bft)
15.01.2023 03:03 2,7 C 2,2 C 91 % 1003,6 hPa 0,0 l/m 4,8 km/h (1 Bft) S 180 0 min 0,0 UV-I 0 W/m 1,4 C 2,7 C 9,7 km/h (2 Bft)
15.01.2023 03:04 2,6 C 2,2 C 91 % 1003,6 hPa 0,0 l/m 6,4 km/h (2 Bft) SW 225 0 min 0,0 UV-I 0 W/m 1,3 C 2,6 C 12,9 km/h (3 Bft)
15.01.2023 03:05 2,6 C 2,2 C 91 % 1003,6 hPa 0,0 l/m 6,4 km/h (2 Bft) SW 225 0 min 0,0 UV-I 0 W/m 1,3 C 2,6 C 9,7 km/h (2 Bft)
15.01.2023 03:06 2,6 C 1,7 C 91 % 1003,6 hPa 0,0 l/m 8,0 km/h (2 Bft) S-SW 202 0 min 0,0 UV-I 0 W/m 1,3 C 1,1 C 12,9 km/h (3 Bft)
15.01.2023 03:07 2,6 C 1,7 C 91 % 1003,6 hPa 0,0 l/m 6,4 km/h (2 Bft) S-SW 202 0 min 0,0 UV-I 0 W/m 1,3 C 2,6 C 9,7 km/h (2 Bft)
15.01.2023 03:08 2,6 C 1,7 C 91 % 1003,6 hPa 0,0 l/m 6,4 km/h (2 Bft) W-SW 247 0 min 0,0 UV-I 0 W/m 1,3 C 2,6 C 11,3 km/h (2 Bft)
15.01.2023 03:09 2,6 C 1,7 C 91 % 1003,7 hPa 0,0 l/m 9,7 km/h (2 Bft) SW 225 0 min 0,0 UV-I 0 W/m 1,3 C -0,3 C 16,1 km/h (3 Bft)
15.01.2023 03:10 2,6 C 1,7 C 91 % 1003,7 hPa 0,0 l/m 6,4 km/h (2 Bft) SW 225 0 min 0,0 UV-I 0 W/m 1,3 C 2,6 C 9,7 km/h (2 Bft)
15.01.2023 03:11 2,5 C 1,7 C 91 % 1003,7 hPa 0,0 l/m 4,8 km/h (1 Bft) SW 225 0 min 0,0 UV-I 0 W/m 1,2 C 2,5 C 8,0 km/h (2 Bft)
15.01.2023 03:12 2,5 C 1,7 C 91 % 1003,7 hPa 0,0 l/m 8,0 km/h (2 Bft) SW 225 0 min 0,0 UV-I 0 W/m 1,2 C 1,0 C 11,3 km/h (2 Bft)
15.01.2023 03:13 2,5 C 1,7 C 91 % 1003,6 hPa 0,0 l/m 6,4 km/h (2 Bft) S-SW 202 0 min 0,0 UV-I 0 W/m 1,2 C 2,5 C 11,3 km/h (2 Bft)
15.01.2023 03:14 2,4 C 1,7 C 91 % 1003,6 hPa 0,2 l/m 6,4 km/h (2 Bft) W-SW 247 0 min 0,0 UV-I 0 W/m 1,1 C 2,4 C 12,9 km/h (3 Bft)
15.01.2023 03:15 2,4 C 1,7 C 91 % 1003,6 hPa 0,0 l/m 8,0 km/h (2 Bft) SW 225 0 min 0,0 UV-I 0 W/m 1,1 C 0,9 C 14,5 km/h (3 Bft)
15.01.2023 03:16 2,4 C 1,7 C 91 % 1003,6 hPa 0,0 l/m 8,0 km/h (2 Bft) SW 225 0 min 0,0 UV-I 0 W/m 1,1 C 0,9 C 12,9 km/h (3 Bft)
15.01.2023 03:17 2,4 C 1,7 C 91 % 1003,6 hPa 0,0 l/m 6,4 km/h (2 Bft) SW 225 0 min 0,0 UV-I 0 W/m 1,1 C 2,4 C 12,9 km/h (3 Bft)
15.01.2023 03:18 2,4 C 1,7 C 91 % 1003,6 hPa 0,0 l/m 11,3 km/h (2 Bft) SW 225 0 min 0,0 UV-I 0 W/m 1,1 C -1,8 C 17,7 km/h (3 Bft)
15.01.2023 03:19 2,4 C 1,7 C 91 % 1003,6 hPa 0,0 l/m 12,9 km/h (3 Bft) W-SW 247 0 min 0,0 UV-I 0 W/m 1,1 C -2,8 C 17,7 km/h (3 Bft)
15.01.2023 03:20 2,4 C 1,7 C 91 % 1003,6 hPa 0,0 l/m 9,7 km/h (2 Bft) SW 225 0 min 0,0 UV-I 0 W/m 1,1 C -0,6 C 16,1 km/h (3 Bft)
15.01.2023 03:21 2,4 C 1,7 C 91 % 1003,7 hPa 0,0 l/m 11,3 km/h (2 Bft) SW 225 0 min 0,0 UV-I 0 W/m 1,1 C -1,8 C 17,7 km/h (3 Bft)
15.01.2023 03:22 2,4 C 1,7 C 91 % 1003,6 hPa 0,0 l/m 8,0 km/h (2 Bft) SW 225 0 min 0,0 UV-I 0 W/m 1,1 C 0,9 C 16,1 km/h (3 Bft)
15.01.2023 03:23 2,3 C 1,7 C 91 % 1003,5 hPa 0,0 l/m 11,3 km/h (2 Bft) W-SW 247 0 min 0,0 UV-I 0 W/m 1,0 C -1,9 C 16,1 km/h (3 Bft)
15.01.2023 03:24 2,3 C 1,7 C 91 % 1003,5 hPa 0,0 l/m 9,7 km/h (2 Bft) SW 225 0 min 0,0 UV-I 0 W/m 1,0 C -0,7 C 16,1 km/h (3 Bft)
15.01.2023 03:25 2,3 C 1,7 C 91 % 1003,5 hPa 0,0 l/m 8,0 km/h (2 Bft) W-SW 247 0 min 0,0 UV-I 0 W/m 1,0 C 0,8 C 12,9 km/h (3 Bft)
15.01.2023 03:26 2,3 C 1,7 C 91 % 1003,6 hPa 0,0 l/m 9,7 km/h (2 Bft) SW 225 0 min 0,0 UV-I 0 W/m 1,0 C -0,7 C 14,5 km/h (3 Bft)
15.01.2023 03:27 2,3 C 1,7 C 91 % 1003,5 hPa 0,0 l/m 8,0 km/h (2 Bft) SW 225 0 min 0,0 UV-I 0 W/m 1,0 C 0,8 C 14,5 km/h (3 Bft)
15.01.2023 03:28 2,2 C 1,7 C 91 % 1003,5 hPa 0,0 l/m 9,7 km/h (2 Bft) SW 225 0 min 0,0 UV-I 0 W/m 0,9 C -0,8 C 16,1 km/h (3 Bft)
15.01.2023 03:29 2,2 C 1,7 C 91 % 1003,6 hPa 0,2 l/m 9,7 km/h (2 Bft) SW 225 0 min 0,0 UV-I 0 W/m 0,9 C -0,8 C 16,1 km/h (3 Bft)
15.01.2023 03:30 2,2 C 1,7 C 91 % 1003,6 hPa 0,0 l/m 9,7 km/h (2 Bft) SW 225 0 min 0,0 UV-I 0 W/m 0,9 C -0,8 C 17,7 km/h (3 Bft)
15.01.2023 03:31 2,2 C 1,7 C 91 % 1003,6 hPa 0,0 l/m 16,1 km/h (3 Bft) S-SW 202 0 min 0,0 UV-I 0 W/m 0,9 C -4,9 C 20,9 km/h (4 Bft)
15.01.2023 03:32 2,2 C 1,7 C 91 % 1003,5 hPa 0,0 l/m 12,9 km/h (3 Bft) SW 225 0 min 0,0 UV-I 0 W/m 0,9 C -3,1 C 22,5 km/h (4 Bft)
15.01.2023 03:33 2,2 C 1,7 C 91 % 1003,5 hPa 0,0 l/m 11,3 km/h (2 Bft) SW 225 0 min 0,0 UV-I 0 W/m 0,9 C -2,0 C 19,3 km/h (3 Bft)
15.01.2023 03:34 2,1 C 1,7 C 91 % 1003,5 hPa 0,0 l/m 11,3 km/h (2 Bft) SW 225 0 min 0,0 UV-I 0 W/m 0,8 C -2,1 C 16,1 km/h (3 Bft)
15.01.2023 03:35 2,1 C 1,7 C 91 % 1003,5 hPa 0,0 l/m 11,3 km/h (2 Bft) SW 225 0 min 0,0 UV-I 0 W/m 0,8 C -2,1 C 19,3 km/h (3 Bft)
15.01.2023 03:36 2,1 C 1,7 C 91 % 1003,5 hPa 0,0 l/m 9,7 km/h (2 Bft) SW 225 0 min 0,0 UV-I 0 W/m 0,8 C -0,9 C 14,5 km/h (3 Bft)
15.01.2023 03:37 2,1 C 1,7 C 91 % 1003,4 hPa 0,0 l/m 12,9 km/h (3 Bft) S-SW 202 0 min 0,0 UV-I 0 W/m 0,8 C -3,2 C 24,1 km/h (4 Bft)
15.01.2023 03:38 2,1 C 1,7 C 91 % 1003,4 hPa 0,0 l/m 12,9 km/h (3 Bft) SW 225 0 min 0,0 UV-I 0 W/m 0,8 C -3,2 C 17,7 km/h (3 Bft)
15.01.2023 03:39 2,1 C 1,1 C 91 % 1003,5 hPa 0,0 l/m 12,9 km/h (3 Bft) SW 225 0 min 0,0 UV-I 0 W/m 0,8 C -3,2 C 16,1 km/h (3 Bft)
15.01.2023 03:40 2,0 C 1,1 C 91 % 1003,4 hPa 0,0 l/m 9,7 km/h (2 Bft) SW 225 0 min 0,0 UV-I 0 W/m 0,7 C -1,0 C 16,1 km/h (3 Bft)
15.01.2023 03:41 2,0 C 1,1 C 91 % 1003,4 hPa 0,0 l/m 11,3 km/h (2 Bft) SW 225 0 min 0,0 UV-I 0 W/m 0,7 C -2,2 C 17,7 km/h (3 Bft)
15.01.2023 03:42 2,0 C 1,1 C 91 % 1003,6 hPa 0,0 l/m 11,3 km/h (2 Bft) SW 225 0 min 0,0 UV-I 0 W/m 0,7 C -2,2 C 14,5 km/h (3 Bft)
15.01.2023 03:43 2,0 C 1,1 C 91 % 1003,5 hPa 0,0 l/m 11,3 km/h (2 Bft) S-SW 202 0 min 0,0 UV-I 0 W/m 0,7 C -2,2 C 19,3 km/h (3 Bft)
15.01.2023 03:44 2,0 C 1,1 C 91 % 1003,5 hPa 0,0 l/m 12,9 km/h (3 Bft) S-SW 202 0 min 0,0 UV-I 0 W/m 0,7 C -3,3 C 19,3 km/h (3 Bft)
15.01.2023 03:45 1,9 C 1,1 C 91 % 1003,4 hPa 0,0 l/m 11,3 km/h (2 Bft) S-SW 202 0 min 0,0 UV-I 0 W/m 0,6 C -2,3 C 14,5 km/h (3 Bft)
15.01.2023 03:46 1,9 C 1,1 C 91 % 1003,3 hPa 0,0 l/m 9,7 km/h (2 Bft) S-SW 202 0 min 0,0 UV-I 0 W/m 0,6 C -1,1 C 16,1 km/h (3 Bft)
15.01.2023 03:47 2,0 C 1,1 C 91 % 1003,4 hPa 0,0 l/m 8,0 km/h (2 Bft) SW 225 0 min 0,0 UV-I 0 W/m 0,7 C 0,5 C 14,5 km/h (3 Bft)
15.01.2023 03:48 1,9 C 1,1 C 91 % 1003,3 hPa 0,0 l/m 12,9 km/h (3 Bft) SW 225 0 min 0,0 UV-I 0 W/m 0,6 C -3,4 C 19,3 km/h (3 Bft)
15.01.2023 03:49 1,9 C 1,1 C 91 % 1003,3 hPa 0,0 l/m 12,9 km/h (3 Bft) S-SW 202 0 min 0,0 UV-I 0 W/m 0,6 C -3,4 C 17,7 km/h (3 Bft)
15.01.2023 03:50 1,9 C 1,1 C 91 % 1003,3 hPa 0,2 l/m 11,3 km/h (2 Bft) SW 225 0 min 0,0 UV-I 0 W/m 0,6 C -2,3 C 16,1 km/h (3 Bft)
15.01.2023 03:51 1,9 C 1,1 C 91 % 1003,3 hPa 0,0 l/m 12,9 km/h (3 Bft) S-SW 202 0 min 0,0 UV-I 0 W/m 0,6 C -3,4 C 19,3 km/h (3 Bft)
15.01.2023 03:52 1,9 C 1,1 C 91 % 1003,1 hPa 0,0 l/m 9,7 km/h (2 Bft) SW 225 0 min 0,0 UV-I 0 W/m 0,6 C -1,1 C 14,5 km/h (3 Bft)
15.01.2023 03:53 1,9 C 1,1 C 91 % 1003,2 hPa 0,0 l/m 9,7 km/h (2 Bft) SW 225 0 min 0,0 UV-I 0 W/m 0,6 C -1,1 C 14,5 km/h (3 Bft)
15.01.2023 03:54 1,9 C 1,1 C 91 % 1003,3 hPa 0,0 l/m 11,3 km/h (2 Bft) S-SW 202 0 min 0,0 UV-I 0 W/m 0,6 C -2,3 C 14,5 km/h (3 Bft)
15.01.2023 03:55 1,9 C 1,1 C 91 % 1003,1 hPa 0,0 l/m 11,3 km/h (2 Bft) S-SW 202 0 min 0,0 UV-I 0 W/m 0,6 C -2,3 C 14,5 km/h (3 Bft)
15.01.2023 03:56 1,9 C 1,1 C 91 % 1003,3 hPa 0,0 l/m 9,7 km/h (2 Bft) S-SW 202 0 min 0,0 UV-I 0 W/m 0,6 C -1,1 C 14,5 km/h (3 Bft)
15.01.2023 03:57 1,9 C 1,1 C 91 % 1003,3 hPa 0,0 l/m 8,0 km/h (2 Bft) S-SW 202 0 min 0,0 UV-I 0 W/m 0,6 C 0,3 C 14,5 km/h (3 Bft)
15.01.2023 03:58 1,9 C 1,1 C 91 % 1003,2 hPa 0,0 l/m 11,3 km/h (2 Bft) S-SW 202 0 min 0,0 UV-I 0 W/m 0,6 C -2,3 C 17,7 km/h (3 Bft)
15.01.2023 03:59 1,9 C 1,1 C 91 % 1003,3 hPa 0,0 l/m 16,1 km/h (3 Bft) S 180 0 min 0,0 UV-I 0 W/m 0,6 C -5,3 C 20,9 km/h (4 Bft)
15.01.2023 04:00 1,9 C 1,1 C 91 % 1003,3 hPa 0,0 l/m 11,3 km/h (2 Bft) S-SW 202 0 min 0,0 UV-I 0 W/m 0,6 C -2,3 C 16,1 km/h (3 Bft)
15.01.2023 04:01 1,9 C 1,1 C 91 % 1003,3 hPa 0,0 l/m 16,1 km/h (3 Bft) SW 225 0 min 0,0 UV-I 0 W/m 0,6 C -5,3 C 22,5 km/h (4 Bft)
15.01.2023 04:02 1,9 C 1,1 C 91 % 1003,3 hPa 0,0 l/m 14,5 km/h (3 Bft) S-SW 202 0 min 0,0 UV-I 0 W/m 0,6 C -4,4 C 19,3 km/h (3 Bft)
15.01.2023 04:03 1,9 C 1,1 C 91 % 1003,3 hPa 0,0 l/m 12,9 km/h (3 Bft) S-SW 202 0 min 0,0 UV-I 0 W/m 0,6 C -3,4 C 17,7 km/h (3 Bft)
15.01.2023 04:04 1,9 C 1,1 C 91 % 1003,3 hPa 0,0 l/m 14,5 km/h (3 Bft) S-SW 202 0 min 0,0 UV-I 0 W/m 0,6 C -4,4 C 20,9 km/h (4 Bft)
15.01.2023 04:05 1,9 C 1,1 C 91 % 1003,4 hPa 0,0 l/m 12,9 km/h (3 Bft) SW 225 0 min 0,0 UV-I 0 W/m 0,6 C -3,4 C 20,9 km/h (4 Bft)
15.01.2023 04:06 1,9 C 1,1 C 91 % 1003,4 hPa 0,0 l/m 12,9 km/h (3 Bft) S-SW 202 0 min 0,0 UV-I 0 W/m 0,6 C -3,4 C 17,7 km/h (3 Bft)
15.01.2023 04:07 1,9 C 1,1 C 91 % 1003,4 hPa 0,0 l/m 16,1 km/h (3 Bft) S-SW 202 0 min 0,0 UV-I 0 W/m 0,6 C -5,3 C 19,3 km/h (3 Bft)
15.01.2023 04:08 1,9 C 1,1 C 91 % 1003,4 hPa 0,0 l/m 12,9 km/h (3 Bft) S-SW 202 0 min 0,0 UV-I 0 W/m 0,6 C -3,4 C 17,7 km/h (3 Bft)
15.01.2023 04:09 1,9 C 1,1 C 91 % 1003,3 hPa 0,0 l/m 12,9 km/h (3 Bft) S 180 0 min 0,0 UV-I 0 W/m 0,6 C -3,4 C 16,1 km/h (3 Bft)
15.01.2023 04:10 1,9 C 1,1 C 91 % 1003,3 hPa 0,0 l/m 12,9 km/h (3 Bft) S-SW 202 0 min 0,0 UV-I 0 W/m 0,6 C -3,4 C 19,3 km/h (3 Bft)
15.01.2023 04:11 1,9 C 1,1 C 91 % 1003,4 hPa 0,0 l/m 14,5 km/h (3 Bft) S-SW 202 0 min 0,0 UV-I 0 W/m 0,6 C -4,4 C 16,1 km/h (3 Bft)
15.01.2023 04:12 1,9 C 1,1 C 91 % 1003,4 hPa 0,0 l/m 19,3 km/h (3 Bft) S-SW 202 0 min 0,0 UV-I 0 W/m 0,6 C -6,9 C 24,1 km/h (4 Bft)
15.01.2023 04:13 1,9 C 1,1 C 91 % 1003,3 hPa 0,0 l/m 12,9 km/h (3 Bft) S-SW 202 0 min 0,0 UV-I 0 W/m 0,6 C -3,4 C 20,9 km/h (4 Bft)
15.01.2023 04:14 1,9 C 1,1 C 91 % 1003,3 hPa 0,0 l/m 14,5 km/h (3 Bft) S-SW 202 0 min 0,0 UV-I 0 W/m 0,6 C -4,4 C 19,3 km/h (3 Bft)
15.01.2023 04:15 1,9 C 1,1 C 91 % 1003,4 hPa 0,0 l/m 14,5 km/h (3 Bft) S-SW 202 0 min 0,0 UV-I 0 W/m 0,6 C -4,4 C 17,7 km/h (3 Bft)
15.01.2023 04:16 1,9 C 1,1 C 91 % 1003,4 hPa 0,0 l/m 11,3 km/h (2 Bft) S-SW 202 0 min 0,0 UV-I 0 W/m 0,6 C -2,3 C 16,1 km/h (3 Bft)
15.01.2023 04:17 1,9 C 1,1 C 91 % 1003,4 hPa 0,2 l/m 14,5 km/h (3 Bft) SW 225 0 min 0,0 UV-I 0 W/m 0,6 C -4,4 C 20,9 km/h (4 Bft)
15.01.2023 04:18 1,9 C 1,1 C 91 % 1003,5 hPa 0,0 l/m 12,9 km/h (3 Bft) S-SW 202 0 min 0,0 UV-I 0 W/m 0,6 C -3,4 C 17,7 km/h (3 Bft)
15.01.2023 04:19 1,9 C 1,1 C 91 % 1003,4 hPa 0,0 l/m 12,9 km/h (3 Bft) S-SW 202 0 min 0,0 UV-I 0 W/m 0,6 C -3,4 C 16,1 km/h (3 Bft)
15.01.2023 04:20 1,9 C 1,1 C 91 % 1003,4 hPa 0,0 l/m 12,9 km/h (3 Bft) S-SW 202 0 min 0,0 UV-I 0 W/m 0,6 C -3,4 C 16,1 km/h (3 Bft)
15.01.2023 04:21 1,9 C 1,1 C 91 % 1003,4 hPa 0,0 l/m 11,3 km/h (2 Bft) S-SW 202 0 min 0,0 UV-I 0 W/m 0,6 C -2,3 C 16,1 km/h (3 Bft)
15.01.2023 04:22 1,9 C 1,1 C 91 % 1003,4 hPa 0,0 l/m 14,5 km/h (3 Bft) S-SW 202 0 min 0,0 UV-I 0 W/m 0,6 C -4,4 C 17,7 km/h (3 Bft)
15.01.2023 04:23 1,9 C 1,1 C 91 % 1003,4 hPa 0,0 l/m 11,3 km/h (2 Bft) S-SW 202 0 min 0,0 UV-I 0 W/m 0,6 C -2,3 C 16,1 km/h (3 Bft)
15.01.2023 04:24 1,9 C 1,1 C 91 % 1003,5 hPa 0,0 l/m 12,9 km/h (3 Bft) S-SW 202 0 min 0,0 UV-I 0 W/m 0,6 C -3,4 C 16,1 km/h (3 Bft)
15.01.2023 04:25 1,8 C 1,1 C 91 % 1003,5 hPa 0,0 l/m 14,5 km/h (3 Bft) S-SW 202 0 min 0,0 UV-I 0 W/m 0,5 C -4,5 C 20,9 km/h (4 Bft)
15.01.2023 04:26 1,9 C 1,1 C 91 % 1003,3 hPa 0,0 l/m 14,5 km/h (3 Bft) S 180 0 min 0,0 UV-I 0 W/m 0,6 C -4,4 C 19,3 km/h (3 Bft)
15.01.2023 04:27 1,8 C 1,1 C 91 % 1003,4 hPa 0,0 l/m 12,9 km/h (3 Bft) S-SW 202 0 min 0,0 UV-I 0 W/m 0,5 C -3,5 C 17,7 km/h (3 Bft)
15.01.2023 04:28 1,9 C 1,1 C 91 % 1003,4 hPa 0,0 l/m 12,9 km/h (3 Bft) S-SW 202 0 min 0,0 UV-I 0 W/m 0,6 C -3,4 C 17,7 km/h (3 Bft)
15.01.2023 04:29 1,8 C 1,1 C 91 % 1003,3 hPa 0,0 l/m 9,7 km/h (2 Bft) S-SW 202 0 min 0,0 UV-I 0 W/m 0,5 C -1,2 C 14,5 km/h (3 Bft)
15.01.2023 04:30 1,8 C 1,1 C 91 % 1003,3 hPa 0,0 l/m 11,3 km/h (2 Bft) S-SW 202 0 min 0,0 UV-I 0 W/m 0,5 C -2,4 C 14,5 km/h (3 Bft)
15.01.2023 04:31 1,8 C 1,1 C 91 % 1003,4 hPa 0,0 l/m 11,3 km/h (2 Bft) S-SW 202 0 min 0,0 UV-I 0 W/m 0,5 C -2,4 C 16,1 km/h (3 Bft)
15.01.2023 04:32 1,8 C 1,1 C 91 % 1003,4 hPa 0,0 l/m 11,3 km/h (2 Bft) S-SW 202 0 min 0,0 UV-I 0 W/m 0,5 C -2,4 C 14,5 km/h (3 Bft)
15.01.2023 04:33 1,8 C 1,1 C 91 % 1003,4 hPa 0,0 l/m 9,7 km/h (2 Bft) S 180 0 min 0,0 UV-I 0 W/m 0,5 C -1,2 C 12,9 km/h (3 Bft)
15.01.2023 04:34 1,8 C 1,1 C 91 % 1003,4 hPa 0,0 l/m 19,3 km/h (3 Bft) S-SW 202 0 min 0,0 UV-I 0 W/m 0,5 C -7,0 C 22,5 km/h (4 Bft)
15.01.2023 04:35 1,8 C 1,1 C 91 % 1003,4 hPa 0,2 l/m 14,5 km/h (3 Bft) S-SW 202 0 min 0,0 UV-I 0 W/m 0,5 C -4,5 C 17,7 km/h (3 Bft)
15.01.2023 04:36 1,8 C 1,1 C 91 % 1003,5 hPa 0,0 l/m 12,9 km/h (3 Bft) S-SW 202 0 min 0,0 UV-I 0 W/m 0,5 C -3,5 C 14,5 km/h (3 Bft)
15.01.2023 04:37 1,8 C 1,1 C 91 % 1003,4 hPa 0,0 l/m 12,9 km/h (3 Bft) S-SW 202 0 min 0,0 UV-I 0 W/m 0,5 C -3,5 C 16,1 km/h (3 Bft)
15.01.2023 04:38 1,7 C 1,1 C 91 % 1003,3 hPa 0,0 l/m 12,9 km/h (3 Bft) S-SW 202 0 min 0,0 UV-I 0 W/m 0,4 C -3,6 C 16,1 km/h (3 Bft)
15.01.2023 04:39 1,7 C 1,1 C 91 % 1003,4 hPa 0,0 l/m 11,3 km/h (2 Bft) S-SW 202 0 min 0,0 UV-I 0 W/m 0,4 C -2,6 C 14,5 km/h (3 Bft)
15.01.2023 04:40 1,7 C 1,1 C 91 % 1003,3 hPa 0,0 l/m 14,5 km/h (3 Bft) S-SW 202 0 min 0,0 UV-I 0 W/m 0,4 C -4,6 C 17,7 km/h (3 Bft)
15.01.2023 04:41 1,7 C 1,1 C 91 % 1003,3 hPa 0,0 l/m 14,5 km/h (3 Bft) S-SW 202 0 min 0,0 UV-I 0 W/m 0,4 C -4,6 C 17,7 km/h (3 Bft)
15.01.2023 04:42 1,7 C 0,6 C 91 % 1003,3 hPa 0,0 l/m 11,3 km/h (2 Bft) S-SW 202 0 min 0,0 UV-I 0 W/m 0,4 C -2,6 C 14,5 km/h (3 Bft)
15.01.2023 04:43 1,6 C 0,6 C 91 % 1003,3 hPa 0,0 l/m 14,5 km/h (3 Bft) S-SW 202 0 min 0,0 UV-I 0 W/m 0,3 C -4,8 C 19,3 km/h (3 Bft)
15.01.2023 04:44 1,6 C 0,0 C 91 % 1003,3 hPa 0,0 l/m 12,9 km/h (3 Bft) S-SW 202 0 min 0,0 UV-I 0 W/m 0,3 C -3,8 C 17,7 km/h (3 Bft)
15.01.2023 04:45 1,6 C 0,0 C 91 % 1003,4 hPa 0,0 l/m 12,9 km/h (3 Bft) S-SW 202 0 min 0,0 UV-I 0 W/m 0,3 C -3,8 C 14,5 km/h (3 Bft)
15.01.2023 04:46 1,5 C 0,6 C 91 % 1003,4 hPa 0,0 l/m 11,3 km/h (2 Bft) S-SW 202 0 min 0,0 UV-I 0 W/m 0,2 C -2,8 C 16,1 km/h (3 Bft)
15.01.2023 04:47 1,4 C 0,6 C 91 % 1003,5 hPa 0,0 l/m 12,9 km/h (3 Bft) S-SW 202 0 min 0,0 UV-I 0 W/m 0,1 C -4,0 C 17,7 km/h (3 Bft)
15.01.2023 04:48 1,4 C 0,6 C 91 % 1003,5 hPa 0,0 l/m 12,9 km/h (3 Bft) S 180 0 min 0,0 UV-I 0 W/m 0,1 C -4,0 C 17,7 km/h (3 Bft)
15.01.2023 04:49 1,4 C 0,6 C 91 % 1003,5 hPa 0,0 l/m 12,9 km/h (3 Bft) S 180 0 min 0,0 UV-I 0 W/m 0,1 C -4,0 C 17,7 km/h (3 Bft)
15.01.2023 04:50 1,3 C 0,6 C 91 % 1003,4 hPa 0,0 l/m 9,7 km/h (2 Bft) S-SW 202 0 min 0,0 UV-I 0 W/m -0,0 C -1,8 C 14,5 km/h (3 Bft)
15.01.2023 04:51 1,3 C 0,6 C 91 % 1003,4 hPa 0,2 l/m 9,7 km/h (2 Bft) S 180 0 min 0,0 UV-I 0 W/m -0,0 C -1,8 C 12,9 km/h (3 Bft)
15.01.2023 04:52 1,3 C 0,6 C 91 % 1003,5 hPa 0,0 l/m 9,7 km/h (2 Bft) S-SO 157 0 min 0,0 UV-I 0 W/m -0,0 C -1,8 C 16,1 km/h (3 Bft)
15.01.2023 04:53 1,3 C 0,6 C 91 % 1003,4 hPa 0,0 l/m 12,9 km/h (3 Bft) S 180 0 min 0,0 UV-I 0 W/m -0,0 C -4,1 C 17,7 km/h (3 Bft)
15.01.2023 04:54 1,3 C 0,6 C 91 % 1003,5 hPa 0,0 l/m 12,9 km/h (3 Bft) S 180 0 min 0,0 UV-I 0 W/m -0,0 C -4,1 C 20,9 km/h (4 Bft)
15.01.2023 04:55 1,3 C 0,6 C 91 % 1003,5 hPa 0,0 l/m 9,7 km/h (2 Bft) SW 225 0 min 0,0 UV-I 0 W/m -0,0 C -1,8 C 20,9 km/h (4 Bft)
15.01.2023 04:56 1,2 C 0,6 C 91 % 1003,6 hPa 0,0 l/m 12,9 km/h (3 Bft) S-SW 202 0 min 0,0 UV-I 0 W/m -0,1 C -4,2 C 16,1 km/h (3 Bft)
15.01.2023 04:57 1,2 C 0,6 C 91 % 1003,6 hPa 0,0 l/m 14,5 km/h (3 Bft) S-SW 202 0 min 0,0 UV-I 0 W/m -0,1 C -5,2 C 17,7 km/h (3 Bft)
15.01.2023 04:58 1,2 C 0,6 C 91 % 1003,6 hPa 0,0 l/m 14,5 km/h (3 Bft) S 180 0 min 0,0 UV-I 0 W/m -0,1 C -5,2 C 22,5 km/h (4 Bft)
15.01.2023 04:59 1,2 C 0,6 C 91 % 1003,6 hPa 0,0 l/m 11,3 km/h (2 Bft) S-SW 202 0 min 0,0 UV-I 0 W/m -0,1 C -3,1 C 17,7 km/h (3 Bft)
15.01.2023 05:00 1,2 C 0,6 C 91 % 1003,6 hPa 0,0 l/m 11,3 km/h (2 Bft) S-SW 202 0 min 0,0 UV-I 0 W/m -0,1 C -3,1 C 14,5 km/h (3 Bft)
15.01.2023 05:01 1,2 C 0,6 C 91 % 1003,6 hPa 0,0 l/m 12,9 km/h (3 Bft) S-SW 202 0 min 0,0 UV-I 0 W/m -0,1 C -4,2 C 17,7 km/h (3 Bft)
15.01.2023 05:02 1,2 C 0,6 C 91 % 1003,6 hPa 0,0 l/m 11,3 km/h (2 Bft) S 180 0 min 0,0 UV-I 0 W/m -0,1 C -3,1 C 14,5 km/h (3 Bft)
15.01.2023 05:03 1,2 C 0,6 C 91 % 1003,5 hPa 0,0 l/m 11,3 km/h (2 Bft) S 180 0 min 0,0 UV-I 0 W/m -0,1 C -3,1 C 17,7 km/h (3 Bft)
15.01.2023 05:04 1,2 C 0,6 C 91 % 1003,5 hPa 0,0 l/m 11,3 km/h (2 Bft) S-SW 202 0 min 0,0 UV-I 0 W/m -0,1 C -3,1 C 16,1 km/h (3 Bft)
15.01.2023 05:05 1,2 C 0,6 C 91 % 1003,4 hPa 0,0 l/m 11,3 km/h (2 Bft) S 180 0 min 0,0 UV-I 0 W/m -0,1 C -3,1 C 19,3 km/h (3 Bft)
15.01.2023 05:06 1,2 C 0,6 C 91 % 1003,3 hPa 0,0 l/m 11,3 km/h (2 Bft) S 180 0 min 0,0 UV-I 0 W/m -0,1 C -3,1 C 14,5 km/h (3 Bft)
15.01.2023 05:07 1,2 C 0,6 C 91 % 1003,3 hPa 0,0 l/m 8,0 km/h (2 Bft) S 180 0 min 0,0 UV-I 0 W/m -0,1 C -0,4 C 11,3 km/h (2 Bft)
15.01.2023 05:08 1,2 C 0,6 C 91 % 1003,2 hPa 0,0 l/m 8,0 km/h (2 Bft) S 180 0 min 0,0 UV-I 0 W/m -0,1 C -0,4 C 12,9 km/h (3 Bft)
15.01.2023 05:09 1,2 C 0,6 C 91 % 1003,2 hPa 0,0 l/m 11,3 km/h (2 Bft) S 180 0 min 0,0 UV-I 0 W/m -0,1 C -3,1 C 14,5 km/h (3 Bft)
15.01.2023 05:10 1,2 C 0,6 C 91 % 1003,1 hPa 0,0 l/m 11,3 km/h (2 Bft) S-SW 202 0 min 0,0 UV-I 0 W/m -0,1 C -3,1 C 17,7 km/h (3 Bft)
15.01.2023 05:11 1,2 C 0,6 C 91 % 1003,2 hPa 0,0 l/m 12,9 km/h (3 Bft) S-SW 202 0 min 0,0 UV-I 0 W/m -0,1 C -4,2 C 16,1 km/h (3 Bft)
15.01.2023 05:12 1,2 C 0,6 C 91 % 1003,3 hPa 0,0 l/m 9,7 km/h (2 Bft) S 180 0 min 0,0 UV-I 0 W/m -0,1 C -1,9 C 12,9 km/h (3 Bft)
15.01.2023 05:13 1,1 C 0,0 C 91 % 1003,3 hPa 0,2 l/m 11,3 km/h (2 Bft) S-SW 202 0 min 0,0 UV-I 0 W/m -0,2 C -3,2 C 16,1 km/h (3 Bft)
15.01.2023 05:14 1,1 C 0,0 C 91 % 1003,3 hPa 0,0 l/m 12,9 km/h (3 Bft) S-SW 202 0 min 0,0 UV-I 0 W/m -0,2 C -4,3 C 14,5 km/h (3 Bft)
15.01.2023 05:15 1,1 C 0,0 C 91 % 1003,4 hPa 0,0 l/m 11,3 km/h (2 Bft) S 180 0 min 0,0 UV-I 0 W/m -0,2 C -3,2 C 16,1 km/h (3 Bft)
15.01.2023 05:16 1,1 C 0,0 C 91 % 1003,4 hPa 0,0 l/m 11,3 km/h (2 Bft) S 180 0 min 0,0 UV-I 0 W/m -0,2 C -3,2 C 14,5 km/h (3 Bft)
15.01.2023 05:17 1,1 C 0,0 C 91 % 1003,4 hPa 0,0 l/m 11,3 km/h (2 Bft) S 180 0 min 0,0 UV-I 0 W/m -0,2 C -3,2 C 17,7 km/h (3 Bft)
15.01.2023 05:18 1,1 C 0,0 C 91 % 1003,5 hPa 0,0 l/m 12,9 km/h (3 Bft) S-SW 202 0 min 0,0 UV-I 0 W/m -0,2 C -4,3 C 19,3 km/h (3 Bft)
15.01.2023 05:19 1,1 C 0,0 C 91 % 1003,5 hPa 0,0 l/m 14,5 km/h (3 Bft) S 180 0 min 0,0 UV-I 0 W/m -0,2 C -5,4 C 19,3 km/h (3 Bft)
15.01.2023 05:20 1,1 C 0,0 C 91 % 1003,5 hPa 0,0 l/m 14,5 km/h (3 Bft) S-SW 202 0 min 0,0 UV-I 0 W/m -0,2 C -5,4 C 24,1 km/h (4 Bft)
15.01.2023 05:21 1,1 C 0,0 C 91 % 1003,5 hPa 0,0 l/m 14,5 km/h (3 Bft) S 180 0 min 0,0 UV-I 0 W/m -0,2 C -5,4 C 22,5 km/h (4 Bft)
15.01.2023 05:22 1,0 C 0,0 C 91 % 1003,5 hPa 0,0 l/m 16,1 km/h (3 Bft) S-SW 202 0 min 0,0 UV-I 0 W/m -0,3 C -6,4 C 19,3 km/h (3 Bft)
15.01.2023 05:23 1,0 C 0,0 C 91 % 1003,5 hPa 0,0 l/m 12,9 km/h (3 Bft) S-SW 202 0 min 0,0 UV-I 0 W/m -0,3 C -4,5 C 19,3 km/h (3 Bft)
15.01.2023 05:24 1,0 C 0,0 C 92 % 1003,5 hPa 0,0 l/m 11,3 km/h (2 Bft) S 180 0 min 0,0 UV-I 0 W/m -0,2 C -3,3 C 16,1 km/h (3 Bft)
15.01.2023 05:25 1,0 C 0,0 C 91 % 1003,5 hPa 0,0 l/m 11,3 km/h (2 Bft) S-SW 202 0 min 0,0 UV-I 0 W/m -0,3 C -3,3 C 16,1 km/h (3 Bft)
15.01.2023 05:26 1,0 C 0,0 C 92 % 1003,5 hPa 0,0 l/m 12,9 km/h (3 Bft) S 180 0 min 0,0 UV-I 0 W/m -0,2 C -4,5 C 17,7 km/h (3 Bft)
15.01.2023 05:27 0,9 C 0,0 C 92 % 1003,4 hPa 0,0 l/m 11,3 km/h (2 Bft) S-SW 202 0 min 0,0 UV-I 0 W/m -0,2 C -3,5 C 16,1 km/h (3 Bft)
15.01.2023 05:28 0,9 C 0,0 C 92 % 1003,5 hPa 0,0 l/m 11,3 km/h (2 Bft) S-SW 202 0 min 0,0 UV-I 0 W/m -0,2 C -3,5 C 14,5 km/h (3 Bft)
15.01.2023 05:29 0,9 C 0,0 C 92 % 1003,5 hPa 0,0 l/m 12,9 km/h (3 Bft) S-SW 202 0 min 0,0 UV-I 0 W/m -0,2 C -4,6 C 14,5 km/h (3 Bft)
15.01.2023 05:30 0,9 C 0,0 C 92 % 1003,6 hPa 0,0 l/m 11,3 km/h (2 Bft) S-SW 202 0 min 0,0 UV-I 0 W/m -0,2 C -3,5 C 12,9 km/h (3 Bft)
15.01.2023 05:31 0,9 C 0,0 C 92 % 1003,6 hPa 0,0 l/m 8,0 km/h (2 Bft) S-SW 202 0 min 0,0 UV-I 0 W/m -0,2 C -0,7 C 12,9 km/h (3 Bft)
15.01.2023 05:32 0,9 C 0,0 C 91 % 1003,5 hPa 0,0 l/m 9,7 km/h (2 Bft) S-SW 202 0 min 0,0 UV-I 0 W/m -0,4 C -2,2 C 12,9 km/h (3 Bft)
15.01.2023 05:33 0,9 C 0,0 C 91 % 1003,6 hPa 0,0 l/m 9,7 km/h (2 Bft) S-SW 202 0 min 0,0 UV-I 0 W/m -0,4 C -2,2 C 12,9 km/h (3 Bft)
15.01.2023 05:34 0,9 C 0,0 C 91 % 1003,7 hPa 0,0 l/m 9,7 km/h (2 Bft) S-SW 202 0 min 0,0 UV-I 0 W/m -0,4 C -2,2 C 12,9 km/h (3 Bft)
15.01.2023 05:35 0,9 C 0,0 C 91 % 1003,7 hPa 0,0 l/m 8,0 km/h (2 Bft) S-SW 202 0 min 0,0 UV-I 0 W/m -0,4 C -0,7 C 9,7 km/h (2 Bft)
15.01.2023 05:36 0,9 C 0,0 C 91 % 1003,6 hPa 0,0 l/m 8,0 km/h (2 Bft) S-SW 202 0 min 0,0 UV-I 0 W/m -0,4 C -0,7 C 11,3 km/h (2 Bft)
15.01.2023 05:37 0,9 C 0,0 C 91 % 1003,7 hPa 0,0 l/m 8,0 km/h (2 Bft) S-SW 202 0 min 0,0 UV-I 0 W/m -0,4 C -0,7 C 11,3 km/h (2 Bft)
15.01.2023 05:38 0,8 C 0,0 C 91 % 1003,7 hPa 0,0 l/m 6,4 km/h (2 Bft) S-SW 202 0 min 0,0 UV-I 0 W/m -0,5 C 0,8 C 9,7 km/h (2 Bft)
15.01.2023 05:39 0,8 C 0,0 C 91 % 1003,7 hPa 0,0 l/m 6,4 km/h (2 Bft) S-SW 202 0 min 0,0 UV-I 0 W/m -0,5 C 0,8 C 9,7 km/h (2 Bft)
15.01.2023 05:40 0,8 C 0,0 C 91 % 1003,7 hPa 0,0 l/m 8,0 km/h (2 Bft) SW 225 0 min 0,0 UV-I 0 W/m -0,5 C -0,8 C 11,3 km/h (2 Bft)
15.01.2023 05:41 0,8 C 0,0 C 91 % 1003,6 hPa 0,0 l/m 4,8 km/h (1 Bft) SW 225 0 min 0,0 UV-I 0 W/m -0,5 C 0,8 C 9,7 km/h (2 Bft)
15.01.2023 05:42 0,8 C 0,0 C 91 % 1003,7 hPa 0,0 l/m 4,8 km/h (1 Bft) SW 225 0 min 0,0 UV-I 0 W/m -0,5 C 0,8 C 8,0 km/h (2 Bft)
15.01.2023 05:43 0,8 C 0,0 C 91 % 1003,6 hPa 0,0 l/m 4,8 km/h (1 Bft) S-SW 202 0 min 0,0 UV-I 0 W/m -0,5 C 0,8 C 6,4 km/h (2 Bft)
15.01.2023 05:44 0,8 C 0,0 C 92 % 1003,5 hPa 0,0 l/m 6,4 km/h (2 Bft) S-SW 202 0 min 0,0 UV-I 0 W/m -0,3 C 0,8 C 8,0 km/h (2 Bft)
15.01.2023 05:45 0,8 C 0,0 C 91 % 1003,6 hPa 0,0 l/m 6,4 km/h (2 Bft) S-SW 202 0 min 0,0 UV-I 0 W/m -0,5 C 0,8 C 8,0 km/h (2 Bft)
15.01.2023 05:46 0,8 C 0,0 C 91 % 1003,6 hPa 0,0 l/m 8,0 km/h (2 Bft) S-SW 202 0 min 0,0 UV-I 0 W/m -0,5 C -0,8 C 11,3 km/h (2 Bft)
15.01.2023 05:47 0,7 C 0,0 C 92 % 1003,6 hPa 0,0 l/m 6,4 km/h (2 Bft) S-SW 202 0 min 0,0 UV-I 0 W/m -0,4 C 0,7 C 9,7 km/h (2 Bft)
15.01.2023 05:48 0,7 C 0,0 C 92 % 1003,8 hPa 0,0 l/m 8,0 km/h (2 Bft) S-SW 202 0 min 0,0 UV-I 0 W/m -0,4 C -0,9 C 9,7 km/h (2 Bft)
15.01.2023 05:49 0,7 C 0,0 C 92 % 1003,8 hPa 0,0 l/m 8,0 km/h (2 Bft) S-SW 202 0 min 0,0 UV-I 0 W/m -0,4 C -0,9 C 9,7 km/h (2 Bft)
15.01.2023 05:50 0,7 C 0,0 C 92 % 1003,8 hPa 0,0 l/m 9,7 km/h (2 Bft) S-SW 202 0 min 0,0 UV-I 0 W/m -0,4 C -2,4 C 11,3 km/h (2 Bft)
15.01.2023 05:51 0,7 C 0,0 C 92 % 1003,6 hPa 0,0 l/m 8,0 km/h (2 Bft) S-SW 202 0 min 0,0 UV-I 0 W/m -0,4 C -0,9 C 11,3 km/h (2 Bft)
15.01.2023 05:52 0,7 C 0,0 C 92 % 1003,6 hPa 0,0 l/m 6,4 km/h (2 Bft) S-SW 202 0 min 0,0 UV-I 0 W/m -0,4 C 0,7 C 9,7 km/h (2 Bft)
15.01.2023 05:53 0,7 C 0,0 C 92 % 1003,7 hPa 0,0 l/m 8,0 km/h (2 Bft) S-SW 202 0 min 0,0 UV-I 0 W/m -0,4 C -0,9 C 9,7 km/h (2 Bft)
15.01.2023 05:54 0,7 C 0,0 C 92 % 1003,7 hPa 0,0 l/m 6,4 km/h (2 Bft) SW 225 0 min 0,0 UV-I 0 W/m -0,4 C 0,7 C 8,0 km/h (2 Bft)
15.01.2023 05:55 0,7 C 0,0 C 92 % 1003,7 hPa 0,0 l/m 6,4 km/h (2 Bft) S-SW 202 0 min 0,0 UV-I 0 W/m -0,4 C 0,7 C 8,0 km/h (2 Bft)
15.01.2023 05:56 0,7 C 0,0 C 92 % 1003,8 hPa 0,0 l/m 6,4 km/h (2 Bft) S-SW 202 0 min 0,0 UV-I 0 W/m -0,4 C 0,7 C 8,0 km/h (2 Bft)
15.01.2023 05:57 0,7 C 0,0 C 92 % 1003,8 hPa 0,0 l/m 6,4 km/h (2 Bft) S-SW 202 0 min 0,0 UV-I 0 W/m -0,4 C 0,7 C 9,7 km/h (2 Bft)
15.01.2023 05:58 0,7 C 0,0 C 92 % 1003,8 hPa 0,0 l/m 6,4 km/h (2 Bft) S-SW 202 0 min 0,0 UV-I 0 W/m -0,4 C 0,7 C 8,0 km/h (2 Bft)
15.01.2023 05:59 0,7 C 0,0 C 92 % 1003,9 hPa 0,0 l/m 6,4 km/h (2 Bft) S-SW 202 0 min 0,0 UV-I 0 W/m -0,4 C 0,7 C 9,7 km/h (2 Bft)
15.01.2023 06:00 0,7 C 0,0 C 92 % 1003,8 hPa 0,0 l/m 6,4 km/h (2 Bft) SW 225 0 min 0,0 UV-I 0 W/m -0,4 C 0,7 C 8,0 km/h (2 Bft)
15.01.2023 06:01 0,7 C 0,0 C 92 % 1003,8 hPa 0,0 l/m 6,4 km/h (2 Bft) S-SW 202 0 min 0,0 UV-I 0 W/m -0,4 C 0,7 C 8,0 km/h (2 Bft)
15.01.2023 06:02 0,7 C 0,0 C 92 % 1003,7 hPa 0,0 l/m 6,4 km/h (2 Bft) SW 225 0 min 0,0 UV-I 0 W/m -0,4 C 0,7 C 8,0 km/h (2 Bft)
15.01.2023 06:03 0,7 C 0,0 C 92 % 1003,8 hPa 0,0 l/m 6,4 km/h (2 Bft) SW 225 0 min 0,0 UV-I 0 W/m -0,4 C 0,7 C 8,0 km/h (2 Bft)
15.01.2023 06:04 0,7 C 0,0 C 92 % 1003,7 hPa 0,0 l/m 6,4 km/h (2 Bft) S-SW 202 0 min 0,0 UV-I 0 W/m -0,4 C 0,7 C 8,0 km/h (2 Bft)
15.01.2023 06:05 0,7 C 0,0 C 92 % 1003,7 hPa 0,0 l/m 6,4 km/h (2 Bft) S-SW 202 0 min 0,0 UV-I 0 W/m -0,4 C 0,7 C 8,0 km/h (2 Bft)
15.01.2023 06:06 0,6 C 0,0 C 92 % 1003,7 hPa 0,0 l/m 6,4 km/h (2 Bft) S-SW 202 0 min 0,0 UV-I 0 W/m -0,5 C 0,6 C 8,0 km/h (2 Bft)
15.01.2023 06:07 0,6 C 0,0 C 92 % 1003,5 hPa 0,0 l/m 3,2 km/h (1 Bft) S-SW 202 0 min 0,0 UV-I 0 W/m -0,5 C 0,6 C 4,8 km/h (1 Bft)
15.01.2023 06:08 0,6 C 0,0 C 92 % 1003,5 hPa 0,0 l/m 6,4 km/h (2 Bft) S-SW 202 0 min 0,0 UV-I 0 W/m -0,5 C 0,6 C 8,0 km/h (2 Bft)
15.01.2023 06:09 0,6 C 0,0 C 92 % 1003,5 hPa 0,0 l/m 6,4 km/h (2 Bft) S-SW 202 0 min 0,0 UV-I 0 W/m -0,5 C 0,6 C 6,4 km/h (2 Bft)
15.01.2023 06:10 0,6 C 0,0 C 92 % 1003,5 hPa 0,0 l/m 6,4 km/h (2 Bft) S-SW 202 0 min 0,0 UV-I 0 W/m -0,5 C 0,6 C 9,7 km/h (2 Bft)
15.01.2023 06:11 0,6 C 0,0 C 92 % 1003,6 hPa 0,0 l/m 6,4 km/h (2 Bft) S-SW 202 0 min 0,0 UV-I 0 W/m -0,5 C 0,6 C 8,0 km/h (2 Bft)
15.01.2023 06:12 0,6 C 0,0 C 92 % 1003,7 hPa 0,0 l/m 6,4 km/h (2 Bft) S-SW 202 0 min 0,0 UV-I 0 W/m -0,5 C 0,6 C 8,0 km/h (2 Bft)
15.01.2023 06:13 0,6 C 0,0 C 92 % 1003,6 hPa 0,0 l/m 8,0 km/h (2 Bft) S-SW 202 0 min 0,0 UV-I 0 W/m -0,5 C -1,0 C 9,7 km/h (2 Bft)
15.01.2023 06:14 0,6 C 0,0 C 92 % 1003,6 hPa 0,0 l/m 6,4 km/h (2 Bft) S-SW 202 0 min 0,0 UV-I 0 W/m -0,5 C 0,6 C 9,7 km/h (2 Bft)
15.01.2023 06:15 0,6 C 0,0 C 92 % 1003,5 hPa 0,0 l/m 8,0 km/h (2 Bft) S-SW 202 0 min 0,0 UV-I 0 W/m -0,5 C -1,0 C 11,3 km/h (2 Bft)
15.01.2023 06:16 0,6 C 0,0 C 92 % 1003,6 hPa 0,0 l/m 6,4 km/h (2 Bft) S 180 0 min 0,0 UV-I 0 W/m -0,5 C 0,6 C 9,7 km/h (2 Bft)
15.01.2023 06:17 0,6 C 0,0 C 92 % 1003,5 hPa 0,0 l/m 4,8 km/h (1 Bft) S-SW 202 0 min 0,0 UV-I 0 W/m -0,5 C 0,6 C 8,0 km/h (2 Bft)
15.01.2023 06:18 0,6 C 0,0 C 92 % 1003,5 hPa 0,0 l/m 6,4 km/h (2 Bft) S 180 0 min 0,0 UV-I 0 W/m -0,5 C 0,6 C 11,3 km/h (2 Bft)
15.01.2023 06:19 0,7 C 0,0 C 92 % 1003,5 hPa 0,0 l/m 8,0 km/h (2 Bft) S 180 0 min 0,0 UV-I 0 W/m -0,4 C -0,9 C 14,5 km/h (3 Bft)
15.01.2023 06:20 0,6 C 0,0 C 92 % 1003,4 hPa 0,0 l/m 6,4 km/h (2 Bft) S 180 0 min 0,0 UV-I 0 W/m -0,5 C 0,6 C 11,3 km/h (2 Bft)
15.01.2023 06:21 0,6 C 0,0 C 92 % 1003,4 hPa 0,0 l/m 8,0 km/h (2 Bft) S-SW 202 0 min 0,0 UV-I 0 W/m -0,5 C -1,0 C 9,7 km/h (2 Bft)
15.01.2023 06:22 0,6 C 0,0 C 92 % 1003,4 hPa 0,0 l/m 6,4 km/h (2 Bft) S 180 0 min 0,0 UV-I 0 W/m -0,5 C 0,6 C 9,7 km/h (2 Bft)
15.01.2023 06:23 0,6 C 0,0 C 92 % 1003,4 hPa 0,0 l/m 6,4 km/h (2 Bft) S 180 0 min 0,0 UV-I 0 W/m -0,5 C 0,6 C 12,9 km/h (3 Bft)
15.01.2023 06:24 0,6 C 0,0 C 92 % 1003,6 hPa 0,0 l/m 8,0 km/h (2 Bft) S-SW 202 0 min 0,0 UV-I 0 W/m -0,5 C -1,0 C 11,3 km/h (2 Bft)
15.01.2023 06:25 0,7 C 0,0 C 92 % 1003,4 hPa 0,0 l/m 6,4 km/h (2 Bft) S 180 0 min 0,0 UV-I 0 W/m -0,4 C 0,7 C 11,3 km/h (2 Bft)
15.01.2023 06:26 0,6 C 0,0 C 92 % 1003,4 hPa 0,0 l/m 8,0 km/h (2 Bft) S 180 0 min 0,0 UV-I 0 W/m -0,5 C -1,0 C 11,3 km/h (2 Bft)
15.01.2023 06:27 0,7 C 0,0 C 92 % 1003,4 hPa 0,0 l/m 8,0 km/h (2 Bft) S 180 0 min 0,0 UV-I 0 W/m -0,4 C -0,9 C 11,3 km/h (2 Bft)
15.01.2023 06:28 0,7 C 0,0 C 92 % 1003,4 hPa 0,0 l/m 6,4 km/h (2 Bft) S 180 0 min 0,0 UV-I 0 W/m -0,4 C 0,7 C 11,3 km/h (2 Bft)
15.01.2023 06:29 0,6 C 0,0 C 92 % 1003,4 hPa 0,0 l/m 6,4 km/h (2 Bft) S 180 0 min 0,0 UV-I 0 W/m -0,5 C 0,6 C 11,3 km/h (2 Bft)
15.01.2023 06:30 0,7 C 0,0 C 92 % 1003,5 hPa 0,0 l/m 9,7 km/h (2 Bft) S 180 0 min 0,0 UV-I 0 W/m -0,4 C -2,4 C 17,7 km/h (3 Bft)
15.01.2023 06:31 0,7 C 0,0 C 92 % 1003,4 hPa 0,0 l/m 8,0 km/h (2 Bft) S 180 0 min 0,0 UV-I 0 W/m -0,4 C -0,9 C 11,3 km/h (2 Bft)
15.01.2023 06:32 0,7 C 0,0 C 92 % 1003,4 hPa 0,0 l/m 6,4 km/h (2 Bft) S 180 0 min 0,0 UV-I 0 W/m -0,4 C 0,7 C 9,7 km/h (2 Bft)
15.01.2023 06:33 0,7 C 0,0 C 92 % 1003,4 hPa 0,0 l/m 9,7 km/h (2 Bft) S-SW 202 0 min 0,0 UV-I 0 W/m -0,4 C -2,4 C 14,5 km/h (3 Bft)
15.01.2023 06:34 0,7 C 0,0 C 92 % 1003,4 hPa 0,0 l/m 9,7 km/h (2 Bft) S 180 0 min 0,0 UV-I 0 W/m -0,4 C -2,4 C 17,7 km/h (3 Bft)
15.01.2023 06:35 0,7 C 0,0 C 92 % 1003,4 hPa 0,0 l/m 8,0 km/h (2 Bft) S 180 0 min 0,0 UV-I 0 W/m -0,4 C -0,9 C 11,3 km/h (2 Bft)
15.01.2023 06:36 0,7 C 0,0 C 92 % 1003,5 hPa 0,0 l/m 9,7 km/h (2 Bft) S 180 0 min 0,0 UV-I 0 W/m -0,4 C -2,4 C 16,1 km/h (3 Bft)
15.01.2023 06:37 0,7 C 0,0 C 92 % 1003,5 hPa 0,0 l/m 8,0 km/h (2 Bft) S 180 0 min 0,0 UV-I 0 W/m -0,4 C -0,9 C 12,9 km/h (3 Bft)
15.01.2023 06:38 0,7 C 0,0 C 92 % 1003,4 hPa 0,0 l/m 11,3 km/h (2 Bft) S 180 0 min 0,0 UV-I 0 W/m -0,4 C -3,7 C 16,1 km/h (3 Bft)
15.01.2023 06:39 0,7 C 0,0 C 92 % 1003,3 hPa 0,0 l/m 8,0 km/h (2 Bft) S-SO 157 0 min 0,0 UV-I 0 W/m -0,4 C -0,9 C 11,3 km/h (2 Bft)
15.01.2023 06:40 0,7 C 0,0 C 92 % 1003,4 hPa 0,0 l/m 8,0 km/h (2 Bft) S-SO 157 0 min 0,0 UV-I 0 W/m -0,4 C -0,9 C 9,7 km/h (2 Bft)
15.01.2023 06:41 0,7 C 0,0 C 92 % 1003,4 hPa 0,0 l/m 9,7 km/h (2 Bft) S 180 0 min 0,0 UV-I 0 W/m -0,4 C -2,4 C 14,5 km/h (3 Bft)
15.01.2023 06:42 0,7 C 0,0 C 92 % 1003,4 hPa 0,0 l/m 9,7 km/h (2 Bft) S-SO 157 0 min 0,0 UV-I 0 W/m -0,4 C -2,4 C 14,5 km/h (3 Bft)
15.01.2023 06:43 0,8 C 0,0 C 92 % 1003,4 hPa 0,0 l/m 9,7 km/h (2 Bft) S 180 0 min 0,0 UV-I 0 W/m -0,3 C -2,3 C 16,1 km/h (3 Bft)
15.01.2023 06:44 0,7 C 0,0 C 92 % 1003,4 hPa 0,0 l/m 11,3 km/h (2 Bft) S 180 0 min 0,0 UV-I 0 W/m -0,4 C -3,7 C 19,3 km/h (3 Bft)
15.01.2023 06:45 0,8 C 0,0 C 92 % 1003,3 hPa 0,0 l/m 16,1 km/h (3 Bft) S 180 0 min 0,0 UV-I 0 W/m -0,3 C -6,6 C 24,1 km/h (4 Bft)
15.01.2023 06:46 0,8 C 0,0 C 92 % 1003,4 hPa 0,0 l/m 11,3 km/h (2 Bft) S 180 0 min 0,0 UV-I 0 W/m -0,3 C -3,6 C 17,7 km/h (3 Bft)
15.01.2023 06:47 0,7 C 0,0 C 92 % 1003,4 hPa 0,0 l/m 11,3 km/h (2 Bft) S 180 0 min 0,0 UV-I 0 W/m -0,4 C -3,7 C 16,1 km/h (3 Bft)
15.01.2023 06:48 0,8 C 0,0 C 92 % 1003,4 hPa 0,0 l/m 8,0 km/h (2 Bft) S-SO 157 0 min 0,0 UV-I 0 W/m -0,3 C -0,8 C 11,3 km/h (2 Bft)
15.01.2023 06:49 0,8 C 0,0 C 92 % 1003,5 hPa 0,0 l/m 12,9 km/h (3 Bft) S-SO 157 0 min 0,0 UV-I 0 W/m -0,3 C -4,7 C 14,5 km/h (3 Bft)
15.01.2023 06:50 0,8 C 0,0 C 92 % 1003,5 hPa 0,0 l/m 9,7 km/h (2 Bft) S 180 0 min 0,0 UV-I 0 W/m -0,3 C -2,3 C 14,5 km/h (3 Bft)
15.01.2023 06:51 0,8 C 0,0 C 92 % 1003,3 hPa 0,0 l/m 11,3 km/h (2 Bft) S 180 0 min 0,0 UV-I 0 W/m -0,3 C -3,6 C 17,7 km/h (3 Bft)
15.01.2023 06:52 0,8 C 0,0 C 92 % 1003,4 hPa 0,0 l/m 8,0 km/h (2 Bft) S-SW 202 0 min 0,0 UV-I 0 W/m -0,3 C -0,8 C 14,5 km/h (3 Bft)
15.01.2023 06:53 0,8 C 0,0 C 92 % 1003,5 hPa 0,0 l/m 9,7 km/h (2 Bft) S 180 0 min 0,0 UV-I 0 W/m -0,3 C -2,3 C 14,5 km/h (3 Bft)
15.01.2023 06:54 0,8 C 0,0 C 92 % 1003,5 hPa 0,0 l/m 11,3 km/h (2 Bft) S 180 0 min 0,0 UV-I 0 W/m -0,3 C -3,6 C 17,7 km/h (3 Bft)
15.01.2023 06:55 0,8 C 0,0 C 92 % 1003,5 hPa 0,0 l/m 11,3 km/h (2 Bft) S 180 0 min 0,0 UV-I 0 W/m -0,3 C -3,6 C 19,3 km/h (3 Bft)
15.01.2023 06:56 0,8 C 0,0 C 92 % 1003,6 hPa 0,0 l/m 12,9 km/h (3 Bft) S 180 0 min 0,0 UV-I 0 W/m -0,3 C -4,7 C 20,9 km/h (4 Bft)
15.01.2023 06:57 0,8 C 0,0 C 92 % 1003,6 hPa 0,0 l/m 11,3 km/h (2 Bft) S 180 0 min 0,0 UV-I 0 W/m -0,3 C -3,6 C 22,5 km/h (4 Bft)
15.01.2023 06:58 0,8 C 0,0 C 92 % 1003,6 hPa 0,0 l/m 12,9 km/h (3 Bft) S 180 0 min 0,0 UV-I 0 W/m -0,3 C -4,7 C 17,7 km/h (3 Bft)
15.01.2023 06:59 0,8 C 0,0 C 92 % 1003,5 hPa 0,0 l/m 9,7 km/h (2 Bft) S 180 0 min 0,0 UV-I 0 W/m -0,3 C -2,3 C 14,5 km/h (3 Bft)
15.01.2023 07:00 0,8 C 0,0 C 92 % 1003,5 hPa 0,0 l/m 6,4 km/h (2 Bft) S 180 0 min 0,0 UV-I 0 W/m -0,3 C 0,8 C 9,7 km/h (2 Bft)
15.01.2023 07:01 0,8 C 0,0 C 92 % 1003,5 hPa 0,0 l/m 11,3 km/h (2 Bft) S 180 0 min 0,0 UV-I 0 W/m -0,3 C -3,6 C 14,5 km/h (3 Bft)
15.01.2023 07:02 0,8 C 0,0 C 92 % 1003,4 hPa 0,0 l/m 9,7 km/h (2 Bft) S 180 0 min 0,0 UV-I 0 W/m -0,3 C -2,3 C 16,1 km/h (3 Bft)
15.01.2023 07:03 0,8 C 0,0 C 92 % 1003,5 hPa 0,0 l/m 11,3 km/h (2 Bft) S 180 0 min 0,0 UV-I 0 W/m -0,3 C -3,6 C 16,1 km/h (3 Bft)
15.01.2023 07:04 0,8 C 0,0 C 92 % 1003,4 hPa 0,0 l/m 9,7 km/h (2 Bft) S 180 0 min 0,0 UV-I 0 W/m -0,3 C -2,3 C 12,9 km/h (3 Bft)
15.01.2023 07:05 0,8 C 0,0 C 92 % 1003,4 hPa 0,0 l/m 6,4 km/h (2 Bft) S 180 0 min 0,0 UV-I 0 W/m -0,3 C 0,8 C 9,7 km/h (2 Bft)
15.01.2023 07:06 0,8 C 0,0 C 92 % 1003,5 hPa 0,0 l/m 9,7 km/h (2 Bft) S 180 0 min 0,0 UV-I 0 W/m -0,3 C -2,3 C 14,5 km/h (3 Bft)
15.01.2023 07:07 0,8 C 0,0 C 92 % 1003,4 hPa 0,0 l/m 8,0 km/h (2 Bft) S 180 0 min 0,0 UV-I 0 W/m -0,3 C -0,8 C 14,5 km/h (3 Bft)
15.01.2023 07:08 0,8 C 0,0 C 92 % 1003,4 hPa 0,0 l/m 11,3 km/h (2 Bft) S 180 0 min 0,0 UV-I 0 W/m -0,3 C -3,6 C 17,7 km/h (3 Bft)
15.01.2023 07:09 0,8 C 0,0 C 92 % 1003,5 hPa 0,0 l/m 9,7 km/h (2 Bft) S 180 0 min 0,0 UV-I 0 W/m -0,3 C -2,3 C 19,3 km/h (3 Bft)
15.01.2023 07:10 0,8 C 0,0 C 92 % 1003,4 hPa 0,0 l/m 8,0 km/h (2 Bft) S 180 0 min 0,0 UV-I 0 W/m -0,3 C -0,8 C 12,9 km/h (3 Bft)
15.01.2023 07:11 0,8 C 0,0 C 92 % 1003,4 hPa 0,0 l/m 8,0 km/h (2 Bft) S 180 0 min 0,0 UV-I 0 W/m -0,3 C -0,8 C 11,3 km/h (2 Bft)
15.01.2023 07:12 0,8 C 0,0 C 92 % 1003,5 hPa 0,0 l/m 9,7 km/h (2 Bft) S 180 0 min 0,0 UV-I 0 W/m -0,3 C -2,3 C 16,1 km/h (3 Bft)
15.01.2023 07:13 0,9 C 0,0 C 92 % 1003,5 hPa 0,0 l/m 9,7 km/h (2 Bft) S 180 0 min 0,0 UV-I 0 W/m -0,2 C -2,2 C 14,5 km/h (3 Bft)
15.01.2023 07:14 0,8 C 0,0 C 92 % 1003,5 hPa 0,0 l/m 11,3 km/h (2 Bft) S 180 0 min 0,0 UV-I 0 W/m -0,3 C -3,6 C 16,1 km/h (3 Bft)
15.01.2023 07:15 0,9 C 0,0 C 92 % 1003,6 hPa 0,0 l/m 12,9 km/h (3 Bft) S 180 0 min 0,0 UV-I 0 W/m -0,2 C -4,6 C 20,9 km/h (4 Bft)
15.01.2023 07:16 0,9 C 0,0 C 92 % 1003,7 hPa 0,0 l/m 14,5 km/h (3 Bft) S 180 0 min 0,0 UV-I 0 W/m -0,2 C -5,6 C 20,9 km/h (4 Bft)
15.01.2023 07:17 0,9 C 0,0 C 92 % 1003,6 hPa 0,0 l/m 11,3 km/h (2 Bft) S 180 0 min 0,0 UV-I 0 W/m -0,2 C -3,5 C 17,7 km/h (3 Bft)
15.01.2023 07:18 0,9 C 0,0 C 93 % 1003,6 hPa 0,0 l/m 12,9 km/h (3 Bft) S 180 0 min 0,0 UV-I 0 W/m -0,1 C -4,6 C 17,7 km/h (3 Bft)
15.01.2023 07:19 0,9 C 0,0 C 93 % 1003,6 hPa 0,0 l/m 8,0 km/h (2 Bft) S 180 0 min 0,0 UV-I 0 W/m -0,1 C -0,7 C 9,7 km/h (2 Bft)
15.01.2023 07:20 0,9 C 0,0 C 93 % 1003,7 hPa 0,0 l/m 11,3 km/h (2 Bft) S-SW 202 0 min 0,0 UV-I 0 W/m -0,1 C -3,5 C 17,7 km/h (3 Bft)
15.01.2023 07:21 0,9 C 0,0 C 93 % 1003,7 hPa 0,0 l/m 9,7 km/h (2 Bft) S 180 0 min 0,0 UV-I 0 W/m -0,1 C -2,2 C 14,5 km/h (3 Bft)
15.01.2023 07:22 0,9 C 0,0 C 92 % 1003,7 hPa 0,0 l/m 9,7 km/h (2 Bft) S 180 0 min 0,0 UV-I 0 W/m -0,2 C -2,2 C 12,9 km/h (3 Bft)
15.01.2023 07:23 0,9 C 0,0 C 92 % 1003,7 hPa 0,0 l/m 9,7 km/h (2 Bft) S 180 0 min 0,0 UV-I 0 W/m -0,2 C -2,2 C 12,9 km/h (3 Bft)
15.01.2023 07:24 0,9 C 0,0 C 92 % 1003,6 hPa 0,0 l/m 12,9 km/h (3 Bft) S 180 0 min 0,0 UV-I 0 W/m -0,2 C -4,6 C 16,1 km/h (3 Bft)
15.01.2023 07:25 0,9 C 0,0 C 92 % 1003,7 hPa 0,2 l/m 9,7 km/h (2 Bft) S 180 0 min 0,0 UV-I 0 W/m -0,2 C -2,2 C 14,5 km/h (3 Bft)
15.01.2023 07:26 0,9 C 0,0 C 92 % 1003,7 hPa 0,0 l/m 12,9 km/h (3 Bft) S 180 0 min 0,0 UV-I 0 W/m -0,2 C -4,6 C 19,3 km/h (3 Bft)
15.01.2023 07:27 0,9 C 0,0 C 92 % 1003,5 hPa 0,0 l/m 11,3 km/h (2 Bft) S 180 0 min 0,0 UV-I 0 W/m -0,2 C -3,5 C 14,5 km/h (3 Bft)
15.01.2023 07:28 0,9 C 0,0 C 92 % 1003,6 hPa 0,0 l/m 11,3 km/h (2 Bft) S 180 0 min 0,0 UV-I 0 W/m -0,2 C -3,5 C 16,1 km/h (3 Bft)
15.01.2023 07:29 0,9 C 0,0 C 92 % 1003,6 hPa 0,0 l/m 9,7 km/h (2 Bft) S 180 0 min 0,0 UV-I 0 W/m -0,2 C -2,2 C 11,3 km/h (2 Bft)
15.01.2023 07:30 0,9 C 0,0 C 93 % 1003,6 hPa 0,0 l/m 12,9 km/h (3 Bft) S-SW 202 0 min 0,0 UV-I 0 W/m -0,1 C -4,6 C 14,5 km/h (3 Bft)
15.01.2023 07:31 0,9 C 0,0 C 93 % 1003,6 hPa 0,0 l/m 11,3 km/h (2 Bft) S 180 0 min 0,0 UV-I 0 W/m -0,1 C -3,5 C 14,5 km/h (3 Bft)
15.01.2023 07:32 0,9 C 0,0 C 93 % 1003,7 hPa 0,0 l/m 11,3 km/h (2 Bft) S 180 0 min 0,0 UV-I 0 W/m -0,1 C -3,5 C 17,7 km/h (3 Bft)
15.01.2023 07:33 0,9 C 0,0 C 93 % 1003,7 hPa 0,0 l/m 8,0 km/h (2 Bft) S 180 0 min 0,0 UV-I 0 W/m -0,1 C -0,7 C 12,9 km/h (3 Bft)
15.01.2023 07:34 0,9 C 0,0 C 93 % 1003,8 hPa 0,0 l/m 14,5 km/h (3 Bft) S 180 0 min 0,0 UV-I 0 W/m -0,1 C -5,6 C 17,7 km/h (3 Bft)
15.01.2023 07:35 0,9 C 0,0 C 93 % 1003,7 hPa 0,0 l/m 16,1 km/h (3 Bft) S 180 0 min 0,0 UV-I 0 W/m -0,1 C -6,5 C 22,5 km/h (4 Bft)
15.01.2023 07:36 0,9 C 0,0 C 93 % 1003,7 hPa 0,0 l/m 9,7 km/h (2 Bft) S 180 0 min 0,0 UV-I 0 W/m -0,1 C -2,2 C 16,1 km/h (3 Bft)
15.01.2023 07:37 1,0 C 0,0 C 93 % 1003,6 hPa 0,0 l/m 11,3 km/h (2 Bft) S 180 0 min 0,0 UV-I 0 W/m -0,0 C -3,3 C 16,1 km/h (3 Bft)
15.01.2023 07:38 1,0 C 0,0 C 93 % 1003,6 hPa 0,0 l/m 8,0 km/h (2 Bft) S 180 0 min 0,0 UV-I 0 W/m -0,0 C -0,6 C 12,9 km/h (3 Bft)
15.01.2023 07:39 1,0 C 0,0 C 93 % 1003,6 hPa 0,0 l/m 9,7 km/h (2 Bft) S-SO 157 0 min 0,0 UV-I 0 W/m -0,0 C -2,1 C 14,5 km/h (3 Bft)
15.01.2023 07:40 1,0 C 0,0 C 93 % 1003,6 hPa 0,2 l/m 16,1 km/h (3 Bft) S 180 0 min 0,0 UV-I 0 W/m -0,0 C -6,4 C 20,9 km/h (4 Bft)
15.01.2023 07:41 1,1 C 0,0 C 93 % 1003,7 hPa 0,0 l/m 12,9 km/h (3 Bft) S 180 0 min 0,0 UV-I 0 W/m 0,1 C -4,3 C 19,3 km/h (3 Bft)
15.01.2023 07:42 1,1 C 0,6 C 93 % 1003,6 hPa 0,0 l/m 14,5 km/h (3 Bft) S 180 0 min 0,0 UV-I 0 W/m 0,1 C -5,4 C 19,3 km/h (3 Bft)
15.01.2023 07:43 1,1 C 0,6 C 93 % 1003,6 hPa 0,0 l/m 16,1 km/h (3 Bft) S 180 0 min 0,0 UV-I 0 W/m 0,1 C -6,3 C 22,5 km/h (4 Bft)
15.01.2023 07:44 1,1 C 0,6 C 93 % 1003,7 hPa 0,0 l/m 12,9 km/h (3 Bft) S 180 0 min 0,0 UV-I 0 W/m 0,1 C -4,3 C 20,9 km/h (4 Bft)
15.01.2023 07:45 1,1 C 0,6 C 93 % 1003,7 hPa 0,0 l/m 16,1 km/h (3 Bft) S 180 0 min 0,0 UV-I 0 W/m 0,1 C -6,3 C 24,1 km/h (4 Bft)
15.01.2023 07:46 1,1 C 0,6 C 93 % 1003,7 hPa 0,0 l/m 14,5 km/h (3 Bft) S 180 0 min 0,0 UV-I 0 W/m 0,1 C -5,4 C 20,9 km/h (4 Bft)
15.01.2023 07:47 1,1 C 0,6 C 93 % 1003,7 hPa 0,0 l/m 11,3 km/h (2 Bft) S 180 0 min 0,0 UV-I 0 W/m 0,1 C -3,2 C 17,7 km/h (3 Bft)
15.01.2023 07:48 1,1 C 0,6 C 93 % 1003,7 hPa 0,0 l/m 11,3 km/h (2 Bft) S 180 0 min 0,0 UV-I 0 W/m 0,1 C -3,2 C 19,3 km/h (3 Bft)
15.01.2023 07:49 1,2 C 0,6 C 93 % 1003,6 hPa 0,0 l/m 9,7 km/h (2 Bft) S 180 0 min 0,0 UV-I 0 W/m 0,2 C -1,9 C 19,3 km/h (3 Bft)
15.01.2023 07:50 1,1 C 0,6 C 93 % 1003,6 hPa 0,0 l/m 11,3 km/h (2 Bft) S 180 0 min 0,0 UV-I 0 W/m 0,1 C -3,2 C 20,9 km/h (4 Bft)
15.01.2023 07:51 1,1 C 0,6 C 93 % 1003,7 hPa 0,0 l/m 11,3 km/h (2 Bft) S 180 0 min 0,0 UV-I 0 W/m 0,1 C -3,2 C 16,1 km/h (3 Bft)
15.01.2023 07:52 1,1 C 0,6 C 93 % 1003,6 hPa 0,0 l/m 12,9 km/h (3 Bft) S 180 0 min 0,0 UV-I 0 W/m 0,1 C -4,3 C 19,3 km/h (3 Bft)
15.01.2023 07:53 1,2 C 0,6 C 93 % 1003,7 hPa 0,0 l/m 12,9 km/h (3 Bft) S-SW 202 0 min 0,0 UV-I 0 W/m 0,2 C -4,2 C 22,5 km/h (4 Bft)
15.01.2023 07:54 1,2 C 0,6 C 93 % 1003,7 hPa 0,0 l/m 12,9 km/h (3 Bft) S 180 0 min 0,0 UV-I 0 W/m 0,2 C -4,2 C 17,7 km/h (3 Bft)
15.01.2023 07:55 1,2 C 0,6 C 93 % 1003,8 hPa 0,0 l/m 16,1 km/h (3 Bft) S 180 0 min 0,0 UV-I 0 W/m 0,2 C -6,1 C 22,5 km/h (4 Bft)
15.01.2023 07:56 1,2 C 0,6 C 93 % 1003,8 hPa 0,2 l/m 17,7 km/h (3 Bft) S 180 0 min 0,0 UV-I 0 W/m 0,2 C -7,0 C 25,7 km/h (4 Bft)
15.01.2023 07:57 1,2 C 0,6 C 93 % 1003,9 hPa 0,0 l/m 14,5 km/h (3 Bft) S 180 0 min 0,0 UV-I 0 W/m 0,2 C -5,2 C 24,1 km/h (4 Bft)
15.01.2023 07:58 1,2 C 0,6 C 93 % 1003,9 hPa 0,0 l/m 16,1 km/h (3 Bft) S 180 0 min 0,0 UV-I 0 W/m 0,2 C -6,1 C 20,9 km/h (4 Bft)
15.01.2023 07:59 1,2 C 0,6 C 93 % 1003,9 hPa 0,0 l/m 17,7 km/h (3 Bft) S-SW 202 0 min 0,0 UV-I 0 W/m 0,2 C -7,0 C 25,7 km/h (4 Bft)
15.01.2023 08:00 1,2 C 0,6 C 93 % 1004,1 hPa 0,0 l/m 14,5 km/h (3 Bft) S-SW 202 0 min 0,0 UV-I 0 W/m 0,2 C -5,2 C 20,9 km/h (4 Bft)
15.01.2023 08:01 1,2 C 0,6 C 93 % 1004,2 hPa 0,0 l/m 12,9 km/h (3 Bft) S-SW 202 0 min 0,0 UV-I 0 W/m 0,2 C -4,2 C 16,1 km/h (3 Bft)
15.01.2023 08:02 1,2 C 0,6 C 92 % 1004,1 hPa 0,0 l/m 12,9 km/h (3 Bft) S-SW 202 0 min 0,0 UV-I 0 W/m 0,0 C -4,2 C 14,5 km/h (3 Bft)
15.01.2023 08:03 1,2 C 0,6 C 92 % 1004,1 hPa 0,0 l/m 14,5 km/h (3 Bft) S 180 0 min 0,0 UV-I 0 W/m 0,0 C -5,2 C 22,5 km/h (4 Bft)
15.01.2023 08:04 1,2 C 0,0 C 92 % 1004,2 hPa 0,0 l/m 11,3 km/h (2 Bft) S-SW 202 0 min 0,0 UV-I 0 W/m 0,0 C -3,1 C 17,7 km/h (3 Bft)
15.01.2023 08:05 1,2 C 0,0 C 92 % 1004,3 hPa 0,0 l/m 9,7 km/h (2 Bft) SW 225 0 min 0,0 UV-I 0 W/m 0,0 C -1,9 C 17,7 km/h (3 Bft)
15.01.2023 08:06 1,1 C 0,0 C 93 % 1004,3 hPa 0,0 l/m 12,9 km/h (3 Bft) W-SW 247 0 min 0,0 UV-I 0 W/m 0,1 C -4,3 C 19,3 km/h (3 Bft)
15.01.2023 08:07 1,2 C 0,0 C 93 % 1004,5 hPa 0,0 l/m 6,4 km/h (2 Bft) W-SW 247 0 min 0,0 UV-I 0 W/m 0,2 C 1,2 C 9,7 km/h (2 Bft)
15.01.2023 08:08 1,1 C 0,0 C 92 % 1004,5 hPa 0,0 l/m 14,5 km/h (3 Bft) SW 225 0 min 0,0 UV-I 0 W/m -0,1 C -5,4 C 20,9 km/h (4 Bft)
15.01.2023 08:09 1,1 C 0,0 C 92 % 1004,5 hPa 0,0 l/m 12,9 km/h (3 Bft) SW 225 0 min 0,0 UV-I 0 W/m -0,1 C -4,3 C 17,7 km/h (3 Bft)
15.01.2023 08:10 1,0 C 0,0 C 92 % 1004,5 hPa 0,0 l/m 12,9 km/h (3 Bft) W-SW 247 0 min 0,0 UV-I 0 W/m -0,2 C -4,5 C 16,1 km/h (3 Bft)
15.01.2023 08:11 0,9 C 0,0 C 92 % 1004,5 hPa 0,0 l/m 8,0 km/h (2 Bft) W-SW 247 0 min 0,0 UV-I 0 W/m -0,2 C -0,7 C 12,9 km/h (3 Bft)
15.01.2023 08:12 0,9 C 0,0 C 92 % 1004,4 hPa 0,0 l/m 9,7 km/h (2 Bft) S-SW 202 0 min 0,0 UV-I 0 W/m -0,2 C -2,2 C 12,9 km/h (3 Bft)
15.01.2023 08:13 0,9 C 0,0 C 92 % 1004,2 hPa 0,2 l/m 12,9 km/h (3 Bft) S-SW 202 0 min 0,0 UV-I 0 W/m -0,2 C -4,6 C 19,3 km/h (3 Bft)
15.01.2023 08:14 0,9 C 0,0 C 92 % 1004,4 hPa 0,0 l/m 8,0 km/h (2 Bft) W-SW 247 0 min 0,0 UV-I 0 W/m -0,2 C -0,7 C 14,5 km/h (3 Bft)
15.01.2023 08:15 0,9 C 0,0 C 92 % 1004,3 hPa 0,0 l/m 4,8 km/h (1 Bft) SW 225 0 min 0,0 UV-I 0 W/m -0,2 C 0,9 C 8,0 km/h (2 Bft)
15.01.2023 08:16 0,9 C 0,0 C 92 % 1004,4 hPa 0,0 l/m 9,7 km/h (2 Bft) S-SW 202 0 min 0,0 UV-I 0 W/m -0,2 C -2,2 C 14,5 km/h (3 Bft)
15.01.2023 08:17 0,9 C 0,0 C 92 % 1004,5 hPa 0,0 l/m 9,7 km/h (2 Bft) SW 225 0 min 0,0 UV-I 0 W/m -0,2 C -2,2 C 14,5 km/h (3 Bft)
15.01.2023 08:18 0,8 C 0,0 C 92 % 1004,4 hPa 0,0 l/m 6,4 km/h (2 Bft) S-SW 202 0 min 0,0 UV-I 0 W/m -0,3 C 0,8 C 9,7 km/h (2 Bft)
15.01.2023 08:19 0,8 C 0,0 C 92 % 1004,5 hPa 0,0 l/m 6,4 km/h (2 Bft) S-SW 202 0 min 0,0 UV-I 0 W/m -0,3 C 0,8 C 9,7 km/h (2 Bft)
15.01.2023 08:20 0,8 C 0,0 C 92 % 1004,5 hPa 0,0 l/m 9,7 km/h (2 Bft) S-SW 202 0 min 0,0 UV-I 0 W/m -0,3 C -2,3 C 12,9 km/h (3 Bft)
15.01.2023 08:21 0,8 C 0,0 C 92 % 1004,5 hPa 0,0 l/m 11,3 km/h (2 Bft) S-SW 202 0 min 0,0 UV-I 0 W/m -0,3 C -3,6 C 16,1 km/h (3 Bft)
15.01.2023 08:22 0,8 C 0,0 C 92 % 1004,5 hPa 0,0 l/m 9,7 km/h (2 Bft) S-SW 202 0 min 0,0 UV-I 0 W/m -0,3 C -2,3 C 11,3 km/h (2 Bft)
15.01.2023 08:23 0,8 C 0,0 C 92 % 1004,3 hPa 0,0 l/m 11,3 km/h (2 Bft) S 180 0 min 0,0 UV-I 0 W/m -0,3 C -3,6 C 16,1 km/h (3 Bft)
15.01.2023 08:24 0,8 C 0,0 C 92 % 1004,4 hPa 0,0 l/m 9,7 km/h (2 Bft) S 180 0 min 0,0 UV-I 0 W/m -0,3 C -2,3 C 16,1 km/h (3 Bft)
15.01.2023 08:25 0,9 C 0,0 C 92 % 1004,4 hPa 0,0 l/m 12,9 km/h (3 Bft) S 180 0 min 0,0 UV-I 0 W/m -0,2 C -4,6 C 19,3 km/h (3 Bft)
15.01.2023 08:26 0,9 C 0,0 C 93 % 1004,3 hPa 0,0 l/m 11,3 km/h (2 Bft) S-SW 202 0 min 0,0 UV-I 0 W/m -0,1 C -3,5 C 17,7 km/h (3 Bft)
15.01.2023 08:27 0,9 C 0,0 C 93 % 1004,3 hPa 0,0 l/m 12,9 km/h (3 Bft) S-SW 202 0 min 0,0 UV-I 0 W/m -0,1 C -4,6 C 16,1 km/h (3 Bft)
15.01.2023 08:28 0,9 C 0,0 C 93 % 1004,3 hPa 0,0 l/m 14,5 km/h (3 Bft) S 180 0 min 0,0 UV-I 0 W/m -0,1 C -5,6 C 17,7 km/h (3 Bft)
15.01.2023 08:29 0,9 C 0,0 C 93 % 1004,3 hPa 0,0 l/m 11,3 km/h (2 Bft) S-SW 202 0 min 0,0 UV-I 0 W/m -0,1 C -3,5 C 20,9 km/h (4 Bft)
15.01.2023 08:30 0,9 C 0,6 C 93 % 1004,4 hPa 0,0 l/m 12,9 km/h (3 Bft) S 180 0 min 0,0 UV-I 0 W/m -0,1 C -4,6 C 19,3 km/h (3 Bft)
15.01.2023 08:31 1,0 C 0,6 C 93 % 1004,4 hPa 0,0 l/m 11,3 km/h (2 Bft) S 180 0 min 0,0 UV-I 0 W/m -0,0 C -3,3 C 19,3 km/h (3 Bft)
15.01.2023 08:32 1,1 C 0,6 C 93 % 1004,3 hPa 0,0 l/m 16,1 km/h (3 Bft) S-SW 202 0 min 0,0 UV-I 0 W/m 0,1 C -6,3 C 19,3 km/h (3 Bft)
15.01.2023 08:33 1,1 C 0,6 C 93 % 1004,3 hPa 0,0 l/m 16,1 km/h (3 Bft) S 180 0 min 0,0 UV-I 0 W/m 0,1 C -6,3 C 20,9 km/h (4 Bft)
15.01.2023 08:34 1,1 C 0,6 C 93 % 1004,4 hPa 0,0 l/m 14,5 km/h (3 Bft) S 180 0 min 0,0 UV-I 0 W/m 0,1 C -5,4 C 22,5 km/h (4 Bft)
15.01.2023 08:35 1,1 C 0,6 C 93 % 1004,4 hPa 0,0 l/m 20,9 km/h (4 Bft) S-SW 202 0 min 0,0 UV-I 0 W/m 0,1 C -8,6 C 29,0 km/h (5 Bft)
15.01.2023 08:36 1,1 C 0,6 C 93 % 1004,5 hPa 0,0 l/m 19,3 km/h (3 Bft) S 180 0 min 0,0 UV-I 0 W/m 0,1 C -7,9 C 27,4 km/h (4 Bft)
15.01.2023 08:37 1,2 C 0,6 C 93 % 1004,3 hPa 0,0 l/m 16,1 km/h (3 Bft) S 180 0 min 0,0 UV-I 0 W/m 0,2 C -6,1 C 20,9 km/h (4 Bft)
15.01.2023 08:38 1,2 C 0,6 C 93 % 1004,4 hPa 0,0 l/m 16,1 km/h (3 Bft) S-SW 202 0 min 0,0 UV-I 0 W/m 0,2 C -6,1 C 25,7 km/h (4 Bft)
15.01.2023 08:39 1,2 C 0,6 C 92 % 1004,4 hPa 0,0 l/m 16,1 km/h (3 Bft) S 180 0 min 0,0 UV-I 0 W/m 0,0 C -6,1 C 20,9 km/h (4 Bft)
15.01.2023 08:40 1,2 C 0,6 C 92 % 1004,4 hPa 0,0 l/m 19,3 km/h (3 Bft) S-SW 202 0 min 0,0 UV-I 0 W/m 0,0 C -7,8 C 22,5 km/h (4 Bft)
15.01.2023 08:41 1,2 C 0,6 C 92 % 1004,4 hPa 0,0 l/m 14,5 km/h (3 Bft) S 180 0 min 0,0 UV-I 0 W/m 0,0 C -5,2 C 24,1 km/h (4 Bft)
15.01.2023 08:42 1,1 C 0,6 C 93 % 1004,4 hPa 0,0 l/m 14,5 km/h (3 Bft) S 180 0 min 0,0 UV-I 0 W/m 0,1 C -5,4 C 19,3 km/h (3 Bft)
15.01.2023 08:43 1,1 C 0,6 C 92 % 1004,4 hPa 0,0 l/m 19,3 km/h (3 Bft) S-SW 202 0 min 0,0 UV-I 0 W/m -0,1 C -7,9 C 27,4 km/h (4 Bft)
15.01.2023 08:44 1,1 C 0,6 C 92 % 1004,4 hPa 0,2 l/m 19,3 km/h (3 Bft) S 180 0 min 0,0 UV-I 0 W/m -0,1 C -7,9 C 25,7 km/h (4 Bft)
15.01.2023 08:45 1,1 C 0,6 C 92 % 1004,5 hPa 0,0 l/m 20,9 km/h (4 Bft) S-SW 202 0 min 0,0 UV-I 0 W/m -0,1 C -8,6 C 25,7 km/h (4 Bft)
15.01.2023 08:46 1,1 C 0,6 C 92 % 1004,5 hPa 0,0 l/m 17,7 km/h (3 Bft) S-SW 202 0 min 0,0 UV-I 0 W/m -0,1 C -7,1 C 27,4 km/h (4 Bft)
15.01.2023 08:47 1,1 C 0,6 C 92 % 1004,6 hPa 0,0 l/m 16,1 km/h (3 Bft) S-SW 202 0 min 0,0 UV-I 0 W/m -0,1 C -6,3 C 22,5 km/h (4 Bft)
15.01.2023 08:48 1,1 C 0,6 C 92 % 1004,6 hPa 0,0 l/m 14,5 km/h (3 Bft) S-SW 202 0 min 0,0 UV-I 0 W/m -0,1 C -5,4 C 19,3 km/h (3 Bft)
15.01.2023 08:49 1,1 C 0,6 C 92 % 1004,5 hPa 0,0 l/m 16,1 km/h (3 Bft) S-SW 202 0 min 0,0 UV-I 0 W/m -0,1 C -6,3 C 24,1 km/h (4 Bft)
15.01.2023 08:50 1,1 C 0,6 C 92 % 1004,7 hPa 0,0 l/m 16,1 km/h (3 Bft) S-SW 202 0 min 0,0 UV-I 0 W/m -0,1 C -6,3 C 17,7 km/h (3 Bft)
15.01.2023 08:51 1,1 C 0,6 C 92 % 1004,6 hPa 0,0 l/m 19,3 km/h (3 Bft) S-SW 202 0 min 0,0 UV-I 0 W/m -0,1 C -7,9 C 24,1 km/h (4 Bft)
15.01.2023 08:52 1,0 C 0,6 C 92 % 1004,6 hPa 0,0 l/m 19,3 km/h (3 Bft) S-SW 202 0 min 0,0 UV-I 0 W/m -0,2 C -8,0 C 24,1 km/h (4 Bft)
15.01.2023 08:53 1,0 C 0,6 C 92 % 1004,6 hPa 0,0 l/m 14,5 km/h (3 Bft) S-SW 202 0 min 0,0 UV-I 0 W/m -0,2 C -5,5 C 19,3 km/h (3 Bft)
15.01.2023 08:54 1,1 C 0,6 C 92 % 1004,7 hPa 0,0 l/m 12,9 km/h (3 Bft) S-SW 202 0 min 0,0 UV-I 0 W/m -0,1 C -4,3 C 16,1 km/h (3 Bft)
15.01.2023 08:55 1,0 C 0,6 C 92 % 1004,6 hPa 0,0 l/m 14,5 km/h (3 Bft) S 180 0 min 0,0 UV-I 0 W/m -0,2 C -5,5 C 19,3 km/h (3 Bft)
15.01.2023 08:56 1,0 C 0,6 C 92 % 1004,6 hPa 0,0 l/m 12,9 km/h (3 Bft) S-SW 202 0 min 0,0 UV-I 0 W/m -0,2 C -4,5 C 17,7 km/h (3 Bft)
15.01.2023 08:57 1,1 C 0,6 C 92 % 1004,7 hPa 0,0 l/m 14,5 km/h (3 Bft) S-SW 202 0 min 0,0 UV-I 0 W/m -0,1 C -5,4 C 22,5 km/h (4 Bft)
15.01.2023 08:58 1,0 C 0,6 C 92 % 1004,6 hPa 0,0 l/m 14,5 km/h (3 Bft) S-SW 202 0 min 0,0 UV-I 0 W/m -0,2 C -5,5 C 20,9 km/h (4 Bft)
15.01.2023 08:59 1,0 C 0,6 C 92 % 1004,7 hPa 0,0 l/m 16,1 km/h (3 Bft) S-SW 202 0 min 0,0 UV-I 5 W/m -0,2 C -6,4 C 22,5 km/h (4 Bft)
15.01.2023 09:00 1,1 C 0,6 C 92 % 1004,6 hPa 0,0 l/m 14,5 km/h (3 Bft) S 180 0 min 0,0 UV-I 5 W/m -0,1 C -5,4 C 17,7 km/h (3 Bft)
15.01.2023 09:01 1,0 C 0,6 C 92 % 1004,6 hPa 0,0 l/m 12,9 km/h (3 Bft) S-SW 202 0 min 0,0 UV-I 5 W/m -0,2 C -4,5 C 19,3 km/h (3 Bft)
15.01.2023 09:02 1,0 C 0,6 C 92 % 1004,7 hPa 0,0 l/m 17,7 km/h (3 Bft) S-SW 202 0 min 0,0 UV-I 5 W/m -0,2 C -7,2 C 24,1 km/h (4 Bft)
15.01.2023 09:03 1,1 C 0,6 C 92 % 1004,7 hPa 0,0 l/m 17,7 km/h (3 Bft) S 180 0 min 0,0 UV-I 3 W/m -0,1 C -7,1 C 29,0 km/h (5 Bft)
15.01.2023 09:04 1,1 C 0,6 C 92 % 1004,7 hPa 0,0 l/m 11,3 km/h (2 Bft) S-SW 202 0 min 0,0 UV-I 0 W/m -0,1 C -3,2 C 16,1 km/h (3 Bft)
15.01.2023 09:05 1,0 C 0,6 C 92 % 1004,8 hPa 0,2 l/m 16,1 km/h (3 Bft) S-SW 202 0 min 0,0 UV-I 0 W/m -0,2 C -6,4 C 24,1 km/h (4 Bft)
15.01.2023 09:06 1,1 C 0,6 C 92 % 1004,8 hPa 0,0 l/m 16,1 km/h (3 Bft) S 180 0 min 0,0 UV-I 0 W/m -0,1 C -6,3 C 24,1 km/h (4 Bft)
15.01.2023 09:07 1,1 C 0,6 C 92 % 1004,8 hPa 0,0 l/m 19,3 km/h (3 Bft) S-SW 202 0 min 0,0 UV-I 5 W/m -0,1 C -7,9 C 24,1 km/h (4 Bft)
15.01.2023 09:08 1,1 C 0,6 C 92 % 1004,9 hPa 0,0 l/m 16,1 km/h (3 Bft) S-SW 202 0 min 0,0 UV-I 5 W/m -0,1 C -6,3 C 19,3 km/h (3 Bft)
15.01.2023 09:09 1,1 C 0,6 C 92 % 1004,8 hPa 0,0 l/m 17,7 km/h (3 Bft) S-SW 202 0 min 0,0 UV-I 6 W/m -0,1 C -7,1 C 22,5 km/h (4 Bft)
15.01.2023 09:10 1,1 C 0,6 C 92 % 1004,8 hPa 0,0 l/m 20,9 km/h (4 Bft) S 180 0 min 0,0 UV-I 7 W/m -0,1 C -8,6 C 33,8 km/h (5 Bft)
15.01.2023 09:11 1,1 C 0,6 C 92 % 1004,9 hPa 0,0 l/m 20,9 km/h (4 Bft) S-SW 202 0 min 0,0 UV-I 9 W/m -0,1 C -8,6 C 29,0 km/h (5 Bft)
15.01.2023 09:12 1,1 C 0,6 C 92 % 1004,8 hPa 0,0 l/m 17,7 km/h (3 Bft) S-SW 202 0 min 0,0 UV-I 11 W/m -0,1 C -7,1 C 25,7 km/h (4 Bft)
15.01.2023 09:13 1,1 C 0,6 C 92 % 1004,7 hPa 0,0 l/m 14,5 km/h (3 Bft) S-SW 202 0 min 0,0 UV-I 12 W/m -0,1 C -5,4 C 20,9 km/h (4 Bft)
15.01.2023 09:14 1,1 C 0,6 C 92 % 1004,8 hPa 0,0 l/m 12,9 km/h (3 Bft) S 180 0 min 0,0 UV-I 14 W/m -0,1 C -4,3 C 17,7 km/h (3 Bft)
15.01.2023 09:15 1,1 C 0,6 C 92 % 1004,8 hPa 0,0 l/m 14,5 km/h (3 Bft) S-SW 202 0 min 0,0 UV-I 16 W/m -0,1 C -5,4 C 19,3 km/h (3 Bft)
15.01.2023 09:16 1,1 C 0,6 C 92 % 1004,8 hPa 0,0 l/m 12,9 km/h (3 Bft) S-SW 202 0 min 0,0 UV-I 18 W/m -0,1 C -4,3 C 17,7 km/h (3 Bft)
15.01.2023 09:17 1,1 C 0,6 C 92 % 1004,9 hPa 0,0 l/m 12,9 km/h (3 Bft) S-SW 202 0 min 0,0 UV-I 19 W/m -0,1 C -4,3 C 17,7 km/h (3 Bft)
15.01.2023 09:18 1,1 C 0,6 C 92 % 1004,8 hPa 0,0 l/m 17,7 km/h (3 Bft) S 180 0 min 0,0 UV-I 18 W/m -0,1 C -7,1 C 25,7 km/h (4 Bft)
15.01.2023 09:19 1,1 C 0,6 C 92 % 1004,9 hPa 0,0 l/m 14,5 km/h (3 Bft) S 180 0 min 0,0 UV-I 19 W/m -0,1 C -5,4 C 22,5 km/h (4 Bft)
15.01.2023 09:20 1,1 C 0,6 C 92 % 1004,9 hPa 0,0 l/m 17,7 km/h (3 Bft) S-SW 202 0 min 0,0 UV-I 19 W/m -0,1 C -7,1 C 25,7 km/h (4 Bft)
15.01.2023 09:21 1,1 C 0,6 C 92 % 1004,9 hPa 0,0 l/m 19,3 km/h (3 Bft) S-SW 202 0 min 0,0 UV-I 19 W/m -0,1 C -7,9 C 25,7 km/h (4 Bft)
15.01.2023 09:22 1,1 C 0,6 C 92 % 1004,9 hPa 0,0 l/m 17,7 km/h (3 Bft) S-SW 202 0 min 0,0 UV-I 21 W/m -0,1 C -7,1 C 24,1 km/h (4 Bft)
15.01.2023 09:23 1,1 C 0,6 C 92 % 1004,9 hPa 0,0 l/m 17,7 km/h (3 Bft) S-SW 202 0 min 0,0 UV-I 21 W/m -0,1 C -7,1 C 22,5 km/h (4 Bft)
15.01.2023 09:24 1,1 C 0,6 C 92 % 1004,9 hPa 0,0 l/m 14,5 km/h (3 Bft) S-SW 202 0 min 0,0 UV-I 21 W/m -0,1 C -5,4 C 20,9 km/h (4 Bft)
15.01.2023 09:25 1,1 C 0,6 C 92 % 1004,9 hPa 0,0 l/m 17,7 km/h (3 Bft) S-SW 202 0 min 0,0 UV-I 19 W/m -0,1 C -7,1 C 22,5 km/h (4 Bft)
15.01.2023 09:26 1,2 C 0,6 C 92 % 1004,9 hPa 0,0 l/m 17,7 km/h (3 Bft) S-SW 202 0 min 0,0 UV-I 20 W/m 0,0 C -7,0 C 24,1 km/h (4 Bft)
15.01.2023 09:27 1,2 C 0,6 C 92 % 1004,9 hPa 0,0 l/m 14,5 km/h (3 Bft) S-SW 202 0 min 0,0 UV-I 21 W/m 0,0 C -5,2 C 22,5 km/h (4 Bft)
15.01.2023 09:30 1,1 C 0,6 C 91 % 1005,0 hPa 0,0 l/m 15,0 km/h (3 Bft) S 178 0 min 0,0 UV-I 22 W/m -0,2 C -5,6 C 19,3 km/h (3 Bft)
15.01.2023 09:33 1,2 C 0,6 C 91 % 1005,1 hPa 0,2 l/m 12,3 km/h (3 Bft) S-SW 208 0 min 0,0 UV-I 23 W/m -0,1 C -3,8 C 16,1 km/h (3 Bft)
15.01.2023 09:36 1,2 C 0,6 C 91 % 1005,2 hPa 0,0 l/m 19,6 km/h (3 Bft) S 187 0 min 0,0 UV-I 27 W/m -0,1 C -7,9 C 30,6 km/h (5 Bft)
15.01.2023 09:39 1,2 C 0,6 C 91 % 1005,1 hPa 0,0 l/m 15,3 km/h (3 Bft) S-SW 200 0 min 0,0 UV-I 26 W/m -0,1 C -5,7 C 24,1 km/h (4 Bft)
15.01.2023 09:42 1,2 C 0,6 C 91 % 1005,3 hPa 0,0 l/m 16,7 km/h (3 Bft) S 184 0 min 0,0 UV-I 26 W/m -0,1 C -6,5 C 25,7 km/h (4 Bft)
15.01.2023 09:45 1,2 C 0,6 C 91 % 1005,3 hPa 0,0 l/m 15,7 km/h (3 Bft) S-SW 200 0 min 0,0 UV-I 23 W/m -0,1 C -5,9 C 24,1 km/h (4 Bft)
15.01.2023 09:48 1,2 C 0,6 C 91 % 1005,3 hPa 0,2 l/m 15,0 km/h (3 Bft) S 188 0 min 0,0 UV-I 23 W/m -0,1 C -5,5 C 20,9 km/h (4 Bft)
15.01.2023 09:51 1,2 C 0,6 C 92 % 1005,3 hPa 0,0 l/m 15,7 km/h (3 Bft) S-SW 202 0 min 0,0 UV-I 23 W/m 0,0 C -5,9 C 20,9 km/h (4 Bft)
15.01.2023 09:54 1,2 C 0,6 C 92 % 1005,4 hPa 0,0 l/m 13,4 km/h (3 Bft) S 184 0 min 0,0 UV-I 23 W/m 0,0 C -4,6 C 25,7 km/h (4 Bft)
15.01.2023 09:57 1,2 C 0,6 C 91 % 1005,4 hPa 0,0 l/m 14,9 km/h (3 Bft) S-SW 198 0 min 0,0 UV-I 24 W/m -0,1 C -5,5 C 25,7 km/h (4 Bft)
15.01.2023 10:00 1,2 C 0,6 C 92 % 1005,5 hPa 0,0 l/m 13,1 km/h (3 Bft) S-SW 209 0 min 0,0 UV-I 23 W/m 0,0 C -4,4 C 20,9 km/h (4 Bft)
15.01.2023 10:03 1,3 C 0,6 C 92 % 1005,5 hPa 0,0 l/m 13,4 km/h (3 Bft) S 180 0 min 0,0 UV-I 22 W/m 0,1 C -4,4 C 20,9 km/h (4 Bft)
15.01.2023 10:06 1,3 C 0,6 C 92 % 1005,4 hPa 0,2 l/m 17,4 km/h (3 Bft) S 182 0 min 0,0 UV-I 26 W/m 0,1 C -6,7 C 29,0 km/h (5 Bft)
15.01.2023 10:09 1,3 C 0,6 C 91 % 1005,4 hPa 0,0 l/m 13,8 km/h (3 Bft) S 184 0 min 0,0 UV-I 29 W/m -0,0 C -4,7 C 24,1 km/h (4 Bft)
15.01.2023 10:12 1,3 C 1,1 C 92 % 1005,4 hPa 0,2 l/m 17,4 km/h (3 Bft) S-SW 196 0 min 0,0 UV-I 32 W/m 0,1 C -6,7 C 29,0 km/h (5 Bft)
15.01.2023 10:15 1,3 C 1,1 C 92 % 1005,4 hPa 0,2 l/m 16,9 km/h (3 Bft) S-SW 213 0 min 0,0 UV-I 31 W/m 0,1 C -6,5 C 32,2 km/h (5 Bft)
15.01.2023 10:18 1,4 C 1,1 C 91 % 1005,5 hPa 0,2 l/m 15,2 km/h (3 Bft) S-SW 205 0 min 0,0 UV-I 33 W/m 0,1 C -5,4 C 22,5 km/h (4 Bft)
15.01.2023 10:21 1,4 C 1,1 C 91 % 1005,6 hPa 0,2 l/m 16,7 km/h (3 Bft) SW 230 0 min 0,0 UV-I 33 W/m 0,1 C -6,2 C 22,5 km/h (4 Bft)
15.01.2023 10:24 1,4 C 1,1 C 91 % 1005,6 hPa 0,2 l/m 14,3 km/h (3 Bft) S-SW 202 0 min 0,0 UV-I 36 W/m 0,1 C -4,9 C 22,5 km/h (4 Bft)
15.01.2023 10:27 1,5 C 1,1 C 91 % 1005,4 hPa 0,2 l/m 14,6 km/h (3 Bft) S-SW 205 0 min 0,0 UV-I 26 W/m 0,2 C -4,9 C 29,0 km/h (5 Bft)
15.01.2023 10:30 1,5 C 1,1 C 91 % 1005,4 hPa 0,2 l/m 14,6 km/h (3 Bft) S-SW 204 0 min 0,0 UV-I 17 W/m 0,2 C -4,9 C 25,7 km/h (4 Bft)
15.01.2023 10:33 1,5 C 1,1 C 91 % 1005,4 hPa 0,2 l/m 13,2 km/h (3 Bft) S-SW 208 0 min 0,0 UV-I 19 W/m 0,2 C -4,1 C 19,3 km/h (3 Bft)
15.01.2023 10:36 1,6 C 1,1 C 91 % 1005,5 hPa 0,2 l/m 16,0 km/h (3 Bft) S 190 0 min 0,0 UV-I 22 W/m 0,3 C -5,6 C 27,4 km/h (4 Bft)
15.01.2023 10:39 1,6 C 1,1 C 91 % 1005,5 hPa 0,0 l/m 16,2 km/h (3 Bft) SW 215 0 min 0,0 UV-I 42 W/m 0,3 C -5,7 C 37,0 km/h (5 Bft)
15.01.2023 10:42 1,6 C 1,1 C 91 % 1005,5 hPa 0,2 l/m 14,7 km/h (3 Bft) SW 234 0 min 0,0 UV-I 65 W/m 0,3 C -4,9 C 22,5 km/h (4 Bft)
15.01.2023 10:45 1,6 C 1,1 C 91 % 1005,6 hPa 0,0 l/m 12,4 km/h (3 Bft) S-SW 204 0 min 0,0 UV-I 63 W/m 0,3 C -3,4 C 17,7 km/h (3 Bft)
15.01.2023 10:48 1,7 C 1,1 C 91 % 1005,7 hPa 0,2 l/m 13,6 km/h (3 Bft) S-SW 194 0 min 0,0 UV-I 38 W/m 0,4 C -4,1 C 22,5 km/h (4 Bft)
15.01.2023 10:51 1,7 C 1,1 C 91 % 1005,8 hPa 0,0 l/m 19,2 km/h (3 Bft) S-SW 202 0 min 0,0 UV-I 28 W/m 0,4 C -7,1 C 27,4 km/h (4 Bft)
15.01.2023 10:54 1,7 C 1,1 C 91 % 1005,8 hPa 0,0 l/m 16,9 km/h (3 Bft) S-SW 200 0 min 0,0 UV-I 25 W/m 0,4 C -6,0 C 24,1 km/h (4 Bft)
15.01.2023 10:57 1,7 C 1,1 C 91 % 1006,0 hPa 0,0 l/m 20,1 km/h (4 Bft) S-SW 199 0 min 0,0 UV-I 25 W/m 0,4 C -7,5 C 27,4 km/h (4 Bft)
15.01.2023 11:00 1,7 C 1,1 C 91 % 1005,9 hPa 0,0 l/m 17,6 km/h (3 Bft) SW 218 0 min 0,0 UV-I 25 W/m 0,4 C -6,3 C 25,7 km/h (4 Bft)
15.01.2023 11:03 1,7 C 1,1 C 91 % 1005,9 hPa 0,0 l/m 14,3 km/h (3 Bft) S-SW 194 0 min 0,0 UV-I 26 W/m 0,4 C -4,5 C 22,5 km/h (4 Bft)
15.01.2023 11:06 1,8 C 1,1 C 91 % 1006,0 hPa 0,0 l/m 14,2 km/h (3 Bft) SW 215 0 min 0,0 UV-I 19 W/m 0,5 C -4,3 C 25,7 km/h (4 Bft)
15.01.2023 11:09 1,7 C 1,1 C 90 % 1006,0 hPa 0,0 l/m 15,9 km/h (3 Bft) S-SW 202 0 min 0,0 UV-I 17 W/m 0,2 C -5,4 C 25,7 km/h (4 Bft)
15.01.2023 11:12 1,8 C 1,1 C 90 % 1006,1 hPa 0,0 l/m 17,2 km/h (3 Bft) S-SW 209 0 min 0,0 UV-I 35 W/m 0,3 C -6,0 C 30,6 km/h (5 Bft)
15.01.2023 11:15 1,8 C 1,1 C 90 % 1006,2 hPa 0,0 l/m 22,6 km/h (4 Bft) SW 225 0 min 0,0 UV-I 52 W/m 0,3 C -8,4 C 35,4 km/h (5 Bft)
15.01.2023 11:18 1,8 C 1,1 C 90 % 1006,2 hPa 0,0 l/m 19,3 km/h (3 Bft) S-SW 213 0 min 0,0 UV-I 40 W/m 0,3 C -7,0 C 33,8 km/h (5 Bft)
15.01.2023 11:21 1,8 C 1,1 C 90 % 1006,4 hPa 0,0 l/m 16,6 km/h (3 Bft) S-SW 203 0 min 0,0 UV-I 52 W/m 0,3 C -5,7 C 24,1 km/h (4 Bft)
15.01.2023 11:24 1,8 C 1,1 C 90 % 1006,3 hPa 0,0 l/m 23,8 km/h (4 Bft) S 180 0 min 0,0 UV-I 59 W/m 0,3 C -8,8 C 37,0 km/h (5 Bft)
15.01.2023 11:27 1,8 C 1,1 C 90 % 1006,4 hPa 0,0 l/m 23,3 km/h (4 Bft) S-SW 204 0 min 0,0 UV-I 54 W/m 0,3 C -8,7 C 32,2 km/h (5 Bft)
15.01.2023 11:30 1,8 C 1,1 C 90 % 1006,3 hPa 0,0 l/m 23,1 km/h (4 Bft) S-SW 198 0 min 0,0 UV-I 51 W/m 0,3 C -8,6 C 38,6 km/h (5 Bft)
15.01.2023 11:33 1,9 C 1,1 C 89 % 1006,6 hPa 0,0 l/m 18,3 km/h (3 Bft) S-SW 196 0 min 0,0 UV-I 74 W/m 0,3 C -6,4 C 37,0 km/h (5 Bft)
15.01.2023 11:36 1,9 C 1,1 C 89 % 1006,5 hPa 0,0 l/m 23,3 km/h (4 Bft) S-SW 213 0 min 0,0 UV-I 73 W/m 0,3 C -8,5 C 35,4 km/h (5 Bft)
15.01.2023 11:39 1,9 C 1,1 C 89 % 1006,5 hPa 0,0 l/m 19,7 km/h (3 Bft) S 176 0 min 0,0 UV-I 64 W/m 0,3 C -7,0 C 32,2 km/h (5 Bft)
15.01.2023 11:42 1,9 C 1,7 C 89 % 1006,4 hPa 0,0 l/m 18,0 km/h (3 Bft) S-SW 207 0 min 0,0 UV-I 92 W/m 0,3 C -6,3 C 33,8 km/h (5 Bft)
15.01.2023 11:45 1,9 C 1,7 C 89 % 1006,5 hPa 0,0 l/m 18,9 km/h (3 Bft) SW 226 0 min 0,3 UV-I 116 W/m 0,3 C -6,7 C 30,6 km/h (5 Bft)
15.01.2023 11:48 1,9 C 1,7 C 89 % 1006,3 hPa 0,0 l/m 17,6 km/h (3 Bft) SW 215 0 min 0,0 UV-I 106 W/m 0,3 C -6,1 C 25,7 km/h (4 Bft)
15.01.2023 11:51 2,0 C 1,7 C 89 % 1006,3 hPa 0,0 l/m 20,9 km/h (4 Bft) S-SW 212 0 min 0,1 UV-I 107 W/m 0,4 C -7,4 C 32,2 km/h (5 Bft)
15.01.2023 11:54 2,0 C 1,7 C 89 % 1006,4 hPa 0,0 l/m 24,1 km/h (4 Bft) W-SW 251 0 min 0,5 UV-I 121 W/m 0,4 C -8,7 C 38,6 km/h (5 Bft)
15.01.2023 11:57 2,1 C 1,7 C 89 % 1006,5 hPa 0,0 l/m 20,7 km/h (4 Bft) S-SW 209 0 min 0,3 UV-I 117 W/m 0,5 C -7,2 C 30,6 km/h (5 Bft)
15.01.2023 12:00 2,1 C 1,7 C 89 % 1006,5 hPa 0,0 l/m 19,8 km/h (3 Bft) S-SW 207 0 min 0,0 UV-I 96 W/m 0,5 C -6,8 C 29,0 km/h (5 Bft)
15.01.2023 12:03 2,1 C 1,7 C 88 % 1006,5 hPa 0,0 l/m 16,2 km/h (3 Bft) S 190 0 min 0,0 UV-I 84 W/m 0,3 C -5,1 C 24,1 km/h (4 Bft)
15.01.2023 12:06 2,1 C 1,7 C 89 % 1006,6 hPa 0,0 l/m 19,9 km/h (4 Bft) S 190 0 min 0,0 UV-I 74 W/m 0,5 C -6,9 C 32,2 km/h (5 Bft)
15.01.2023 12:09 2,1 C 1,7 C 88 % 1006,6 hPa 0,0 l/m 18,7 km/h (3 Bft) S-SW 204 0 min 0,0 UV-I 78 W/m 0,3 C -6,3 C 29,0 km/h (5 Bft)
15.01.2023 12:12 2,1 C 1,7 C 88 % 1006,4 hPa 0,0 l/m 19,5 km/h (3 Bft) S-SW 202 0 min 0,1 UV-I 101 W/m 0,3 C -6,7 C 32,2 km/h (5 Bft)
15.01.2023 12:15 2,2 C 1,7 C 88 % 1006,4 hPa 0,0 l/m 18,9 km/h (3 Bft) S-SW 198 0 min 0,0 UV-I 75 W/m 0,4 C -6,3 C 29,0 km/h (5 Bft)
15.01.2023 12:18 2,1 C 1,7 C 88 % 1006,4 hPa 0,0 l/m 18,4 km/h (3 Bft) SW 219 0 min 0,0 UV-I 54 W/m 0,3 C -6,2 C 27,4 km/h (4 Bft)
15.01.2023 12:21 2,2 C 1,7 C 88 % 1006,4 hPa 0,0 l/m 16,8 km/h (3 Bft) S-SW 207 0 min 0,0 UV-I 55 W/m 0,4 C -5,3 C 29,0 km/h (5 Bft)
15.01.2023 12:24 2,2 C 1,7 C 88 % 1006,4 hPa 0,0 l/m 21,9 km/h (4 Bft) SW 215 0 min 0,0 UV-I 78 W/m 0,4 C -7,6 C 32,2 km/h (5 Bft)
15.01.2023 12:27 2,2 C 1,7 C 88 % 1006,4 hPa 0,0 l/m 24,3 km/h (4 Bft) S 191 0 min 0,0 UV-I 83 W/m 0,4 C -8,5 C 40,2 km/h (6 Bft)
15.01.2023 12:30 2,3 C 2,2 C 87 % 1006,2 hPa 0,0 l/m 21,0 km/h (4 Bft) SW 216 0 min 0,3 UV-I 94 W/m 0,4 C -7,1 C 43,5 km/h (6 Bft)
15.01.2023 12:33 2,3 C 2,2 C 87 % 1006,2 hPa 0,0 l/m 23,4 km/h (4 Bft) S-SW 209 0 min 0,6 UV-I 151 W/m 0,4 C -8,0 C 38,6 km/h (5 Bft)
15.01.2023 12:36 2,4 C 2,8 C 87 % 1006,3 hPa 0,0 l/m 21,0 km/h (4 Bft) S-SW 194 0 min 0,6 UV-I 139 W/m 0,5 C -7,0 C 37,0 km/h (5 Bft)
15.01.2023 12:39 2,4 C 2,2 C 87 % 1006,3 hPa 0,0 l/m 24,8 km/h (4 Bft) SW 215 0 min 0,1 UV-I 110 W/m 0,5 C -8,4 C 38,6 km/h (5 Bft)
15.01.2023 12:42 2,4 C 2,2 C 86 % 1006,1 hPa 0,0 l/m 22,3 km/h (4 Bft) S 185 0 min 0,0 UV-I 96 W/m 0,3 C -7,5 C 32,2 km/h (5 Bft)
15.01.2023 12:45 2,4 C 2,2 C 87 % 1005,8 hPa 0,0 l/m 19,2 km/h (3 Bft) S-SW 192 0 min 0,3 UV-I 120 W/m 0,5 C -6,2 C 30,6 km/h (5 Bft)
15.01.2023 12:46 2,4 C 2,2 C 87 % 1005,8 hPa 0,0 l/m 22,5 km/h (4 Bft) S-SW 202 0 min 0,5 UV-I 115 W/m 0,5 C -7,6 C 30,6 km/h (5 Bft)
15.01.2023 12:47 2,5 C 2,8 C 87 % 1005,9 hPa 0,0 l/m 22,5 km/h (4 Bft) S-SW 202 0 min 0,5 UV-I 139 W/m 0,6 C -7,4 C 35,4 km/h (5 Bft)
15.01.2023 12:48 2,5 C 2,8 C 87 % 1005,8 hPa 0,0 l/m 22,5 km/h (4 Bft) S-SW 202 0 min 0,5 UV-I 121 W/m 0,6 C -7,4 C 37,0 km/h (5 Bft)
15.01.2023 12:49 2,5 C 2,8 C 87 % 1005,9 hPa 0,0 l/m 22,5 km/h (4 Bft) S-SW 202 0 min 0,5 UV-I 127 W/m 0,6 C -7,4 C 30,6 km/h (5 Bft)
15.01.2023 12:50 2,5 C 2,8 C 86 % 1006,0 hPa 0,0 l/m 24,1 km/h (4 Bft) S-SW 202 0 min 0,5 UV-I 128 W/m 0,4 C -8,0 C 30,6 km/h (5 Bft)
15.01.2023 12:51 2,6 C 2,8 C 86 % 1005,9 hPa 0,0 l/m 22,5 km/h (4 Bft) S 180 0 min 0,5 UV-I 136 W/m 0,5 C -7,3 C 43,5 km/h (6 Bft)
15.01.2023 12:52 2,6 C 2,8 C 86 % 1005,8 hPa 0,0 l/m 22,5 km/h (4 Bft) S-SW 202 0 min 0,5 UV-I 172 W/m 0,5 C -7,3 C 29,0 km/h (5 Bft)
15.01.2023 12:53 2,6 C 2,8 C 86 % 1005,9 hPa 0,0 l/m 22,5 km/h (4 Bft) S-SW 202 0 min 0,6 UV-I 167 W/m 0,5 C -7,3 C 30,6 km/h (5 Bft)
15.01.2023 12:54 2,7 C 2,8 C 86 % 1005,9 hPa 0,0 l/m 20,9 km/h (4 Bft) S-SW 202 0 min 0,6 UV-I 172 W/m 0,6 C -6,5 C 25,7 km/h (4 Bft)
15.01.2023 12:55 2,7 C 2,8 C 86 % 1005,9 hPa 0,0 l/m 24,1 km/h (4 Bft) S 180 0 min 0,7 UV-I 197 W/m 0,6 C -7,7 C 27,4 km/h (4 Bft)
15.01.2023 12:56 2,7 C 2,8 C 86 % 1005,9 hPa 0,0 l/m 25,7 km/h (4 Bft) S 180 0 min 0,7 UV-I 213 W/m 0,6 C -8,3 C 38,6 km/h (5 Bft)
15.01.2023 12:57 2,7 C 3,3 C 86 % 1005,7 hPa 0,0 l/m 24,1 km/h (4 Bft) S 180 0 min 0,6 UV-I 180 W/m 0,6 C -7,7 C 35,4 km/h (5 Bft)
15.01.2023 12:59 2,7 C 2,8 C 86 % 1005,8 hPa 0,0 l/m 17,7 km/h (3 Bft) S 180 0 min 0,5 UV-I 130 W/m 0,6 C -5,1 C 24,1 km/h (4 Bft)
15.01.2023 13:00 2,7 C 2,8 C 86 % 1005,8 hPa 0,0 l/m 24,1 km/h (4 Bft) S 180 0 min 0,5 UV-I 120 W/m 0,6 C -7,7 C 30,6 km/h (5 Bft)
15.01.2023 13:01 2,8 C 2,8 C 86 % 1005,8 hPa 0,0 l/m 19,3 km/h (3 Bft) S 180 0 min 0,5 UV-I 130 W/m 0,7 C -5,7 C 38,6 km/h (5 Bft)
15.01.2023 13:02 2,8 C 2,8 C 86 % 1005,8 hPa 0,0 l/m 24,1 km/h (4 Bft) S-SW 202 0 min 0,5 UV-I 165 W/m 0,7 C -7,6 C 30,6 km/h (5 Bft)
15.01.2023 13:03 2,8 C 2,8 C 85 % 1005,8 hPa 0,0 l/m 16,1 km/h (3 Bft) S-SW 202 0 min 0,5 UV-I 145 W/m 0,5 C -4,2 C 24,1 km/h (4 Bft)
15.01.2023 13:04 2,8 C 2,8 C 85 % 1005,9 hPa 0,0 l/m 17,7 km/h (3 Bft) S 180 0 min 0,6 UV-I 134 W/m 0,5 C -5,0 C 22,5 km/h (4 Bft)
15.01.2023 13:05 2,8 C 3,3 C 85 % 1005,8 hPa 0,0 l/m 17,7 km/h (3 Bft) S 180 0 min 0,5 UV-I 134 W/m 0,5 C -5,0 C 29,0 km/h (5 Bft)
15.01.2023 13:06 2,8 C 2,8 C 85 % 1005,9 hPa 0,0 l/m 24,1 km/h (4 Bft) S-SW 202 0 min 0,5 UV-I 113 W/m 0,5 C -7,6 C 30,6 km/h (5 Bft)
15.01.2023 13:07 2,8 C 2,8 C 85 % 1005,8 hPa 0,0 l/m 22,5 km/h (4 Bft) S 180 0 min 0,5 UV-I 111 W/m 0,5 C -7,0 C 33,8 km/h (5 Bft)
15.01.2023 13:08 2,8 C 2,8 C 85 % 1005,8 hPa 0,0 l/m 24,1 km/h (4 Bft) S-SW 202 0 min 0,5 UV-I 121 W/m 0,5 C -7,6 C 33,8 km/h (5 Bft)
15.01.2023 13:09 2,8 C 2,8 C 85 % 1005,8 hPa 0,0 l/m 27,4 km/h (4 Bft) S 180 0 min 0,6 UV-I 129 W/m 0,5 C -8,7 C 45,1 km/h (6 Bft)
15.01.2023 13:10 2,8 C 2,8 C 85 % 1005,8 hPa 0,0 l/m 22,5 km/h (4 Bft) S-SW 202 0 min 0,5 UV-I 123 W/m 0,5 C -7,0 C 30,6 km/h (5 Bft)
15.01.2023 13:11 2,8 C 2,8 C 85 % 1005,8 hPa 0,0 l/m 24,1 km/h (4 Bft) S-SW 202 0 min 0,5 UV-I 118 W/m 0,5 C -7,6 C 48,3 km/h (6 Bft)
15.01.2023 13:12 2,8 C 2,8 C 85 % 1005,8 hPa 0,0 l/m 30,6 km/h (5 Bft) SW 225 0 min 0,0 UV-I 114 W/m 0,5 C -9,6 C 40,2 km/h (6 Bft)
15.01.2023 13:13 2,8 C 2,8 C 85 % 1005,8 hPa 0,0 l/m 27,4 km/h (4 Bft) S 180 0 min 0,0 UV-I 105 W/m 0,5 C -8,7 C 33,8 km/h (5 Bft)
15.01.2023 13:14 2,8 C 2,8 C 85 % 1005,9 hPa 0,0 l/m 27,4 km/h (4 Bft) S-SW 202 0 min 0,0 UV-I 76 W/m 0,5 C -8,7 C 43,5 km/h (6 Bft)
15.01.2023 13:15 2,8 C 2,8 C 84 % 1005,8 hPa 0,0 l/m 22,5 km/h (4 Bft) S-SW 202 0 min 0,0 UV-I 69 W/m 0,4 C -7,0 C 32,2 km/h (5 Bft)
15.01.2023 13:16 2,8 C 2,8 C 84 % 1005,8 hPa 0,0 l/m 25,7 km/h (4 Bft) S 180 0 min 0,0 UV-I 100 W/m 0,4 C -8,2 C 37,0 km/h (5 Bft)
15.01.2023 13:17 2,8 C 2,8 C 84 % 1005,8 hPa 0,0 l/m 19,3 km/h (3 Bft) S-SW 202 0 min 0,0 UV-I 97 W/m 0,4 C -5,7 C 27,4 km/h (4 Bft)
15.01.2023 13:18 2,8 C 2,8 C 85 % 1005,8 hPa 0,0 l/m 19,3 km/h (3 Bft) S 180 0 min 0,0 UV-I 91 W/m 0,5 C -5,7 C 25,7 km/h (4 Bft)
15.01.2023 13:19 2,9 C 2,8 C 85 % 1005,9 hPa 0,0 l/m 17,7 km/h (3 Bft) S-SW 202 0 min 0,0 UV-I 95 W/m 0,6 C -4,8 C 25,7 km/h (4 Bft)
15.01.2023 13:20 2,8 C 2,8 C 85 % 1005,8 hPa 0,0 l/m 20,9 km/h (4 Bft) S 180 0 min 0,0 UV-I 104 W/m 0,5 C -6,4 C 37,0 km/h (5 Bft)
15.01.2023 13:21 2,9 C 2,8 C 85 % 1005,8 hPa 0,0 l/m 16,1 km/h (3 Bft) S-SW 202 0 min 0,0 UV-I 75 W/m 0,6 C -4,1 C 25,7 km/h (4 Bft)
15.01.2023 13:22 2,8 C 2,8 C 85 % 1005,9 hPa 0,0 l/m 17,7 km/h (3 Bft) S-SW 202 0 min 0,0 UV-I 69 W/m 0,5 C -5,0 C 25,7 km/h (4 Bft)
15.01.2023 13:23 2,8 C 2,8 C 85 % 1005,9 hPa 0,0 l/m 25,7 km/h (4 Bft) S-SW 202 0 min 0,0 UV-I 77 W/m 0,5 C -8,2 C 35,4 km/h (5 Bft)
15.01.2023 13:24 2,8 C 2,8 C 85 % 1005,8 hPa 0,0 l/m 25,7 km/h (4 Bft) S 180 0 min 0,0 UV-I 84 W/m 0,5 C -8,2 C 33,8 km/h (5 Bft)
15.01.2023 13:25 2,8 C 2,8 C 85 % 1005,8 hPa 0,0 l/m 24,1 km/h (4 Bft) S 180 0 min 0,0 UV-I 98 W/m 0,5 C -7,6 C 32,2 km/h (5 Bft)
15.01.2023 13:26 2,8 C 2,8 C 85 % 1005,8 hPa 0,0 l/m 25,7 km/h (4 Bft) S-SW 202 0 min 0,5 UV-I 90 W/m 0,5 C -8,2 C 37,0 km/h (5 Bft)
15.01.2023 13:27 2,8 C 2,8 C 85 % 1005,7 hPa 0,0 l/m 22,5 km/h (4 Bft) S 180 0 min 0,5 UV-I 128 W/m 0,5 C -7,0 C 38,6 km/h (5 Bft)
15.01.2023 13:28 2,8 C 3,3 C 85 % 1005,7 hPa 0,0 l/m 20,9 km/h (4 Bft) S-SW 202 0 min 0,5 UV-I 153 W/m 0,5 C -6,4 C 29,0 km/h (5 Bft)
15.01.2023 13:29 2,8 C 3,3 C 85 % 1005,7 hPa 0,0 l/m 32,2 km/h (5 Bft) S-SW 202 0 min 0,5 UV-I 111 W/m 0,5 C -10,1 C 48,3 km/h (6 Bft)
15.01.2023 13:30 2,9 C 3,3 C 84 % 1005,8 hPa 0,0 l/m 27,4 km/h (4 Bft) S-SW 202 0 min 0,0 UV-I 121 W/m 0,5 C -8,6 C 49,9 km/h (6 Bft)
15.01.2023 13:31 2,9 C 3,3 C 84 % 1005,9 hPa 0,0 l/m 25,7 km/h (4 Bft) S 180 0 min 0,0 UV-I 88 W/m 0,5 C -8,0 C 43,5 km/h (6 Bft)
15.01.2023 13:32 2,9 C 2,8 C 84 % 1005,8 hPa 0,0 l/m 27,4 km/h (4 Bft) S-SW 202 0 min 0,0 UV-I 79 W/m 0,5 C -8,6 C 35,4 km/h (5 Bft)
15.01.2023 13:33 2,9 C 2,8 C 84 % 1005,8 hPa 0,0 l/m 24,1 km/h (4 Bft) S-SW 202 0 min 0,0 UV-I 91 W/m 0,5 C -7,5 C 33,8 km/h (5 Bft)
15.01.2023 13:34 2,9 C 2,8 C 84 % 1005,8 hPa 0,0 l/m 20,9 km/h (4 Bft) S-SW 202 0 min 0,3 UV-I 91 W/m 0,5 C -6,3 C 30,6 km/h (5 Bft)
15.01.2023 13:35 2,9 C 3,3 C 84 % 1005,8 hPa 0,0 l/m 24,1 km/h (4 Bft) S-SW 202 0 min 0,5 UV-I 107 W/m 0,5 C -7,5 C 32,2 km/h (5 Bft)
15.01.2023 13:36 2,9 C 3,3 C 84 % 1005,9 hPa 0,0 l/m 24,1 km/h (4 Bft) S-SW 202 0 min 0,0 UV-I 88 W/m 0,5 C -7,5 C 35,4 km/h (5 Bft)
15.01.2023 13:37 2,9 C 2,8 C 84 % 1005,7 hPa 0,0 l/m 29,0 km/h (5 Bft) S-SW 202 0 min 0,0 UV-I 95 W/m 0,5 C -9,0 C 43,5 km/h (6 Bft)
15.01.2023 13:38 2,9 C 2,8 C 84 % 1005,8 hPa 0,0 l/m 22,5 km/h (4 Bft) S 180 0 min 0,0 UV-I 87 W/m 0,5 C -6,9 C 37,0 km/h (5 Bft)
15.01.2023 13:39 2,9 C 2,8 C 84 % 1005,8 hPa 0,0 l/m 20,9 km/h (4 Bft) S-SW 202 0 min 0,0 UV-I 63 W/m 0,5 C -6,3 C 29,0 km/h (5 Bft)
15.01.2023 13:40 2,9 C 2,8 C 84 % 1005,8 hPa 0,0 l/m 20,9 km/h (4 Bft) S-SW 202 0 min 0,0 UV-I 63 W/m 0,5 C -6,3 C 27,4 km/h (4 Bft)
15.01.2023 13:41 2,9 C 2,8 C 84 % 1005,8 hPa 0,0 l/m 27,4 km/h (4 Bft) S-SW 202 0 min 0,0 UV-I 69 W/m 0,5 C -8,6 C 40,2 km/h (6 Bft)
15.01.2023 13:45 2,9 C 2,8 C 84 % 1005,8 hPa 0,0 l/m 20,7 km/h (4 Bft) S-SW 197 0 min 0,0 UV-I 75 W/m 0,5 C -6,2 C 32,2 km/h (5 Bft)
15.01.2023 13:48 2,9 C 2,8 C 84 % 1005,8 hPa 0,0 l/m 24,1 km/h (4 Bft) S-SW 192 0 min 0,0 UV-I 70 W/m 0,5 C -7,5 C 38,6 km/h (5 Bft)
15.01.2023 13:51 2,9 C 2,8 C 83 % 1005,7 hPa 0,0 l/m 29,5 km/h (5 Bft) S-SW 211 0 min 0,0 UV-I 58 W/m 0,3 C -9,2 C 46,7 km/h (6 Bft)
15.01.2023 13:54 2,9 C 2,8 C 84 % 1005,6 hPa 0,0 l/m 24,1 km/h (4 Bft) S-SW 200 0 min 0,0 UV-I 59 W/m 0,5 C -7,5 C 38,6 km/h (5 Bft)
15.01.2023 13:57 2,9 C 2,8 C 83 % 1005,7 hPa 0,0 l/m 21,4 km/h (4 Bft) S-SO 158 0 min 0,0 UV-I 61 W/m 0,3 C -6,5 C 38,6 km/h (5 Bft)
15.01.2023 14:00 2,9 C 2,8 C 84 % 1005,7 hPa 0,0 l/m 25,5 km/h (4 Bft) W-SW 237 0 min 0,0 UV-I 57 W/m 0,5 C -8,0 C 41,8 km/h (6 Bft)
15.01.2023 14:03 2,9 C 2,8 C 84 % 1005,8 hPa 0,0 l/m 18,7 km/h (3 Bft) S-SW 194 0 min 0,0 UV-I 43 W/m 0,5 C -5,3 C 35,4 km/h (5 Bft)
15.01.2023 14:06 2,9 C 2,8 C 84 % 1005,7 hPa 0,0 l/m 22,1 km/h (4 Bft) S-SW 194 0 min 0,0 UV-I 67 W/m 0,5 C -6,7 C 45,1 km/h (6 Bft)
15.01.2023 14:09 2,9 C 2,8 C 83 % 1005,7 hPa 0,0 l/m 23,7 km/h (4 Bft) SW 217 0 min 0,0 UV-I 86 W/m 0,3 C -7,3 C 38,6 km/h (5 Bft)
15.01.2023 14:12 2,9 C 2,8 C 84 % 1005,5 hPa 0,0 l/m 21,1 km/h (4 Bft) S 174 0 min 0,0 UV-I 103 W/m 0,5 C -6,3 C 32,2 km/h (5 Bft)
15.01.2023 14:15 2,9 C 2,8 C 83 % 1005,7 hPa 0,0 l/m 25,7 km/h (4 Bft) S-SW 196 0 min 0,0 UV-I 70 W/m 0,3 C -8,0 C 40,2 km/h (6 Bft)
15.01.2023 14:18 2,9 C 2,8 C 83 % 1005,6 hPa 0,0 l/m 18,4 km/h (3 Bft) S-SW 198 0 min 0,0 UV-I 64 W/m 0,3 C -5,2 C 29,0 km/h (5 Bft)
15.01.2023 14:21 2,9 C 2,8 C 84 % 1005,7 hPa 0,0 l/m 23,5 km/h (4 Bft) S-SW 200 0 min 0,0 UV-I 66 W/m 0,5 C -7,3 C 37,0 km/h (5 Bft)
15.01.2023 14:24 2,9 C 2,8 C 83 % 1005,7 hPa 0,0 l/m 21,9 km/h (4 Bft) S-SW 194 0 min 0,0 UV-I 64 W/m 0,3 C -6,7 C 33,8 km/h (5 Bft)
15.01.2023 14:27 3,0 C 2,8 C 84 % 1005,6 hPa 0,0 l/m 24,8 km/h (4 Bft) SW 226 0 min 0,0 UV-I 81 W/m 0,6 C -7,6 C 38,6 km/h (5 Bft)
15.01.2023 14:30 2,9 C 2,8 C 83 % 1005,7 hPa 0,0 l/m 27,6 km/h (4 Bft) SW 226 0 min 0,0 UV-I 62 W/m 0,3 C -8,6 C 45,1 km/h (6 Bft)
15.01.2023 14:33 3,0 C 2,8 C 83 % 1005,7 hPa 0,0 l/m 24,5 km/h (4 Bft) S-SW 204 0 min 0,0 UV-I 60 W/m 0,4 C -7,5 C 38,6 km/h (5 Bft)
15.01.2023 14:36 2,9 C 2,8 C 83 % 1005,7 hPa 0,0 l/m 23,9 km/h (4 Bft) S 184 0 min 0,0 UV-I 41 W/m 0,3 C -7,4 C 37,0 km/h (5 Bft)
15.01.2023 14:39 3,0 C 2,8 C 83 % 1005,7 hPa 0,0 l/m 26,3 km/h (4 Bft) S-SW 200 0 min 0,0 UV-I 39 W/m 0,4 C -8,1 C 43,5 km/h (6 Bft)
15.01.2023 14:42 3,0 C 2,8 C 83 % 1005,8 hPa 0,0 l/m 24,0 km/h (4 Bft) SW 217 0 min 0,0 UV-I 46 W/m 0,4 C -7,3 C 40,2 km/h (6 Bft)
15.01.2023 14:45 3,0 C 2,2 C 83 % 1005,8 hPa 0,0 l/m 28,5 km/h (4 Bft) S-SW 193 0 min 0,0 UV-I 46 W/m 0,4 C -8,8 C 48,3 km/h (6 Bft)
15.01.2023 14:48 2,9 C 2,2 C 83 % 1005,9 hPa 0,0 l/m 24,7 km/h (4 Bft) S-SW 199 0 min 0,0 UV-I 48 W/m 0,3 C -7,7 C 38,6 km/h (5 Bft)
15.01.2023 14:51 2,9 C 2,8 C 84 % 1005,9 hPa 0,0 l/m 24,5 km/h (4 Bft) SW 219 0 min 0,0 UV-I 59 W/m 0,5 C -7,6 C 37,0 km/h (5 Bft)
15.01.2023 14:54 2,9 C 2,8 C 84 % 1005,8 hPa 0,0 l/m 21,6 km/h (4 Bft) S-SW 203 0 min 0,0 UV-I 53 W/m 0,5 C -6,5 C 37,0 km/h (5 Bft)
15.01.2023 14:57 2,9 C 2,8 C 84 % 1005,8 hPa 0,0 l/m 23,6 km/h (4 Bft) W-SW 254 0 min 0,0 UV-I 43 W/m 0,5 C -7,3 C 35,4 km/h (5 Bft)
15.01.2023 15:00 2,9 C 2,8 C 84 % 1005,7 hPa 0,0 l/m 21,1 km/h (4 Bft) S-SW 192 0 min 0,0 UV-I 34 W/m 0,5 C -6,3 C 37,0 km/h (5 Bft)
15.01.2023 15:03 3,0 C 2,8 C 84 % 1005,8 hPa 0,0 l/m 20,3 km/h (4 Bft) S-SW 204 0 min 0,0 UV-I 31 W/m 0,6 C -5,9 C 29,0 km/h (5 Bft)
15.01.2023 15:06 3,0 C 2,8 C 84 % 1005,9 hPa 0,0 l/m 17,9 km/h (3 Bft) S-SW 205 0 min 0,0 UV-I 26 W/m 0,6 C -4,8 C 25,7 km/h (4 Bft)
15.01.2023 15:09 3,0 C 2,8 C 84 % 1005,9 hPa 0,0 l/m 23,5 km/h (4 Bft) SW 214 0 min 0,0 UV-I 25 W/m 0,6 C -7,1 C 32,2 km/h (5 Bft)
15.01.2023 15:12 3,0 C 2,8 C 84 % 1005,9 hPa 0,0 l/m 25,3 km/h (4 Bft) SW 215 0 min 0,0 UV-I 15 W/m 0,6 C -7,8 C 38,6 km/h (5 Bft)
15.01.2023 15:15 3,1 C 2,8 C 84 % 1005,9 hPa 0,0 l/m 21,9 km/h (4 Bft) S-SW 210 0 min 0,0 UV-I 19 W/m 0,7 C -6,4 C 32,2 km/h (5 Bft)
15.01.2023 15:18 3,1 C 2,2 C 84 % 1005,9 hPa 0,0 l/m 24,0 km/h (4 Bft) S-SW 196 0 min 0,0 UV-I 14 W/m 0,7 C -7,2 C 35,4 km/h (5 Bft)
15.01.2023 15:21 2,9 C 2,2 C 84 % 1006,1 hPa 0,0 l/m 21,2 km/h (4 Bft) S 180 0 min 0,0 UV-I 17 W/m 0,5 C -6,4 C 27,4 km/h (4 Bft)
15.01.2023 15:24 2,9 C 2,2 C 84 % 1006,0 hPa 0,0 l/m 26,5 km/h (4 Bft) S 178 0 min 0,0 UV-I 20 W/m 0,5 C -8,3 C 38,6 km/h (5 Bft)
15.01.2023 15:27 2,9 C 2,2 C 85 % 1006,1 hPa 0,0 l/m 19,5 km/h (3 Bft) SW 223 0 min 0,0 UV-I 26 W/m 0,6 C -5,7 C 35,4 km/h (5 Bft)
15.01.2023 15:30 2,8 C 2,2 C 85 % 1006,3 hPa 0,0 l/m 20,2 km/h (4 Bft) S-SW 205 0 min 0,0 UV-I 28 W/m 0,5 C -6,1 C 29,0 km/h (5 Bft)
15.01.2023 15:33 2,8 C 2,2 C 85 % 1006,2 hPa 0,0 l/m 22,4 km/h (4 Bft) SW 215 0 min 0,0 UV-I 31 W/m 0,5 C -7,0 C 41,8 km/h (6 Bft)
15.01.2023 15:36 2,8 C 2,2 C 85 % 1006,4 hPa 0,0 l/m 20,6 km/h (4 Bft) S-SW 206 0 min 0,0 UV-I 27 W/m 0,5 C -6,3 C 32,2 km/h (5 Bft)
15.01.2023 15:39 2,8 C 2,2 C 85 % 1006,4 hPa 0,0 l/m 26,6 km/h (4 Bft) S-SW 196 0 min 0,0 UV-I 30 W/m 0,5 C -8,5 C 37,0 km/h (5 Bft)
15.01.2023 15:42 2,8 C 2,2 C 85 % 1006,4 hPa 0,0 l/m 22,8 km/h (4 Bft) S-SW 192 0 min 0,0 UV-I 21 W/m 0,5 C -7,1 C 33,8 km/h (5 Bft)
15.01.2023 15:45 2,8 C 2,2 C 85 % 1006,3 hPa 0,0 l/m 21,0 km/h (4 Bft) S-SW 202 0 min 0,0 UV-I 21 W/m 0,5 C -6,4 C 40,2 km/h (6 Bft)
15.01.2023 15:48 2,8 C 2,2 C 85 % 1006,4 hPa 0,0 l/m 19,4 km/h (3 Bft) S-SW 192 0 min 0,0 UV-I 13 W/m 0,5 C -5,8 C 30,6 km/h (5 Bft)
15.01.2023 15:51 2,8 C 2,2 C 85 % 1006,6 hPa 0,0 l/m 20,2 km/h (4 Bft) S 186 0 min 0,0 UV-I 7 W/m 0,5 C -6,1 C 32,2 km/h (5 Bft)
15.01.2023 15:54 2,8 C 2,2 C 85 % 1006,5 hPa 0,0 l/m 17,6 km/h (3 Bft) S 191 0 min 0,0 UV-I 7 W/m 0,5 C -4,9 C 27,4 km/h (4 Bft)
15.01.2023 15:57 2,8 C 2,2 C 85 % 1006,5 hPa 0,0 l/m 24,6 km/h (4 Bft) S-SW 211 0 min 0,0 UV-I 8 W/m 0,5 C -7,8 C 38,6 km/h (5 Bft)
15.01.2023 16:00 2,8 C 2,2 C 85 % 1006,2 hPa 0,0 l/m 20,3 km/h (4 Bft) S 177 0 min 0,0 UV-I 9 W/m 0,5 C -6,1 C 37,0 km/h (5 Bft)
15.01.2023 16:03 2,8 C 2,2 C 85 % 1006,4 hPa 0,0 l/m 22,3 km/h (4 Bft) S 179 0 min 0,0 UV-I 12 W/m 0,5 C -6,9 C 35,4 km/h (5 Bft)
15.01.2023 16:06 2,8 C 2,2 C 85 % 1006,4 hPa 0,0 l/m 25,3 km/h (4 Bft) S 183 0 min 0,0 UV-I 16 W/m 0,5 C -8,0 C 37,0 km/h (5 Bft)
15.01.2023 16:09 2,8 C 2,2 C 85 % 1006,5 hPa 0,0 l/m 22,7 km/h (4 Bft) S-SW 204 0 min 0,0 UV-I 10 W/m 0,5 C -7,1 C 38,6 km/h (5 Bft)
15.01.2023 16:12 2,7 C 1,7 C 85 % 1006,5 hPa 0,0 l/m 17,6 km/h (3 Bft) S-SO 167 0 min 0,0 UV-I 7 W/m 0,4 C -5,1 C 32,2 km/h (5 Bft)
15.01.2023 16:15 2,5 C 1,1 C 86 % 1006,5 hPa 0,0 l/m 19,1 km/h (3 Bft) S 176 0 min 0,0 UV-I 7 W/m 0,4 C -6,0 C 29,0 km/h (5 Bft)
15.01.2023 16:18 2,4 C 1,1 C 86 % 1006,5 hPa 0,0 l/m 18,4 km/h (3 Bft) S 182 0 min 0,0 UV-I 11 W/m 0,3 C -5,8 C 24,1 km/h (4 Bft)
15.01.2023 16:21 2,3 C 1,1 C 87 % 1006,5 hPa 0,0 l/m 17,4 km/h (3 Bft) S-SW 205 0 min 0,0 UV-I 7 W/m 0,4 C -5,5 C 27,4 km/h (4 Bft)
15.01.2023 16:24 2,4 C 1,7 C 87 % 1006,4 hPa 0,0 l/m 19,5 km/h (3 Bft) S-SW 193 0 min 0,0 UV-I 7 W/m 0,5 C -6,3 C 33,8 km/h (5 Bft)
15.01.2023 16:27 2,4 C 1,7 C 87 % 1006,4 hPa 0,0 l/m 21,3 km/h (4 Bft) S-SW 202 0 min 0,0 UV-I 5 W/m 0,5 C -7,1 C 33,8 km/h (5 Bft)
15.01.2023 16:30 2,5 C 1,7 C 87 % 1006,3 hPa 0,0 l/m 22,1 km/h (4 Bft) S 176 0 min 0,0 UV-I 5 W/m 0,6 C -7,3 C 38,6 km/h (5 Bft)
15.01.2023 16:33 2,6 C 1,7 C 87 % 1006,3 hPa 0,0 l/m 21,5 km/h (4 Bft) S 187 0 min 0,0 UV-I 5 W/m 0,7 C -6,9 C 38,6 km/h (5 Bft)
15.01.2023 16:36 2,6 C 1,7 C 87 % 1006,2 hPa 0,0 l/m 19,4 km/h (3 Bft) S-SW 203 0 min 0,0 UV-I 5 W/m 0,7 C -6,0 C 35,4 km/h (5 Bft)
15.01.2023 16:39 2,7 C 1,7 C 87 % 1006,2 hPa 0,0 l/m 22,6 km/h (4 Bft) SW 225 0 min 0,0 UV-I 2 W/m 0,8 C -7,2 C 38,6 km/h (5 Bft)
15.01.2023 16:42 2,7 C 1,7 C 87 % 1006,2 hPa 0,0 l/m 21,8 km/h (4 Bft) SW 215 0 min 0,0 UV-I 0 W/m 0,8 C -6,9 C 32,2 km/h (5 Bft)
15.01.2023 16:45 2,7 C 1,7 C 86 % 1006,2 hPa 0,0 l/m 18,5 km/h (3 Bft) SW 221 0 min 0,0 UV-I 0 W/m 0,6 C -5,5 C 33,8 km/h (5 Bft)
15.01.2023 16:48 2,7 C 1,7 C 87 % 1006,2 hPa 0,2 l/m 22,1 km/h (4 Bft) S-SW 207 0 min 0,0 UV-I 0 W/m 0,8 C -7,0 C 35,4 km/h (5 Bft)
15.01.2023 16:51 2,7 C 1,7 C 87 % 1006,3 hPa 0,0 l/m 19,8 km/h (3 Bft) S 189 0 min 0,0 UV-I 0 W/m 0,8 C -6,1 C 32,2 km/h (5 Bft)
15.01.2023 16:54 2,7 C 1,7 C 87 % 1006,4 hPa 0,0 l/m 23,2 km/h (4 Bft) S 184 0 min 0,0 UV-I 0 W/m 0,8 C -7,4 C 45,1 km/h (6 Bft)
15.01.2023 16:57 2,7 C 1,7 C 87 % 1006,3 hPa 0,0 l/m 22,8 km/h (4 Bft) S-SW 195 0 min 0,0 UV-I 0 W/m 0,8 C -7,3 C 41,8 km/h (6 Bft)
15.01.2023 17:00 2,7 C 1,7 C 86 % 1006,3 hPa 0,0 l/m 21,7 km/h (4 Bft) S-SW 199 0 min 0,0 UV-I 0 W/m 0,6 C -6,8 C 33,8 km/h (5 Bft)
15.01.2023 17:03 2,7 C 1,7 C 86 % 1006,3 hPa 0,0 l/m 24,2 km/h (4 Bft) S-SO 167 0 min 0,0 UV-I 0 W/m 0,6 C -7,8 C 38,6 km/h (5 Bft)
15.01.2023 17:06 2,8 C 1,7 C 86 % 1006,3 hPa 0,0 l/m 24,0 km/h (4 Bft) S-SW 200 0 min 0,0 UV-I 0 W/m 0,7 C -7,6 C 40,2 km/h (6 Bft)
15.01.2023 17:09 2,7 C 1,7 C 86 % 1006,3 hPa 0,0 l/m 25,4 km/h (4 Bft) S-SW 195 0 min 0,0 UV-I 0 W/m 0,6 C -8,2 C 46,7 km/h (6 Bft)
15.01.2023 17:12 2,7 C 1,7 C 86 % 1006,3 hPa 0,0 l/m 26,4 km/h (4 Bft) S-SW 200 0 min 0,0 UV-I 0 W/m 0,6 C -8,5 C 38,6 km/h (5 Bft)
15.01.2023 17:15 2,6 C 1,7 C 86 % 1006,3 hPa 0,0 l/m 22,8 km/h (4 Bft) S 190 0 min 0,0 UV-I 0 W/m 0,5 C -7,4 C 37,0 km/h (5 Bft)
15.01.2023 17:18 2,5 C 1,7 C 87 % 1006,2 hPa 0,0 l/m 21,2 km/h (4 Bft) S 188 0 min 0,0 UV-I 0 W/m 0,6 C -6,9 C 41,8 km/h (6 Bft)
15.01.2023 17:21 2,4 C 1,7 C 87 % 1006,4 hPa 0,0 l/m 24,4 km/h (4 Bft) S-SW 211 0 min 0,0 UV-I 0 W/m 0,5 C -8,3 C 38,6 km/h (5 Bft)
15.01.2023 17:24 2,4 C 1,7 C 87 % 1006,3 hPa 0,0 l/m 23,0 km/h (4 Bft) S-SW 198 0 min 0,0 UV-I 0 W/m 0,5 C -7,7 C 33,8 km/h (5 Bft)
15.01.2023 17:27 2,4 C 1,7 C 87 % 1006,3 hPa 0,0 l/m 23,3 km/h (4 Bft) S-SW 201 0 min 0,0 UV-I 0 W/m 0,5 C -7,9 C 33,8 km/h (5 Bft)
15.01.2023 17:30 2,5 C 1,7 C 87 % 1006,3 hPa 0,0 l/m 24,3 km/h (4 Bft) S-SW 204 0 min 0,0 UV-I 0 W/m 0,6 C -8,1 C 38,6 km/h (5 Bft)
15.01.2023 17:33 2,5 C 1,7 C 88 % 1006,2 hPa 0,0 l/m 20,7 km/h (4 Bft) S-SW 193 0 min 0,0 UV-I 0 W/m 0,7 C -6,7 C 35,4 km/h (5 Bft)
15.01.2023 17:36 2,6 C 1,7 C 88 % 1006,0 hPa 0,0 l/m 23,4 km/h (4 Bft) S-SO 163 0 min 0,0 UV-I 0 W/m 0,8 C -7,6 C 35,4 km/h (5 Bft)
15.01.2023 17:39 2,5 C 1,7 C 88 % 1006,2 hPa 0,0 l/m 20,3 km/h (4 Bft) S-SW 199 0 min 0,0 UV-I 0 W/m 0,7 C -6,5 C 30,6 km/h (5 Bft)
15.01.2023 17:42 2,5 C 1,7 C 88 % 1006,1 hPa 0,0 l/m 19,1 km/h (3 Bft) S 176 0 min 0,0 UV-I 0 W/m 0,7 C -6,0 C 30,6 km/h (5 Bft)
15.01.2023 17:45 2,5 C 1,7 C 88 % 1006,1 hPa 0,0 l/m 22,8 km/h (4 Bft) S-SW 207 0 min 0,0 UV-I 0 W/m 0,7 C -7,5 C 41,8 km/h (6 Bft)
15.01.2023 17:48 2,5 C 1,7 C 88 % 1006,1 hPa 0,0 l/m 21,9 km/h (4 Bft) S-SO 159 0 min 0,0 UV-I 0 W/m 0,7 C -7,2 C 38,6 km/h (5 Bft)
15.01.2023 17:51 2,5 C 1,7 C 88 % 1006,0 hPa 0,0 l/m 23,1 km/h (4 Bft) S 180 0 min 0,0 UV-I 0 W/m 0,7 C -7,6 C 37,0 km/h (5 Bft)
15.01.2023 17:54 2,5 C 1,7 C 88 % 1006,0 hPa 0,0 l/m 20,7 km/h (4 Bft) S 190 0 min 0,0 UV-I 0 W/m 0,7 C -6,7 C 33,8 km/h (5 Bft)
15.01.2023 17:57 2,5 C 1,7 C 88 % 1006,1 hPa 0,0 l/m 19,5 km/h (3 Bft) S 189 0 min 0,0 UV-I 0 W/m 0,7 C -6,2 C 27,4 km/h (4 Bft)
15.01.2023 18:00 2,6 C 1,7 C 88 % 1006,0 hPa 0,0 l/m 23,1 km/h (4 Bft) S 171 0 min 0,0 UV-I 0 W/m 0,8 C -7,5 C 32,2 km/h (5 Bft)
15.01.2023 18:03 2,5 C 1,7 C 88 % 1006,1 hPa 0,0 l/m 26,2 km/h (4 Bft) N 360 0 min 0,0 UV-I 0 W/m 0,7 C -8,7 C 48,3 km/h (6 Bft)
15.01.2023 18:06 2,6 C 1,7 C 88 % 1006,0 hPa 0,0 l/m 18,9 km/h (3 Bft) S 175 0 min 0,0 UV-I 0 W/m 0,8 C -5,8 C 32,2 km/h (5 Bft)
15.01.2023 18:09 2,6 C 1,7 C 88 % 1006,0 hPa 0,0 l/m 21,9 km/h (4 Bft) S 182 0 min 0,0 UV-I 0 W/m 0,8 C -7,1 C 35,4 km/h (5 Bft)
15.01.2023 18:12 2,5 C 1,7 C 88 % 1006,1 hPa 0,0 l/m 22,0 km/h (4 Bft) S 184 0 min 0,0 UV-I 0 W/m 0,7 C -7,2 C 38,6 km/h (5 Bft)
15.01.2023 18:15 2,5 C 1,7 C 88 % 1006,1 hPa 0,0 l/m 22,6 km/h (4 Bft) S 173 0 min 0,0 UV-I 0 W/m 0,7 C -7,5 C 35,4 km/h (5 Bft)
15.01.2023 18:18 2,4 C 1,7 C 88 % 1006,1 hPa 0,0 l/m 25,3 km/h (4 Bft) S 178 0 min 0,0 UV-I 0 W/m 0,6 C -8,6 C 38,6 km/h (5 Bft)
15.01.2023 18:21 2,4 C 1,1 C 88 % 1006,1 hPa 0,0 l/m 26,7 km/h (4 Bft) S-SW 212 0 min 0,0 UV-I 0 W/m 0,6 C -9,0 C 45,1 km/h (6 Bft)
15.01.2023 18:24 2,3 C 1,1 C 88 % 1006,1 hPa 0,0 l/m 22,6 km/h (4 Bft) SW 217 0 min 0,0 UV-I 0 W/m 0,5 C -7,7 C 33,8 km/h (5 Bft)
15.01.2023 18:27 2,3 C 1,7 C 88 % 1006,0 hPa 0,0 l/m 27,2 km/h (4 Bft) S-SW 209 0 min 0,0 UV-I 0 W/m 0,5 C -9,3 C 45,1 km/h (6 Bft)
15.01.2023 18:30 2,4 C 1,7 C 89 % 1005,9 hPa 0,0 l/m 28,0 km/h (4 Bft) S 187 0 min 0,0 UV-I 0 W/m 0,8 C -9,4 C 45,1 km/h (6 Bft)
15.01.2023 18:33 2,4 C 1,7 C 88 % 1005,9 hPa 0,0 l/m 22,5 km/h (4 Bft) S-SW 202 0 min 0,0 UV-I 0 W/m 0,6 C -7,6 C 38,6 km/h (5 Bft)
15.01.2023 18:36 2,4 C 1,7 C 88 % 1006,0 hPa 0,0 l/m 21,4 km/h (4 Bft) S-SW 209 0 min 0,0 UV-I 0 W/m 0,6 C -7,1 C 32,2 km/h (5 Bft)
15.01.2023 18:39 2,4 C 1,7 C 88 % 1005,9 hPa 0,0 l/m 22,8 km/h (4 Bft) S 190 0 min 0,0 UV-I 0 W/m 0,6 C -7,7 C 46,7 km/h (6 Bft)
15.01.2023 18:42 2,5 C 1,7 C 88 % 1005,8 hPa 0,0 l/m 23,1 km/h (4 Bft) S-SW 194 0 min 0,0 UV-I 0 W/m 0,7 C -7,6 C 38,6 km/h (5 Bft)
15.01.2023 18:45 2,4 C 1,7 C 88 % 1005,7 hPa 0,0 l/m 21,3 km/h (4 Bft) S-SW 197 0 min 0,0 UV-I 0 W/m 0,6 C -7,1 C 32,2 km/h (5 Bft)
15.01.2023 18:48 2,4 C 1,7 C 88 % 1005,7 hPa 0,0 l/m 24,1 km/h (4 Bft) S 175 0 min 0,0 UV-I 0 W/m 0,6 C -8,1 C 35,4 km/h (5 Bft)
15.01.2023 18:51 2,4 C 1,7 C 88 % 1005,6 hPa 0,0 l/m 21,4 km/h (4 Bft) S-SW 205 0 min 0,0 UV-I 0 W/m 0,6 C -7,1 C 33,8 km/h (5 Bft)
15.01.2023 18:54 2,3 C 1,7 C 88 % 1005,6 hPa 0,0 l/m 22,8 km/h (4 Bft) S 169 0 min 0,0 UV-I 0 W/m 0,5 C -7,8 C 37,0 km/h (5 Bft)
15.01.2023 18:57 2,3 C 1,7 C 88 % 1005,6 hPa 0,0 l/m 22,6 km/h (4 Bft) S 174 0 min 0,0 UV-I 0 W/m 0,5 C -7,7 C 37,0 km/h (5 Bft)
15.01.2023 19:00 2,3 C 1,7 C 88 % 1005,7 hPa 0,0 l/m 23,6 km/h (4 Bft) S-SW 206 0 min 0,0 UV-I 0 W/m 0,5 C -8,1 C 35,4 km/h (5 Bft)
15.01.2023 19:03 2,3 C 1,7 C 88 % 1005,6 hPa 0,0 l/m 26,0 km/h (4 Bft) S-SW 192 0 min 0,0 UV-I 0 W/m 0,5 C -8,9 C 38,6 km/h (5 Bft)
15.01.2023 19:06 2,3 C 1,7 C 88 % 1005,6 hPa 0,0 l/m 22,1 km/h (4 Bft) S 186 0 min 0,0 UV-I 0 W/m 0,5 C -7,5 C 30,6 km/h (5 Bft)
15.01.2023 19:09 2,3 C 1,7 C 88 % 1005,6 hPa 0,0 l/m 23,8 km/h (4 Bft) S-SW 213 0 min 0,0 UV-I 0 W/m 0,5 C -8,2 C 40,2 km/h (6 Bft)
15.01.2023 19:12 2,3 C 1,7 C 88 % 1005,6 hPa 0,0 l/m 22,5 km/h (4 Bft) S-SW 195 0 min 0,0 UV-I 0 W/m 0,5 C -7,7 C 40,2 km/h (6 Bft)
15.01.2023 19:15 2,3 C 1,7 C 88 % 1005,6 hPa 0,0 l/m 20,7 km/h (4 Bft) S-SO 165 0 min 0,0 UV-I 0 W/m 0,5 C -7,0 C 35,4 km/h (5 Bft)
15.01.2023 19:18 2,2 C 1,7 C 88 % 1005,5 hPa 0,0 l/m 18,1 km/h (3 Bft) S-SO 159 0 min 0,0 UV-I 0 W/m 0,4 C -5,9 C 29,0 km/h (5 Bft)
15.01.2023 19:21 2,2 C 1,1 C 88 % 1005,5 hPa 0,0 l/m 20,0 km/h (4 Bft) S-SW 204 0 min 0,0 UV-I 0 W/m 0,4 C -6,8 C 32,2 km/h (5 Bft)
15.01.2023 19:24 2,2 C 1,1 C 88 % 1005,4 hPa 0,0 l/m 19,0 km/h (3 Bft) S 173 0 min 0,0 UV-I 0 W/m 0,4 C -6,3 C 27,4 km/h (4 Bft)
15.01.2023 19:27 2,1 C 1,1 C 88 % 1005,5 hPa 0,0 l/m 19,8 km/h (3 Bft) S-SW 202 0 min 0,0 UV-I 0 W/m 0,3 C -6,8 C 32,2 km/h (5 Bft)
15.01.2023 19:30 2,1 C 1,1 C 88 % 1005,4 hPa 0,0 l/m 22,8 km/h (4 Bft) S 185 0 min 0,0 UV-I 0 W/m 0,3 C -8,1 C 37,0 km/h (5 Bft)
15.01.2023 19:33 2,1 C 1,1 C 88 % 1005,4 hPa 0,0 l/m 21,7 km/h (4 Bft) SW 216 0 min 0,0 UV-I 0 W/m 0,3 C -7,6 C 33,8 km/h (5 Bft)
15.01.2023 19:36 2,1 C 1,1 C 88 % 1005,3 hPa 0,0 l/m 22,1 km/h (4 Bft) S-SO 163 0 min 0,0 UV-I 0 W/m 0,3 C -7,8 C 35,4 km/h (5 Bft)
15.01.2023 19:39 2,1 C 1,1 C 88 % 1005,3 hPa 0,0 l/m 19,8 km/h (3 Bft) S 172 0 min 0,0 UV-I 0 W/m 0,3 C -6,8 C 32,2 km/h (5 Bft)
15.01.2023 19:42 2,1 C 1,7 C 89 % 1005,4 hPa 0,0 l/m 20,9 km/h (4 Bft) S 186 0 min 0,0 UV-I 0 W/m 0,5 C -7,3 C 32,2 km/h (5 Bft)
15.01.2023 19:45 2,2 C 1,7 C 89 % 1005,5 hPa 0,0 l/m 19,5 km/h (3 Bft) SW 219 0 min 0,0 UV-I 0 W/m 0,6 C -6,6 C 33,8 km/h (5 Bft)
15.01.2023 19:48 2,2 C 1,7 C 89 % 1005,4 hPa 0,0 l/m 20,5 km/h (4 Bft) S 179 0 min 0,0 UV-I 0 W/m 0,6 C -7,0 C 32,2 km/h (5 Bft)
15.01.2023 19:51 2,2 C 1,7 C 89 % 1005,4 hPa 0,0 l/m 18,8 km/h (3 Bft) S 190 0 min 0,0 UV-I 0 W/m 0,6 C -6,3 C 27,4 km/h (4 Bft)
15.01.2023 19:54 2,3 C 1,7 C 89 % 1005,3 hPa 0,0 l/m 18,5 km/h (3 Bft) S-SW 194 0 min 0,0 UV-I 0 W/m 0,7 C -6,0 C 30,6 km/h (5 Bft)
15.01.2023 19:57 2,3 C 1,7 C 89 % 1005,3 hPa 0,0 l/m 19,0 km/h (3 Bft) S-SO 166 0 min 0,0 UV-I 0 W/m 0,7 C -6,2 C 30,6 km/h (5 Bft)
15.01.2023 20:00 2,3 C 1,7 C 89 % 1005,2 hPa 0,0 l/m 21,2 km/h (4 Bft) S 181 0 min 0,0 UV-I 0 W/m 0,7 C -7,2 C 45,1 km/h (6 Bft)
15.01.2023 20:03 2,4 C 1,7 C 88 % 1005,2 hPa 0,0 l/m 22,8 km/h (4 Bft) S-SW 196 0 min 0,0 UV-I 0 W/m 0,6 C -7,7 C 37,0 km/h (5 Bft)
15.01.2023 20:06 2,5 C 1,7 C 89 % 1005,2 hPa 0,0 l/m 27,4 km/h (4 Bft) S 184 0 min 0,0 UV-I 0 W/m 0,9 C -9,1 C 46,7 km/h (6 Bft)
15.01.2023 20:09 2,5 C 1,7 C 88 % 1005,2 hPa 0,0 l/m 21,9 km/h (4 Bft) S-SO 167 0 min 0,0 UV-I 0 W/m 0,7 C -7,2 C 41,8 km/h (6 Bft)
15.01.2023 20:12 2,6 C 1,7 C 88 % 1005,0 hPa 0,0 l/m 22,0 km/h (4 Bft) S 175 0 min 0,0 UV-I 0 W/m 0,8 C -7,1 C 32,2 km/h (5 Bft)
15.01.2023 20:15 2,5 C 1,7 C 88 % 1005,1 hPa 0,0 l/m 22,9 km/h (4 Bft) S-SW 199 0 min 0,0 UV-I 0 W/m 0,7 C -7,6 C 33,8 km/h (5 Bft)
15.01.2023 20:18 2,5 C 1,7 C 88 % 1005,1 hPa 0,0 l/m 26,9 km/h (4 Bft) S-SO 163 0 min 0,0 UV-I 0 W/m 0,7 C -9,0 C 41,8 km/h (6 Bft)
15.01.2023 20:21 2,4 C 1,7 C 88 % 1005,1 hPa 0,0 l/m 25,0 km/h (4 Bft) S 191 0 min 0,0 UV-I 0 W/m 0,6 C -8,5 C 45,1 km/h (6 Bft)
15.01.2023 20:24 2,4 C 1,7 C 88 % 1005,0 hPa 0,0 l/m 20,7 km/h (4 Bft) S-SW 205 0 min 0,0 UV-I 0 W/m 0,6 C -6,8 C 33,8 km/h (5 Bft)
15.01.2023 20:27 2,4 C 1,7 C 88 % 1005,0 hPa 0,0 l/m 21,2 km/h (4 Bft) SW 214 0 min 0,0 UV-I 0 W/m 0,6 C -7,0 C 30,6 km/h (5 Bft)
15.01.2023 20:30 2,4 C 1,7 C 88 % 1004,9 hPa 0,0 l/m 20,5 km/h (4 Bft) S 179 0 min 0,0 UV-I 0 W/m 0,6 C -6,7 C 30,6 km/h (5 Bft)
15.01.2023 20:33 2,4 C 1,7 C 88 % 1004,8 hPa 0,0 l/m 19,7 km/h (3 Bft) S 178 0 min 0,0 UV-I 0 W/m 0,6 C -6,4 C 38,6 km/h (5 Bft)
15.01.2023 20:36 2,4 C 1,7 C 88 % 1004,7 hPa 0,0 l/m 20,0 km/h (4 Bft) S-SW 195 0 min 0,0 UV-I 0 W/m 0,6 C -6,5 C 43,5 km/h (6 Bft)
15.01.2023 20:39 2,4 C 1,7 C 88 % 1004,7 hPa 0,0 l/m 21,2 km/h (4 Bft) S 172 0 min 0,0 UV-I 0 W/m 0,6 C -7,0 C 32,2 km/h (5 Bft)
15.01.2023 20:42 2,4 C 1,7 C 88 % 1004,6 hPa 0,0 l/m 22,9 km/h (4 Bft) SW 215 0 min 0,0 UV-I 0 W/m 0,6 C -7,7 C 40,2 km/h (6 Bft)
15.01.2023 20:45 2,5 C 1,7 C 88 % 1004,5 hPa 0,0 l/m 25,9 km/h (4 Bft) S-SW 213 0 min 0,0 UV-I 0 W/m 0,7 C -8,6 C 41,8 km/h (6 Bft)
15.01.2023 20:48 2,6 C 2,2 C 88 % 1004,5 hPa 0,0 l/m 24,0 km/h (4 Bft) S-SW 198 0 min 0,0 UV-I 0 W/m 0,8 C -7,8 C 38,6 km/h (5 Bft)
15.01.2023 20:51 2,6 C 2,2 C 88 % 1004,5 hPa 0,0 l/m 26,9 km/h (4 Bft) S-SW 200 0 min 0,0 UV-I 0 W/m 0,8 C -8,8 C 40,2 km/h (6 Bft)
15.01.2023 20:54 2,6 C 1,7 C 88 % 1004,4 hPa 0,0 l/m 25,3 km/h (4 Bft) S 190 0 min 0,0 UV-I 0 W/m 0,8 C -8,3 C 46,7 km/h (6 Bft)
15.01.2023 20:57 2,6 C 1,7 C 88 % 1004,4 hPa 0,0 l/m 25,1 km/h (4 Bft) S 189 0 min 0,0 UV-I 0 W/m 0,8 C -8,2 C 40,2 km/h (6 Bft)
15.01.2023 21:00 2,6 C 1,7 C 88 % 1004,4 hPa 0,0 l/m 22,1 km/h (4 Bft) S-SO 165 0 min 0,0 UV-I 0 W/m 0,8 C -7,1 C 30,6 km/h (5 Bft)
15.01.2023 21:03 2,6 C 1,7 C 88 % 1004,3 hPa 0,0 l/m 29,3 km/h (5 Bft) S 185 0 min 0,0 UV-I 0 W/m 0,8 C -9,6 C 54,7 km/h (7 Bft)
15.01.2023 21:06 2,5 C 1,7 C 88 % 1004,3 hPa 0,0 l/m 23,4 km/h (4 Bft) S 173 0 min 0,0 UV-I 0 W/m 0,7 C -7,8 C 35,4 km/h (5 Bft)
15.01.2023 21:09 2,5 C 1,7 C 88 % 1004,2 hPa 0,0 l/m 21,8 km/h (4 Bft) S 177 0 min 0,0 UV-I 0 W/m 0,7 C -7,1 C 33,8 km/h (5 Bft)
15.01.2023 21:12 2,5 C 1,7 C 88 % 1004,3 hPa 0,0 l/m 21,8 km/h (4 Bft) S 179 0 min 0,0 UV-I 0 W/m 0,7 C -7,1 C 38,6 km/h (5 Bft)
15.01.2023 21:15 2,6 C 1,7 C 88 % 1004,3 hPa 0,0 l/m 21,9 km/h (4 Bft) S 187 0 min 0,0 UV-I 0 W/m 0,8 C -7,1 C 32,2 km/h (5 Bft)
15.01.2023 21:18 2,6 C 1,7 C 88 % 1004,3 hPa 0,0 l/m 24,4 km/h (4 Bft) SW 215 0 min 0,0 UV-I 0 W/m 0,8 C -8,0 C 40,2 km/h (6 Bft)
15.01.2023 21:21 2,6 C 1,7 C 88 % 1004,2 hPa 0,0 l/m 23,4 km/h (4 Bft) S 190 0 min 0,0 UV-I 0 W/m 0,8 C -7,6 C 37,0 km/h (5 Bft)
15.01.2023 21:24 2,6 C 1,7 C 88 % 1004,2 hPa 0,0 l/m 22,9 km/h (4 Bft) S-SW 192 0 min 0,0 UV-I 0 W/m 0,8 C -7,4 C 41,8 km/h (6 Bft)
15.01.2023 21:27 2,6 C 1,7 C 88 % 1004,1 hPa 0,0 l/m 22,8 km/h (4 Bft) S 189 0 min 0,0 UV-I 0 W/m 0,8 C -7,4 C 33,8 km/h (5 Bft)
15.01.2023 21:30 2,6 C 1,7 C 88 % 1004,0 hPa 0,0 l/m 21,2 km/h (4 Bft) S 188 0 min 0,0 UV-I 0 W/m 0,8 C -6,8 C 33,8 km/h (5 Bft)
15.01.2023 21:33 2,6 C 1,7 C 88 % 1004,0 hPa 0,0 l/m 15,9 km/h (3 Bft) S 183 0 min 0,0 UV-I 0 W/m 0,8 C -4,3 C 24,1 km/h (4 Bft)
15.01.2023 21:36 2,6 C 1,7 C 88 % 1004,0 hPa 0,0 l/m 18,5 km/h (3 Bft) S 187 0 min 0,0 UV-I 0 W/m 0,8 C -5,6 C 35,4 km/h (5 Bft)
15.01.2023 21:39 2,6 C 1,7 C 88 % 1003,9 hPa 0,0 l/m 18,9 km/h (3 Bft) S 171 0 min 0,0 UV-I 0 W/m 0,8 C -5,8 C 29,0 km/h (5 Bft)
15.01.2023 21:42 2,7 C 1,7 C 88 % 1003,7 hPa 0,2 l/m 22,7 km/h (4 Bft) S 178 0 min 0,0 UV-I 0 W/m 0,9 C -7,2 C 41,8 km/h (6 Bft)
15.01.2023 21:45 2,7 C 1,7 C 88 % 1003,8 hPa 0,0 l/m 20,6 km/h (4 Bft) SO 141 0 min 0,0 UV-I 0 W/m 0,9 C -6,4 C 37,0 km/h (5 Bft)
15.01.2023 21:48 2,7 C 1,7 C 88 % 1003,7 hPa 0,0 l/m 21,1 km/h (4 Bft) S 173 0 min 0,0 UV-I 0 W/m 0,9 C -6,6 C 32,2 km/h (5 Bft)
15.01.2023 21:51 2,7 C 1,7 C 88 % 1003,7 hPa 0,0 l/m 25,1 km/h (4 Bft) S 184 0 min 0,0 UV-I 0 W/m 0,9 C -8,1 C 37,0 km/h (5 Bft)
15.01.2023 21:54 2,7 C 1,7 C 88 % 1003,7 hPa 0,0 l/m 22,5 km/h (4 Bft) S 183 0 min 0,0 UV-I 0 W/m 0,9 C -7,2 C 43,5 km/h (6 Bft)
15.01.2023 21:57 2,7 C 1,7 C 88 % 1003,6 hPa 0,0 l/m 24,4 km/h (4 Bft) S 188 0 min 0,0 UV-I 0 W/m 0,9 C -7,9 C 54,7 km/h (7 Bft)
15.01.2023 22:00 2,7 C 1,7 C 88 % 1003,7 hPa 0,0 l/m 23,4 km/h (4 Bft) S-SW 203 0 min 0,0 UV-I 0 W/m 0,9 C -7,5 C 46,7 km/h (6 Bft)
15.01.2023 22:03 2,7 C 1,7 C 88 % 1003,6 hPa 0,0 l/m 26,2 km/h (4 Bft) S-SW 194 0 min 0,0 UV-I 0 W/m 0,9 C -8,5 C 41,8 km/h (6 Bft)
15.01.2023 22:06 2,7 C 1,7 C 88 % 1003,6 hPa 0,0 l/m 24,8 km/h (4 Bft) S-SW 196 0 min 0,0 UV-I 0 W/m 0,9 C -8,0 C 38,6 km/h (5 Bft)
15.01.2023 22:09 2,6 C 1,7 C 88 % 1003,5 hPa 0,0 l/m 20,4 km/h (4 Bft) S-SW 205 0 min 0,0 UV-I 0 W/m 0,8 C -6,4 C 32,2 km/h (5 Bft)
15.01.2023 22:12 2,6 C 1,7 C 88 % 1003,5 hPa 0,0 l/m 19,6 km/h (3 Bft) S 178 0 min 0,0 UV-I 0 W/m 0,8 C -6,1 C 32,2 km/h (5 Bft)
15.01.2023 22:15 2,6 C 1,7 C 88 % 1003,4 hPa 0,0 l/m 18,1 km/h (3 Bft) S-SO 153 0 min 0,0 UV-I 0 W/m 0,8 C -5,4 C 29,0 km/h (5 Bft)
15.01.2023 22:18 2,5 C 1,7 C 89 % 1003,3 hPa 0,0 l/m 17,2 km/h (3 Bft) S-SO 166 0 min 0,0 UV-I 0 W/m 0,9 C -5,1 C 32,2 km/h (5 Bft)
15.01.2023 22:21 2,5 C 1,7 C 88 % 1003,4 hPa 0,2 l/m 18,3 km/h (3 Bft) S-SW 202 0 min 0,0 UV-I 0 W/m 0,7 C -5,6 C 33,8 km/h (5 Bft)
15.01.2023 22:24 2,4 C 1,7 C 89 % 1003,3 hPa 0,0 l/m 14,6 km/h (3 Bft) S 180 0 min 0,0 UV-I 0 W/m 0,8 C -3,8 C 24,1 km/h (4 Bft)
15.01.2023 22:27 2,4 C 1,7 C 89 % 1003,3 hPa 0,0 l/m 19,7 km/h (3 Bft) S-SW 205 0 min 0,0 UV-I 0 W/m 0,8 C -6,4 C 29,0 km/h (5 Bft)
15.01.2023 22:30 2,4 C 1,7 C 89 % 1003,3 hPa 0,0 l/m 19,2 km/h (3 Bft) S 171 0 min 0,0 UV-I 0 W/m 0,8 C -6,2 C 33,8 km/h (5 Bft)
15.01.2023 22:33 2,3 C 1,7 C 89 % 1003,2 hPa 0,2 l/m 19,8 km/h (3 Bft) S-SW 194 0 min 0,0 UV-I 0 W/m 0,7 C -6,6 C 30,6 km/h (5 Bft)
15.01.2023 22:36 2,3 C 1,7 C 89 % 1003,1 hPa 0,0 l/m 17,4 km/h (3 Bft) SW 225 0 min 0,0 UV-I 0 W/m 0,7 C -5,5 C 27,4 km/h (4 Bft)
15.01.2023 22:39 2,2 C 1,1 C 89 % 1003,0 hPa 0,0 l/m 21,4 km/h (4 Bft) S-SW 204 0 min 0,0 UV-I 0 W/m 0,6 C -7,4 C 35,4 km/h (5 Bft)
15.01.2023 22:42 2,2 C 1,1 C 89 % 1003,0 hPa 0,2 l/m 21,1 km/h (4 Bft) S-SW 200 0 min 0,0 UV-I 0 W/m 0,6 C -7,3 C 35,4 km/h (5 Bft)
15.01.2023 22:45 2,1 C 1,1 C 89 % 1003,0 hPa 0,2 l/m 21,3 km/h (4 Bft) S-SW 193 0 min 0,0 UV-I 0 W/m 0,5 C -7,5 C 30,6 km/h (5 Bft)
15.01.2023 22:48 2,1 C 1,1 C 89 % 1003,0 hPa 0,0 l/m 15,0 km/h (3 Bft) S 172 0 min 0,0 UV-I 0 W/m 0,5 C -4,4 C 20,9 km/h (4 Bft)
15.01.2023 22:51 2,1 C 1,1 C 90 % 1003,0 hPa 0,0 l/m 14,3 km/h (3 Bft) S 183 0 min 0,0 UV-I 0 W/m 0,6 C -4,0 C 25,7 km/h (4 Bft)
15.01.2023 22:54 2,1 C 1,1 C 90 % 1002,8 hPa 0,0 l/m 13,8 km/h (3 Bft) S 170 0 min 0,0 UV-I 0 W/m 0,6 C -3,7 C 20,9 km/h (4 Bft)
15.01.2023 22:57 2,1 C 1,7 C 90 % 1002,9 hPa 0,0 l/m 18,7 km/h (3 Bft) S-SO 161 0 min 0,0 UV-I 0 W/m 0,6 C -6,3 C 32,2 km/h (5 Bft)
15.01.2023 23:00 2,1 C 1,7 C 90 % 1002,9 hPa 0,0 l/m 20,8 km/h (4 Bft) S 175 0 min 0,0 UV-I 0 W/m 0,6 C -7,3 C 32,2 km/h (5 Bft)
15.01.2023 23:03 2,1 C 1,7 C 90 % 1002,8 hPa 0,0 l/m 16,8 km/h (3 Bft) S-SO 163 0 min 0,0 UV-I 0 W/m 0,6 C -5,4 C 33,8 km/h (5 Bft)
15.01.2023 23:06 2,1 C 1,1 C 90 % 1002,7 hPa 0,0 l/m 15,4 km/h (3 Bft) S 188 0 min 0,0 UV-I 0 W/m 0,6 C -4,7 C 30,6 km/h (5 Bft)
15.01.2023 23:09 2,1 C 1,1 C 90 % 1002,6 hPa 0,0 l/m 16,3 km/h (3 Bft) S-SW 205 0 min 0,0 UV-I 0 W/m 0,6 C -5,1 C 25,7 km/h (4 Bft)
15.01.2023 23:12 2,0 C 1,1 C 90 % 1002,7 hPa 0,0 l/m 14,1 km/h (3 Bft) S 176 0 min 0,0 UV-I 0 W/m 0,5 C -4,0 C 20,9 km/h (4 Bft)
15.01.2023 23:15 1,9 C 1,1 C 90 % 1002,7 hPa 0,0 l/m 16,3 km/h (3 Bft) S-SO 160 0 min 0,0 UV-I 0 W/m 0,4 C -5,4 C 32,2 km/h (5 Bft)
15.01.2023 23:18 1,9 C 1,1 C 90 % 1002,7 hPa 0,2 l/m 16,6 km/h (3 Bft) S 181 0 min 0,0 UV-I 0 W/m 0,4 C -5,6 C 29,0 km/h (5 Bft)
15.01.2023 23:21 1,8 C 1,1 C 90 % 1002,7 hPa 0,0 l/m 18,0 km/h (3 Bft) S 170 0 min 0,0 UV-I 0 W/m 0,3 C -6,4 C 25,7 km/h (4 Bft)
15.01.2023 23:24 1,8 C 1,1 C 90 % 1002,6 hPa 0,0 l/m 13,9 km/h (3 Bft) S-SO 166 0 min 0,0 UV-I 0 W/m 0,3 C -4,2 C 20,9 km/h (4 Bft)
15.01.2023 23:27 1,8 C 1,1 C 90 % 1002,6 hPa 0,0 l/m 14,3 km/h (3 Bft) S-SW 192 0 min 0,0 UV-I 0 W/m 0,3 C -4,4 C 24,1 km/h (4 Bft)
15.01.2023 23:30 1,8 C 1,1 C 90 % 1002,6 hPa 0,0 l/m 16,5 km/h (3 Bft) S 169 0 min 0,0 UV-I 0 W/m 0,3 C -5,6 C 29,0 km/h (5 Bft)
15.01.2023 23:33 1,8 C 1,1 C 90 % 1002,5 hPa 0,0 l/m 14,3 km/h (3 Bft) S 181 0 min 0,0 UV-I 0 W/m 0,3 C -4,4 C 25,7 km/h (4 Bft)
15.01.2023 23:36 1,8 C 1,1 C 90 % 1002,3 hPa 0,0 l/m 14,1 km/h (3 Bft) S-SW 199 0 min 0,0 UV-I 0 W/m 0,3 C -4,3 C 29,0 km/h (5 Bft)
15.01.2023 23:39 1,8 C 1,1 C 90 % 1002,3 hPa 0,0 l/m 15,9 km/h (3 Bft) S 181 0 min 0,0 UV-I 0 W/m 0,3 C -5,3 C 27,4 km/h (4 Bft)
15.01.2023 23:42 1,8 C 1,1 C 91 % 1002,3 hPa 0,0 l/m 19,4 km/h (3 Bft) S-SW 192 0 min 0,0 UV-I 0 W/m 0,5 C -7,0 C 32,2 km/h (5 Bft)
15.01.2023 23:45 1,9 C 1,1 C 91 % 1002,2 hPa 0,0 l/m 15,7 km/h (3 Bft) S-SO 156 0 min 0,0 UV-I 0 W/m 0,6 C -5,1 C 27,4 km/h (4 Bft)
15.01.2023 23:48 1,9 C 1,1 C 91 % 1002,2 hPa 0,0 l/m 20,9 km/h (4 Bft) S-SO 165 0 min 0,0 UV-I 0 W/m 0,6 C -7,6 C 30,6 km/h (5 Bft)
15.01.2023 23:51 1,9 C 1,1 C 91 % 1002,1 hPa 0,0 l/m 16,0 km/h (3 Bft) S 186 0 min 0,0 UV-I 0 W/m 0,6 C -5,2 C 22,5 km/h (4 Bft)
15.01.2023 23:54 2,0 C 1,7 C 91 % 1002,1 hPa 0,0 l/m 16,7 km/h (3 Bft) S 174 0 min 0,0 UV-I 0 W/m 0,7 C -5,5 C 27,4 km/h (4 Bft)
15.01.2023 23:57 1,9 C 1,7 C 91 % 1002,1 hPa 0,0 l/m 16,3 km/h (3 Bft) S 182 0 min 0,0 UV-I 0 W/m 0,6 C -5,4 C 25,7 km/h (4 Bft)
15.01.2023 23:58 2,0 C 1,7 C 91 % 1002,1 hPa 0,0 l/m 16,1 km/h (3 Bft) S 180 0 min 0,0 UV-I 0 W/m 0,7 C -5,2 C 24,1 km/h (4 Bft)
15.01.2023 23:59 2,0 C 1,7 C 91 % 1002,1 hPa 0,0 l/m 24,1 km/h (4 Bft) S 180 0 min 0,0 UV-I 0 W/m 0,7 C -8,7 C 38,6 km/h (5 Bft)
_ Min-Zeit 06:04 04:44 13:51 23:51 - 02:51 - - - - - 06:06 13:29 02:51
Minimum _ 0,6 C 0,0 C 83 % 1002,1 hPa - 1,6 km/h (1 Bft) - - - - - -0,5 C -10,1 C 3,2 km/h (1 Bft)
_ Max-Zeit 00:00 00:00 07:18 11:33 00:01 13:29 - - 00:00 12:55 12:56 00:00 00:39 21:03
Maximum _ 6,4 C 5,0 C 93 % 1006,6 hPa 0,2 l/m 32,2 km/h
S-SW (5 Bft)
- - 0 min 0,7 UV-I 213 W/m 4,8 C 4,9 C 54,7 km/h
S (7 Bft)
Durchschnitt _ 2,3 C 1,6 C 89 % 1004,6 hPa #11,0 l/m 17,1 km/h (3 Bft) S-SW - #0 min. 0,4 UV-I 52 W/m 0,6 C -4,8 C 27,0 km/h (4 Bft)